<?xml version="1.0" encoding="UTF-8"?>
<gpx xmlns="http://www.topografix.com/GPX/1/1" xmlns:gpsies="http://www.gpsies.com/GPX/1/0" creator="GPSies http://www.gpsies.com - GPSies Track" version="1.1" xmlns:xsi="http://www.w3.org/2001/XMLSchema-instance" xsi:schemaLocation="http://www.topografix.com/GPX/1/1 http://www.topografix.com/GPX/1/1/gpx.xsd http://www.gpsies.com/GPX/1/0 http://www.gpsies.com/gpsies.xsd">
  <metadata>
    <name>GPSies Track</name>
    <link href="http://www.gpsies.com/">
      <text>GPSies Track on GPSies.com</text>
    </link>
    <time>2013-02-12T11:10:42Z</time>
  </metadata>
  <trk>
    <name>GPSies Track on GPSies.com</name>
    <trkseg>
      <trkpt lat="31.30271220" lon="34.48628050">
        <ele>71.000000</ele>
        <time>2010-01-01T00:00:00Z</time>
      </trkpt>
      <trkpt lat="31.30271230" lon="34.48628660">
        <ele>71.000000</ele>
        <time>2010-01-01T00:00:00Z</time>
      </trkpt>
      <trkpt lat="31.30269060" lon="34.48637260">
        <ele>72.000000</ele>
        <time>2010-01-01T00:00:03Z</time>
      </trkpt>
      <trkpt lat="31.30261540" lon="34.48642120">
        <ele>72.000000</ele>
        <time>2010-01-01T00:00:06Z</time>
      </trkpt>
      <trkpt lat="31.30259340" lon="34.48637920">
        <ele>72.000000</ele>
        <time>2010-01-01T00:00:08Z</time>
      </trkpt>
      <trkpt lat="31.30249570" lon="34.48612140">
        <ele>72.000000</ele>
        <time>2010-01-01T00:00:18Z</time>
      </trkpt>
      <trkpt lat="31.30229740" lon="34.48617510">
        <ele>72.000000</ele>
        <time>2010-01-01T00:00:26Z</time>
      </trkpt>
      <trkpt lat="31.30227000" lon="34.48616080">
        <ele>72.000000</ele>
        <time>2010-01-01T00:00:27Z</time>
      </trkpt>
      <trkpt lat="31.30224230" lon="34.48613720">
        <ele>71.000000</ele>
        <time>2010-01-01T00:00:28Z</time>
      </trkpt>
      <trkpt lat="31.30210970" lon="34.48602690">
        <ele>71.000000</ele>
        <time>2010-01-01T00:00:35Z</time>
      </trkpt>
      <trkpt lat="31.30206680" lon="34.48601050">
        <ele>71.000000</ele>
        <time>2010-01-01T00:00:37Z</time>
      </trkpt>
      <trkpt lat="31.30162450" lon="34.48591980">
        <ele>70.000000</ele>
        <time>2010-01-01T00:00:55Z</time>
      </trkpt>
      <trkpt lat="31.30127940" lon="34.48588510">
        <ele>70.000000</ele>
        <time>2010-01-01T00:01:08Z</time>
      </trkpt>
      <trkpt lat="31.30117900" lon="34.48587530">
        <ele>70.000000</ele>
        <time>2010-01-01T00:01:12Z</time>
      </trkpt>
      <trkpt lat="31.30097010" lon="34.48588130">
        <ele>70.000000</ele>
        <time>2010-01-01T00:01:21Z</time>
      </trkpt>
      <trkpt lat="31.30084830" lon="34.48599500">
        <ele>70.000000</ele>
        <time>2010-01-01T00:01:27Z</time>
      </trkpt>
      <trkpt lat="31.30069550" lon="34.48603640">
        <ele>71.000000</ele>
        <time>2010-01-01T00:01:33Z</time>
      </trkpt>
      <trkpt lat="31.30041570" lon="34.48606330">
        <ele>71.000000</ele>
        <time>2010-01-01T00:01:45Z</time>
      </trkpt>
      <trkpt lat="31.30028950" lon="34.48605950">
        <ele>72.000000</ele>
        <time>2010-01-01T00:01:50Z</time>
      </trkpt>
      <trkpt lat="31.29994290" lon="34.48600900">
        <ele>72.000000</ele>
        <time>2010-01-01T00:02:04Z</time>
      </trkpt>
      <trkpt lat="31.29980960" lon="34.48594160">
        <ele>72.000000</ele>
        <time>2010-01-01T00:02:09Z</time>
      </trkpt>
      <trkpt lat="31.29957930" lon="34.48593360">
        <ele>72.000000</ele>
        <time>2010-01-01T00:02:19Z</time>
      </trkpt>
      <trkpt lat="31.29953010" lon="34.48605510">
        <ele>72.000000</ele>
        <time>2010-01-01T00:02:23Z</time>
      </trkpt>
      <trkpt lat="31.29954390" lon="34.48608700">
        <ele>72.000000</ele>
        <time>2010-01-01T00:02:24Z</time>
      </trkpt>
      <trkpt lat="31.29962630" lon="34.48627840">
        <ele>72.000000</ele>
        <time>2010-01-01T00:02:32Z</time>
      </trkpt>
      <trkpt lat="31.29971090" lon="34.48655590">
        <ele>73.000000</ele>
        <time>2010-01-01T00:02:42Z</time>
      </trkpt>
      <trkpt lat="31.29975900" lon="34.48683620">
        <ele>74.000000</ele>
        <time>2010-01-01T00:02:52Z</time>
      </trkpt>
      <trkpt lat="31.29977520" lon="34.48707120">
        <ele>75.000000</ele>
        <time>2010-01-01T00:03:00Z</time>
      </trkpt>
      <trkpt lat="31.29978130" lon="34.48711390">
        <ele>75.000000</ele>
        <time>2010-01-01T00:03:01Z</time>
      </trkpt>
      <trkpt lat="31.29984040" lon="34.48749000">
        <ele>77.000000</ele>
        <time>2010-01-01T00:03:14Z</time>
      </trkpt>
      <trkpt lat="31.29990960" lon="34.48778060">
        <ele>78.000000</ele>
        <time>2010-01-01T00:03:25Z</time>
      </trkpt>
      <trkpt lat="31.29997570" lon="34.48807370">
        <ele>78.000000</ele>
        <time>2010-01-01T00:03:35Z</time>
      </trkpt>
      <trkpt lat="31.30003320" lon="34.48839790">
        <ele>78.000000</ele>
        <time>2010-01-01T00:03:46Z</time>
      </trkpt>
      <trkpt lat="31.30007410" lon="34.48864940">
        <ele>80.000000</ele>
        <time>2010-01-01T00:03:55Z</time>
      </trkpt>
      <trkpt lat="31.30014010" lon="34.48895140">
        <ele>81.000000</ele>
        <time>2010-01-01T00:04:06Z</time>
      </trkpt>
      <trkpt lat="31.30015740" lon="34.48929600">
        <ele>83.000000</ele>
        <time>2010-01-01T00:04:18Z</time>
      </trkpt>
      <trkpt lat="31.30009670" lon="34.48953200">
        <ele>83.000000</ele>
        <time>2010-01-01T00:04:26Z</time>
      </trkpt>
      <trkpt lat="31.29997980" lon="34.48973810">
        <ele>84.000000</ele>
        <time>2010-01-01T00:04:34Z</time>
      </trkpt>
      <trkpt lat="31.29983340" lon="34.49003020">
        <ele>83.000000</ele>
        <time>2010-01-01T00:04:46Z</time>
      </trkpt>
      <trkpt lat="31.29980100" lon="34.49015880">
        <ele>83.000000</ele>
        <time>2010-01-01T00:04:51Z</time>
      </trkpt>
      <trkpt lat="31.29974240" lon="34.49046070">
        <ele>83.000000</ele>
        <time>2010-01-01T00:05:01Z</time>
      </trkpt>
      <trkpt lat="31.29972930" lon="34.49051590">
        <ele>83.000000</ele>
        <time>2010-01-01T00:05:03Z</time>
      </trkpt>
      <trkpt lat="31.29967920" lon="34.49065060">
        <ele>83.000000</ele>
        <time>2010-01-01T00:05:08Z</time>
      </trkpt>
      <trkpt lat="31.29962640" lon="34.49072710">
        <ele>83.000000</ele>
        <time>2010-01-01T00:05:12Z</time>
      </trkpt>
      <trkpt lat="31.29951690" lon="34.49083510">
        <ele>84.000000</ele>
        <time>2010-01-01T00:05:17Z</time>
      </trkpt>
      <trkpt lat="31.29949180" lon="34.49084960">
        <ele>84.000000</ele>
        <time>2010-01-01T00:05:18Z</time>
      </trkpt>
      <trkpt lat="31.29936950" lon="34.49081710">
        <ele>84.000000</ele>
        <time>2010-01-01T00:05:23Z</time>
      </trkpt>
      <trkpt lat="31.29930150" lon="34.49089800">
        <ele>84.000000</ele>
        <time>2010-01-01T00:05:27Z</time>
      </trkpt>
      <trkpt lat="31.29926930" lon="34.49095340">
        <ele>84.000000</ele>
        <time>2010-01-01T00:05:30Z</time>
      </trkpt>
      <trkpt lat="31.29914480" lon="34.49109480">
        <ele>84.000000</ele>
        <time>2010-01-01T00:05:37Z</time>
      </trkpt>
      <trkpt lat="31.29900740" lon="34.49112590">
        <ele>84.000000</ele>
        <time>2010-01-01T00:05:42Z</time>
      </trkpt>
      <trkpt lat="31.29887370" lon="34.49119590">
        <ele>84.000000</ele>
        <time>2010-01-01T00:05:48Z</time>
      </trkpt>
      <trkpt lat="31.29879930" lon="34.49125420">
        <ele>84.000000</ele>
        <time>2010-01-01T00:05:52Z</time>
      </trkpt>
      <trkpt lat="31.29864330" lon="34.49143150">
        <ele>85.000000</ele>
        <time>2010-01-01T00:06:00Z</time>
      </trkpt>
      <trkpt lat="31.29850820" lon="34.49154330">
        <ele>85.000000</ele>
        <time>2010-01-01T00:06:07Z</time>
      </trkpt>
      <trkpt lat="31.29835590" lon="34.49167530">
        <ele>86.000000</ele>
        <time>2010-01-01T00:06:14Z</time>
      </trkpt>
      <trkpt lat="31.29818890" lon="34.49183750">
        <ele>86.000000</ele>
        <time>2010-01-01T00:06:23Z</time>
      </trkpt>
      <trkpt lat="31.29813410" lon="34.49191170">
        <ele>86.000000</ele>
        <time>2010-01-01T00:06:27Z</time>
      </trkpt>
      <trkpt lat="31.29792430" lon="34.49211730">
        <ele>86.000000</ele>
        <time>2010-01-01T00:06:37Z</time>
      </trkpt>
      <trkpt lat="31.29780140" lon="34.49222240">
        <ele>87.000000</ele>
        <time>2010-01-01T00:06:44Z</time>
      </trkpt>
      <trkpt lat="31.29772310" lon="34.49226990">
        <ele>87.000000</ele>
        <time>2010-01-01T00:06:47Z</time>
      </trkpt>
      <trkpt lat="31.29756670" lon="34.49224870">
        <ele>87.000000</ele>
        <time>2010-01-01T00:06:53Z</time>
      </trkpt>
      <trkpt lat="31.29736640" lon="34.49229590">
        <ele>88.000000</ele>
        <time>2010-01-01T00:07:02Z</time>
      </trkpt>
      <trkpt lat="31.29721750" lon="34.49241610">
        <ele>88.000000</ele>
        <time>2010-01-01T00:07:09Z</time>
      </trkpt>
      <trkpt lat="31.29704100" lon="34.49255300">
        <ele>89.000000</ele>
        <time>2010-01-01T00:07:17Z</time>
      </trkpt>
      <trkpt lat="31.29696970" lon="34.49258870">
        <ele>89.000000</ele>
        <time>2010-01-01T00:07:20Z</time>
      </trkpt>
      <trkpt lat="31.29683520" lon="34.49262190">
        <ele>90.000000</ele>
        <time>2010-01-01T00:07:26Z</time>
      </trkpt>
      <trkpt lat="31.29672020" lon="34.49267220">
        <ele>90.000000</ele>
        <time>2010-01-01T00:07:31Z</time>
      </trkpt>
      <trkpt lat="31.29645040" lon="34.49276260">
        <ele>90.000000</ele>
        <time>2010-01-01T00:07:42Z</time>
      </trkpt>
      <trkpt lat="31.29626070" lon="34.49289260">
        <ele>90.000000</ele>
        <time>2010-01-01T00:07:51Z</time>
      </trkpt>
      <trkpt lat="31.29613450" lon="34.49302380">
        <ele>90.000000</ele>
        <time>2010-01-01T00:07:58Z</time>
      </trkpt>
      <trkpt lat="31.29610410" lon="34.49304970">
        <ele>91.000000</ele>
        <time>2010-01-01T00:07:59Z</time>
      </trkpt>
      <trkpt lat="31.29597120" lon="34.49305910">
        <ele>91.000000</ele>
        <time>2010-01-01T00:08:04Z</time>
      </trkpt>
      <trkpt lat="31.29589910" lon="34.49315320">
        <ele>92.000000</ele>
        <time>2010-01-01T00:08:09Z</time>
      </trkpt>
      <trkpt lat="31.29583780" lon="34.49322070">
        <ele>92.000000</ele>
        <time>2010-01-01T00:08:12Z</time>
      </trkpt>
      <trkpt lat="31.29558910" lon="34.49341960">
        <ele>93.000000</ele>
        <time>2010-01-01T00:08:24Z</time>
      </trkpt>
      <trkpt lat="31.29536020" lon="34.49368220">
        <ele>93.000000</ele>
        <time>2010-01-01T00:08:37Z</time>
      </trkpt>
      <trkpt lat="31.29514270" lon="34.49395740">
        <ele>93.000000</ele>
        <time>2010-01-01T00:08:50Z</time>
      </trkpt>
      <trkpt lat="31.29512030" lon="34.49397830">
        <ele>93.000000</ele>
        <time>2010-01-01T00:08:51Z</time>
      </trkpt>
      <trkpt lat="31.29498350" lon="34.49407620">
        <ele>94.000000</ele>
        <time>2010-01-01T00:08:57Z</time>
      </trkpt>
      <trkpt lat="31.29475400" lon="34.49425500">
        <ele>94.000000</ele>
        <time>2010-01-01T00:09:08Z</time>
      </trkpt>
      <trkpt lat="31.29465860" lon="34.49433540">
        <ele>94.000000</ele>
        <time>2010-01-01T00:09:13Z</time>
      </trkpt>
      <trkpt lat="31.29435370" lon="34.49444570">
        <ele>94.000000</ele>
        <time>2010-01-01T00:09:26Z</time>
      </trkpt>
      <trkpt lat="31.29395610" lon="34.49447520">
        <ele>94.000000</ele>
        <time>2010-01-01T00:09:42Z</time>
      </trkpt>
      <trkpt lat="31.29351030" lon="34.49456120">
        <ele>94.000000</ele>
        <time>2010-01-01T00:10:00Z</time>
      </trkpt>
      <trkpt lat="31.29309200" lon="34.49464660">
        <ele>95.000000</ele>
        <time>2010-01-01T00:10:17Z</time>
      </trkpt>
      <trkpt lat="31.29286940" lon="34.49467260">
        <ele>95.000000</ele>
        <time>2010-01-01T00:10:26Z</time>
      </trkpt>
      <trkpt lat="31.29261310" lon="34.49472120">
        <ele>96.000000</ele>
        <time>2010-01-01T00:10:36Z</time>
      </trkpt>
      <trkpt lat="31.29228680" lon="34.49475600">
        <ele>95.000000</ele>
        <time>2010-01-01T00:10:49Z</time>
      </trkpt>
      <trkpt lat="31.29205520" lon="34.49470850">
        <ele>95.000000</ele>
        <time>2010-01-01T00:10:59Z</time>
      </trkpt>
      <trkpt lat="31.29173700" lon="34.49464110">
        <ele>94.000000</ele>
        <time>2010-01-01T00:11:12Z</time>
      </trkpt>
      <trkpt lat="31.29139620" lon="34.49473030">
        <ele>94.000000</ele>
        <time>2010-01-01T00:11:26Z</time>
      </trkpt>
      <trkpt lat="31.29093320" lon="34.49488390">
        <ele>94.000000</ele>
        <time>2010-01-01T00:11:45Z</time>
      </trkpt>
      <trkpt lat="31.29074910" lon="34.49495290">
        <ele>95.000000</ele>
        <time>2010-01-01T00:11:53Z</time>
      </trkpt>
      <trkpt lat="31.29047380" lon="34.49509020">
        <ele>97.000000</ele>
        <time>2010-01-01T00:12:05Z</time>
      </trkpt>
      <trkpt lat="31.29023600" lon="34.49507770">
        <ele>99.000000</ele>
        <time>2010-01-01T00:12:14Z</time>
      </trkpt>
      <trkpt lat="31.29019280" lon="34.49505510">
        <ele>99.000000</ele>
        <time>2010-01-01T00:12:16Z</time>
      </trkpt>
      <trkpt lat="31.28990580" lon="34.49484060">
        <ele>99.000000</ele>
        <time>2010-01-01T00:12:30Z</time>
      </trkpt>
      <trkpt lat="31.28985720" lon="34.49476120">
        <ele>99.000000</ele>
        <time>2010-01-01T00:12:33Z</time>
      </trkpt>
      <trkpt lat="31.28980280" lon="34.49462700">
        <ele>99.000000</ele>
        <time>2010-01-01T00:12:38Z</time>
      </trkpt>
      <trkpt lat="31.28979870" lon="34.49429190">
        <ele>99.000000</ele>
        <time>2010-01-01T00:12:50Z</time>
      </trkpt>
      <trkpt lat="31.28978180" lon="34.49374020">
        <ele>99.000000</ele>
        <time>2010-01-01T00:13:09Z</time>
      </trkpt>
      <trkpt lat="31.28971520" lon="34.49343310">
        <ele>99.000000</ele>
        <time>2010-01-01T00:13:19Z</time>
      </trkpt>
      <trkpt lat="31.28969460" lon="34.49331080">
        <ele>98.000000</ele>
        <time>2010-01-01T00:13:24Z</time>
      </trkpt>
      <trkpt lat="31.28968890" lon="34.49266800">
        <ele>99.000000</ele>
        <time>2010-01-01T00:13:46Z</time>
      </trkpt>
      <trkpt lat="31.28968790" lon="34.49260170">
        <ele>100.00000</ele>
        <time>2010-01-01T00:13:48Z</time>
      </trkpt>
      <trkpt lat="31.28963380" lon="34.49214150">
        <ele>100.00000</ele>
        <time>2010-01-01T00:14:04Z</time>
      </trkpt>
      <trkpt lat="31.28962310" lon="34.49207860">
        <ele>100.00000</ele>
        <time>2010-01-01T00:14:06Z</time>
      </trkpt>
      <trkpt lat="31.28961330" lon="34.49182610">
        <ele>101.00000</ele>
        <time>2010-01-01T00:14:15Z</time>
      </trkpt>
      <trkpt lat="31.28974710" lon="34.49134700">
        <ele>100.00000</ele>
        <time>2010-01-01T00:14:32Z</time>
      </trkpt>
      <trkpt lat="31.28994180" lon="34.49086270">
        <ele>98.000000</ele>
        <time>2010-01-01T00:14:50Z</time>
      </trkpt>
      <trkpt lat="31.29015080" lon="34.49033010">
        <ele>98.000000</ele>
        <time>2010-01-01T00:15:10Z</time>
      </trkpt>
      <trkpt lat="31.29018000" lon="34.49027510">
        <ele>98.000000</ele>
        <time>2010-01-01T00:15:12Z</time>
      </trkpt>
      <trkpt lat="31.29038810" lon="34.49005670">
        <ele>98.000000</ele>
        <time>2010-01-01T00:15:24Z</time>
      </trkpt>
      <trkpt lat="31.29080350" lon="34.48982620">
        <ele>96.000000</ele>
        <time>2010-01-01T00:15:42Z</time>
      </trkpt>
      <trkpt lat="31.29093780" lon="34.48969830">
        <ele>97.000000</ele>
        <time>2010-01-01T00:15:49Z</time>
      </trkpt>
      <trkpt lat="31.29110080" lon="34.48936010">
        <ele>97.000000</ele>
        <time>2010-01-01T00:16:02Z</time>
      </trkpt>
      <trkpt lat="31.29111050" lon="34.48923420">
        <ele>97.000000</ele>
        <time>2010-01-01T00:16:07Z</time>
      </trkpt>
      <trkpt lat="31.29109650" lon="34.48904380">
        <ele>97.000000</ele>
        <time>2010-01-01T00:16:13Z</time>
      </trkpt>
      <trkpt lat="31.29098090" lon="34.48876790">
        <ele>96.000000</ele>
        <time>2010-01-01T00:16:24Z</time>
      </trkpt>
      <trkpt lat="31.29081360" lon="34.48864250">
        <ele>96.000000</ele>
        <time>2010-01-01T00:16:32Z</time>
      </trkpt>
      <trkpt lat="31.29076410" lon="34.48863370">
        <ele>96.000000</ele>
        <time>2010-01-01T00:16:34Z</time>
      </trkpt>
      <trkpt lat="31.29040490" lon="34.48863590">
        <ele>95.000000</ele>
        <time>2010-01-01T00:16:48Z</time>
      </trkpt>
      <trkpt lat="31.29020530" lon="34.48861280">
        <ele>94.000000</ele>
        <time>2010-01-01T00:16:56Z</time>
      </trkpt>
      <trkpt lat="31.28978850" lon="34.48861300">
        <ele>94.000000</ele>
        <time>2010-01-01T00:17:13Z</time>
      </trkpt>
      <trkpt lat="31.28962210" lon="34.48862480">
        <ele>94.000000</ele>
        <time>2010-01-01T00:17:19Z</time>
      </trkpt>
      <trkpt lat="31.28948340" lon="34.48861380">
        <ele>94.000000</ele>
        <time>2010-01-01T00:17:25Z</time>
      </trkpt>
      <trkpt lat="31.28932820" lon="34.48849850">
        <ele>94.000000</ele>
        <time>2010-01-01T00:17:32Z</time>
      </trkpt>
      <trkpt lat="31.28929940" lon="34.48846260">
        <ele>94.000000</ele>
        <time>2010-01-01T00:17:34Z</time>
      </trkpt>
      <trkpt lat="31.28923030" lon="34.48835400">
        <ele>93.000000</ele>
        <time>2010-01-01T00:17:39Z</time>
      </trkpt>
      <trkpt lat="31.28924950" lon="34.48824100">
        <ele>92.000000</ele>
        <time>2010-01-01T00:17:43Z</time>
      </trkpt>
      <trkpt lat="31.28925740" lon="34.48802860">
        <ele>91.000000</ele>
        <time>2010-01-01T00:17:50Z</time>
      </trkpt>
      <trkpt lat="31.28925990" lon="34.48785000">
        <ele>89.000000</ele>
        <time>2010-01-01T00:17:56Z</time>
      </trkpt>
      <trkpt lat="31.28930450" lon="34.48765520">
        <ele>88.000000</ele>
        <time>2010-01-01T00:18:03Z</time>
      </trkpt>
      <trkpt lat="31.28933150" lon="34.48758270">
        <ele>87.000000</ele>
        <time>2010-01-01T00:18:06Z</time>
      </trkpt>
      <trkpt lat="31.28929070" lon="34.48760170">
        <ele>87.000000</ele>
        <time>2010-01-01T00:18:07Z</time>
      </trkpt>
      <trkpt lat="31.28924660" lon="34.48772130">
        <ele>88.000000</ele>
        <time>2010-01-01T00:18:12Z</time>
      </trkpt>
      <trkpt lat="31.28907640" lon="34.48789920">
        <ele>90.000000</ele>
        <time>2010-01-01T00:18:21Z</time>
      </trkpt>
      <trkpt lat="31.28896200" lon="34.48793270">
        <ele>90.000000</ele>
        <time>2010-01-01T00:18:26Z</time>
      </trkpt>
      <trkpt lat="31.28881920" lon="34.48791010">
        <ele>90.000000</ele>
        <time>2010-01-01T00:18:31Z</time>
      </trkpt>
      <trkpt lat="31.28873510" lon="34.48785990">
        <ele>90.000000</ele>
        <time>2010-01-01T00:18:35Z</time>
      </trkpt>
      <trkpt lat="31.28861330" lon="34.48778480">
        <ele>89.000000</ele>
        <time>2010-01-01T00:18:41Z</time>
      </trkpt>
      <trkpt lat="31.28850400" lon="34.48772570">
        <ele>89.000000</ele>
        <time>2010-01-01T00:18:45Z</time>
      </trkpt>
      <trkpt lat="31.28838130" lon="34.48766770">
        <ele>89.000000</ele>
        <time>2010-01-01T00:18:51Z</time>
      </trkpt>
      <trkpt lat="31.28818800" lon="34.48756030">
        <ele>88.000000</ele>
        <time>2010-01-01T00:18:59Z</time>
      </trkpt>
      <trkpt lat="31.28806600" lon="34.48739260">
        <ele>87.000000</ele>
        <time>2010-01-01T00:19:07Z</time>
      </trkpt>
      <trkpt lat="31.28802920" lon="34.48724790">
        <ele>87.000000</ele>
        <time>2010-01-01T00:19:12Z</time>
      </trkpt>
      <trkpt lat="31.28801950" lon="34.48720570">
        <ele>86.000000</ele>
        <time>2010-01-01T00:19:14Z</time>
      </trkpt>
      <trkpt lat="31.28792630" lon="34.48691540">
        <ele>85.000000</ele>
        <time>2010-01-01T00:19:24Z</time>
      </trkpt>
      <trkpt lat="31.28784420" lon="34.48675550">
        <ele>85.000000</ele>
        <time>2010-01-01T00:19:31Z</time>
      </trkpt>
      <trkpt lat="31.28776310" lon="34.48665350">
        <ele>85.000000</ele>
        <time>2010-01-01T00:19:35Z</time>
      </trkpt>
      <trkpt lat="31.28763770" lon="34.48644150">
        <ele>83.000000</ele>
        <time>2010-01-01T00:19:44Z</time>
      </trkpt>
      <trkpt lat="31.28762670" lon="34.48640140">
        <ele>82.000000</ele>
        <time>2010-01-01T00:19:46Z</time>
      </trkpt>
      <trkpt lat="31.28762620" lon="34.48622890">
        <ele>80.000000</ele>
        <time>2010-01-01T00:19:51Z</time>
      </trkpt>
      <trkpt lat="31.28761380" lon="34.48613000">
        <ele>79.000000</ele>
        <time>2010-01-01T00:19:55Z</time>
      </trkpt>
      <trkpt lat="31.28760700" lon="34.48606340">
        <ele>79.000000</ele>
        <time>2010-01-01T00:19:57Z</time>
      </trkpt>
      <trkpt lat="31.28745040" lon="34.48602100">
        <ele>78.000000</ele>
        <time>2010-01-01T00:20:04Z</time>
      </trkpt>
      <trkpt lat="31.28722420" lon="34.48609170">
        <ele>79.000000</ele>
        <time>2010-01-01T00:20:13Z</time>
      </trkpt>
      <trkpt lat="31.28702730" lon="34.48625690">
        <ele>79.000000</ele>
        <time>2010-01-01T00:20:23Z</time>
      </trkpt>
      <trkpt lat="31.28696850" lon="34.48634580">
        <ele>80.000000</ele>
        <time>2010-01-01T00:20:27Z</time>
      </trkpt>
      <trkpt lat="31.28691130" lon="34.48642440">
        <ele>80.000000</ele>
        <time>2010-01-01T00:20:30Z</time>
      </trkpt>
      <trkpt lat="31.28681870" lon="34.48658850">
        <ele>80.000000</ele>
        <time>2010-01-01T00:20:37Z</time>
      </trkpt>
      <trkpt lat="31.28670930" lon="34.48688130">
        <ele>80.000000</ele>
        <time>2010-01-01T00:20:48Z</time>
      </trkpt>
      <trkpt lat="31.28670980" lon="34.48706620">
        <ele>80.000000</ele>
        <time>2010-01-01T00:20:54Z</time>
      </trkpt>
      <trkpt lat="31.28672840" lon="34.48710540">
        <ele>81.000000</ele>
        <time>2010-01-01T00:20:56Z</time>
      </trkpt>
      <trkpt lat="31.28679260" lon="34.48720040">
        <ele>81.000000</ele>
        <time>2010-01-01T00:21:00Z</time>
      </trkpt>
      <trkpt lat="31.28689170" lon="34.48735250">
        <ele>83.000000</ele>
        <time>2010-01-01T00:21:06Z</time>
      </trkpt>
      <trkpt lat="31.28689790" lon="34.48742880">
        <ele>83.000000</ele>
        <time>2010-01-01T00:21:09Z</time>
      </trkpt>
      <trkpt lat="31.28683000" lon="34.48747750">
        <ele>82.000000</ele>
        <time>2010-01-01T00:21:12Z</time>
      </trkpt>
      <trkpt lat="31.28669360" lon="34.48743360">
        <ele>81.000000</ele>
        <time>2010-01-01T00:21:18Z</time>
      </trkpt>
      <trkpt lat="31.28661510" lon="34.48750580">
        <ele>81.000000</ele>
        <time>2010-01-01T00:21:22Z</time>
      </trkpt>
      <trkpt lat="31.28654250" lon="34.48760340">
        <ele>81.000000</ele>
        <time>2010-01-01T00:21:26Z</time>
      </trkpt>
      <trkpt lat="31.28652500" lon="34.48765480">
        <ele>81.000000</ele>
        <time>2010-01-01T00:21:28Z</time>
      </trkpt>
      <trkpt lat="31.28648920" lon="34.48775790">
        <ele>81.000000</ele>
        <time>2010-01-01T00:21:32Z</time>
      </trkpt>
      <trkpt lat="31.28644000" lon="34.48789750">
        <ele>82.000000</ele>
        <time>2010-01-01T00:21:37Z</time>
      </trkpt>
      <trkpt lat="31.28641350" lon="34.48807770">
        <ele>82.000000</ele>
        <time>2010-01-01T00:21:43Z</time>
      </trkpt>
      <trkpt lat="31.28642020" lon="34.48827510">
        <ele>83.000000</ele>
        <time>2010-01-01T00:21:50Z</time>
      </trkpt>
      <trkpt lat="31.28642130" lon="34.48833480">
        <ele>84.000000</ele>
        <time>2010-01-01T00:21:52Z</time>
      </trkpt>
      <trkpt lat="31.28646270" lon="34.48858350">
        <ele>84.000000</ele>
        <time>2010-01-01T00:22:01Z</time>
      </trkpt>
      <trkpt lat="31.28647570" lon="34.48861100">
        <ele>84.000000</ele>
        <time>2010-01-01T00:22:02Z</time>
      </trkpt>
      <trkpt lat="31.28655340" lon="34.48878630">
        <ele>85.000000</ele>
        <time>2010-01-01T00:22:09Z</time>
      </trkpt>
      <trkpt lat="31.28662910" lon="34.48899170">
        <ele>86.000000</ele>
        <time>2010-01-01T00:22:16Z</time>
      </trkpt>
      <trkpt lat="31.28655480" lon="34.48912700">
        <ele>85.000000</ele>
        <time>2010-01-01T00:22:22Z</time>
      </trkpt>
      <trkpt lat="31.28640890" lon="34.48931730">
        <ele>85.000000</ele>
        <time>2010-01-01T00:22:30Z</time>
      </trkpt>
      <trkpt lat="31.28639430" lon="34.48937240">
        <ele>86.000000</ele>
        <time>2010-01-01T00:22:32Z</time>
      </trkpt>
      <trkpt lat="31.28638510" lon="34.48939220">
        <ele>86.000000</ele>
        <time>2010-01-01T00:22:33Z</time>
      </trkpt>
      <trkpt lat="31.28626450" lon="34.48948990">
        <ele>85.000000</ele>
        <time>2010-01-01T00:22:39Z</time>
      </trkpt>
      <trkpt lat="31.28623310" lon="34.48951550">
        <ele>85.000000</ele>
        <time>2010-01-01T00:22:41Z</time>
      </trkpt>
      <trkpt lat="31.28605410" lon="34.48962140">
        <ele>84.000000</ele>
        <time>2010-01-01T00:22:49Z</time>
      </trkpt>
      <trkpt lat="31.28601720" lon="34.48958370">
        <ele>84.000000</ele>
        <time>2010-01-01T00:22:51Z</time>
      </trkpt>
      <trkpt lat="31.28591000" lon="34.48950610">
        <ele>83.000000</ele>
        <time>2010-01-01T00:22:56Z</time>
      </trkpt>
      <trkpt lat="31.28577790" lon="34.48954490">
        <ele>83.000000</ele>
        <time>2010-01-01T00:23:01Z</time>
      </trkpt>
      <trkpt lat="31.28569870" lon="34.48962090">
        <ele>83.000000</ele>
        <time>2010-01-01T00:23:05Z</time>
      </trkpt>
      <trkpt lat="31.28551100" lon="34.48968490">
        <ele>83.000000</ele>
        <time>2010-01-01T00:23:13Z</time>
      </trkpt>
      <trkpt lat="31.28541590" lon="34.48967170">
        <ele>82.000000</ele>
        <time>2010-01-01T00:23:17Z</time>
      </trkpt>
      <trkpt lat="31.28524500" lon="34.48975450">
        <ele>82.000000</ele>
        <time>2010-01-01T00:23:24Z</time>
      </trkpt>
      <trkpt lat="31.28516720" lon="34.48975140">
        <ele>82.000000</ele>
        <time>2010-01-01T00:23:27Z</time>
      </trkpt>
      <trkpt lat="31.28508670" lon="34.48971060">
        <ele>82.000000</ele>
        <time>2010-01-01T00:23:31Z</time>
      </trkpt>
      <trkpt lat="31.28504020" lon="34.48978210">
        <ele>82.000000</ele>
        <time>2010-01-01T00:23:34Z</time>
      </trkpt>
      <trkpt lat="31.28501030" lon="34.48978890">
        <ele>82.000000</ele>
        <time>2010-01-01T00:23:35Z</time>
      </trkpt>
      <trkpt lat="31.28489990" lon="34.48981530">
        <ele>82.000000</ele>
        <time>2010-01-01T00:23:40Z</time>
      </trkpt>
      <trkpt lat="31.28479460" lon="34.48977220">
        <ele>83.000000</ele>
        <time>2010-01-01T00:23:44Z</time>
      </trkpt>
      <trkpt lat="31.28471790" lon="34.48973500">
        <ele>83.000000</ele>
        <time>2010-01-01T00:23:48Z</time>
      </trkpt>
      <trkpt lat="31.28454920" lon="34.48966410">
        <ele>84.000000</ele>
        <time>2010-01-01T00:23:55Z</time>
      </trkpt>
      <trkpt lat="31.28451390" lon="34.48958950">
        <ele>84.000000</ele>
        <time>2010-01-01T00:23:58Z</time>
      </trkpt>
      <trkpt lat="31.28442800" lon="34.48954490">
        <ele>84.000000</ele>
        <time>2010-01-01T00:24:01Z</time>
      </trkpt>
      <trkpt lat="31.28440250" lon="34.48953050">
        <ele>84.000000</ele>
        <time>2010-01-01T00:24:02Z</time>
      </trkpt>
      <trkpt lat="31.28429840" lon="34.48947750">
        <ele>84.000000</ele>
        <time>2010-01-01T00:24:07Z</time>
      </trkpt>
      <trkpt lat="31.28418230" lon="34.48934130">
        <ele>84.000000</ele>
        <time>2010-01-01T00:24:14Z</time>
      </trkpt>
      <trkpt lat="31.28415750" lon="34.48929210">
        <ele>84.000000</ele>
        <time>2010-01-01T00:24:16Z</time>
      </trkpt>
      <trkpt lat="31.28410890" lon="34.48918740">
        <ele>83.000000</ele>
        <time>2010-01-01T00:24:20Z</time>
      </trkpt>
      <trkpt lat="31.28400930" lon="34.48907610">
        <ele>83.000000</ele>
        <time>2010-01-01T00:24:25Z</time>
      </trkpt>
      <trkpt lat="31.28397630" lon="34.48900540">
        <ele>83.000000</ele>
        <time>2010-01-01T00:24:28Z</time>
      </trkpt>
      <trkpt lat="31.28400490" lon="34.48891970">
        <ele>83.000000</ele>
        <time>2010-01-01T00:24:31Z</time>
      </trkpt>
      <trkpt lat="31.28401310" lon="34.48883920">
        <ele>83.000000</ele>
        <time>2010-01-01T00:24:34Z</time>
      </trkpt>
      <trkpt lat="31.28400720" lon="34.48872330">
        <ele>82.000000</ele>
        <time>2010-01-01T00:24:38Z</time>
      </trkpt>
      <trkpt lat="31.28395040" lon="34.48855640">
        <ele>82.000000</ele>
        <time>2010-01-01T00:24:44Z</time>
      </trkpt>
      <trkpt lat="31.28392510" lon="34.48844730">
        <ele>82.000000</ele>
        <time>2010-01-01T00:24:48Z</time>
      </trkpt>
      <trkpt lat="31.28383480" lon="34.48830370">
        <ele>82.000000</ele>
        <time>2010-01-01T00:24:54Z</time>
      </trkpt>
      <trkpt lat="31.28371580" lon="34.48815470">
        <ele>82.000000</ele>
        <time>2010-01-01T00:25:01Z</time>
      </trkpt>
      <trkpt lat="31.28369920" lon="34.48806390">
        <ele>82.000000</ele>
        <time>2010-01-01T00:25:04Z</time>
      </trkpt>
      <trkpt lat="31.28361760" lon="34.48786480">
        <ele>82.000000</ele>
        <time>2010-01-01T00:25:12Z</time>
      </trkpt>
      <trkpt lat="31.28354430" lon="34.48770240">
        <ele>81.000000</ele>
        <time>2010-01-01T00:25:18Z</time>
      </trkpt>
      <trkpt lat="31.28343190" lon="34.48742310">
        <ele>81.000000</ele>
        <time>2010-01-01T00:25:28Z</time>
      </trkpt>
      <trkpt lat="31.28338220" lon="34.48727340">
        <ele>80.000000</ele>
        <time>2010-01-01T00:25:34Z</time>
      </trkpt>
      <trkpt lat="31.28336050" lon="34.48708120">
        <ele>80.000000</ele>
        <time>2010-01-01T00:25:41Z</time>
      </trkpt>
      <trkpt lat="31.28335100" lon="34.48698850">
        <ele>80.000000</ele>
        <time>2010-01-01T00:25:44Z</time>
      </trkpt>
      <trkpt lat="31.28338210" lon="34.48679630">
        <ele>79.000000</ele>
        <time>2010-01-01T00:25:50Z</time>
      </trkpt>
      <trkpt lat="31.28341360" lon="34.48663370">
        <ele>79.000000</ele>
        <time>2010-01-01T00:25:56Z</time>
      </trkpt>
      <trkpt lat="31.28339590" lon="34.48658760">
        <ele>79.000000</ele>
        <time>2010-01-01T00:25:58Z</time>
      </trkpt>
      <trkpt lat="31.28329720" lon="34.48643750">
        <ele>79.000000</ele>
        <time>2010-01-01T00:26:04Z</time>
      </trkpt>
      <trkpt lat="31.28307040" lon="34.48620180">
        <ele>79.000000</ele>
        <time>2010-01-01T00:26:17Z</time>
      </trkpt>
      <trkpt lat="31.28281470" lon="34.48585870">
        <ele>79.000000</ele>
        <time>2010-01-01T00:26:32Z</time>
      </trkpt>
      <trkpt lat="31.28264460" lon="34.48573600">
        <ele>79.000000</ele>
        <time>2010-01-01T00:26:40Z</time>
      </trkpt>
      <trkpt lat="31.28254820" lon="34.48580270">
        <ele>79.000000</ele>
        <time>2010-01-01T00:26:45Z</time>
      </trkpt>
      <trkpt lat="31.28225710" lon="34.48621970">
        <ele>80.000000</ele>
        <time>2010-01-01T00:27:03Z</time>
      </trkpt>
      <trkpt lat="31.28198300" lon="34.48659590">
        <ele>81.000000</ele>
        <time>2010-01-01T00:27:20Z</time>
      </trkpt>
      <trkpt lat="31.28169890" lon="34.48697800">
        <ele>81.000000</ele>
        <time>2010-01-01T00:27:37Z</time>
      </trkpt>
      <trkpt lat="31.28144570" lon="34.48742100">
        <ele>82.000000</ele>
        <time>2010-01-01T00:27:55Z</time>
      </trkpt>
      <trkpt lat="31.28127370" lon="34.48784670">
        <ele>83.000000</ele>
        <time>2010-01-01T00:28:12Z</time>
      </trkpt>
      <trkpt lat="31.28119560" lon="34.48806840">
        <ele>83.000000</ele>
        <time>2010-01-01T00:28:20Z</time>
      </trkpt>
      <trkpt lat="31.28118120" lon="34.48810790">
        <ele>83.000000</ele>
        <time>2010-01-01T00:28:21Z</time>
      </trkpt>
      <trkpt lat="31.28118490" lon="34.48810420">
        <ele>83.000000</ele>
        <time>2010-01-01T00:28:21Z</time>
      </trkpt>
      <trkpt lat="31.28119110" lon="34.48809700">
        <ele>83.000000</ele>
        <time>2010-01-01T00:28:22Z</time>
      </trkpt>
      <trkpt lat="31.28119150" lon="34.48809580">
        <ele>83.000000</ele>
        <time>2010-01-01T00:28:22Z</time>
      </trkpt>
      <trkpt lat="31.28119150" lon="34.48809500">
        <ele>83.000000</ele>
        <time>2010-01-01T00:28:22Z</time>
      </trkpt>
      <trkpt lat="31.28119150" lon="34.48809190">
        <ele>83.000000</ele>
        <time>2010-01-01T00:28:22Z</time>
      </trkpt>
      <trkpt lat="31.28119160" lon="34.48808840">
        <ele>83.000000</ele>
        <time>2010-01-01T00:28:22Z</time>
      </trkpt>
      <trkpt lat="31.28120420" lon="34.48809040">
        <ele>83.000000</ele>
        <time>2010-01-01T00:28:23Z</time>
      </trkpt>
      <trkpt lat="31.28120030" lon="34.48808880">
        <ele>83.000000</ele>
        <time>2010-01-01T00:28:23Z</time>
      </trkpt>
      <trkpt lat="31.28116640" lon="34.48813950">
        <ele>83.000000</ele>
        <time>2010-01-01T00:28:25Z</time>
      </trkpt>
      <trkpt lat="31.28112960" lon="34.48819560">
        <ele>83.000000</ele>
        <time>2010-01-01T00:28:27Z</time>
      </trkpt>
      <trkpt lat="31.28092250" lon="34.48833640">
        <ele>82.000000</ele>
        <time>2010-01-01T00:28:37Z</time>
      </trkpt>
      <trkpt lat="31.28088750" lon="34.48834060">
        <ele>82.000000</ele>
        <time>2010-01-01T00:28:38Z</time>
      </trkpt>
      <trkpt lat="31.28087270" lon="34.48834350">
        <ele>82.000000</ele>
        <time>2010-01-01T00:28:39Z</time>
      </trkpt>
      <trkpt lat="31.28081240" lon="34.48840460">
        <ele>82.000000</ele>
        <time>2010-01-01T00:28:42Z</time>
      </trkpt>
      <trkpt lat="31.28079630" lon="34.48847360">
        <ele>82.000000</ele>
        <time>2010-01-01T00:28:45Z</time>
      </trkpt>
      <trkpt lat="31.28079930" lon="34.48872380">
        <ele>82.000000</ele>
        <time>2010-01-01T00:28:53Z</time>
      </trkpt>
      <trkpt lat="31.28077610" lon="34.48891330">
        <ele>82.000000</ele>
        <time>2010-01-01T00:29:00Z</time>
      </trkpt>
      <trkpt lat="31.28077290" lon="34.48903190">
        <ele>82.000000</ele>
        <time>2010-01-01T00:29:04Z</time>
      </trkpt>
      <trkpt lat="31.28069060" lon="34.48929730">
        <ele>82.000000</ele>
        <time>2010-01-01T00:29:13Z</time>
      </trkpt>
      <trkpt lat="31.28058750" lon="34.48953190">
        <ele>82.000000</ele>
        <time>2010-01-01T00:29:22Z</time>
      </trkpt>
      <trkpt lat="31.28052280" lon="34.48969330">
        <ele>83.000000</ele>
        <time>2010-01-01T00:29:29Z</time>
      </trkpt>
      <trkpt lat="31.28048230" lon="34.48986670">
        <ele>83.000000</ele>
        <time>2010-01-01T00:29:35Z</time>
      </trkpt>
      <trkpt lat="31.28037080" lon="34.49007890">
        <ele>83.000000</ele>
        <time>2010-01-01T00:29:43Z</time>
      </trkpt>
      <trkpt lat="31.28032270" lon="34.49022620">
        <ele>83.000000</ele>
        <time>2010-01-01T00:29:49Z</time>
      </trkpt>
      <trkpt lat="31.28028850" lon="34.49044060">
        <ele>83.000000</ele>
        <time>2010-01-01T00:29:56Z</time>
      </trkpt>
      <trkpt lat="31.28026370" lon="34.49064770">
        <ele>83.000000</ele>
        <time>2010-01-01T00:30:03Z</time>
      </trkpt>
      <trkpt lat="31.28025920" lon="34.49073900">
        <ele>83.000000</ele>
        <time>2010-01-01T00:30:06Z</time>
      </trkpt>
      <trkpt lat="31.28020050" lon="34.49091230">
        <ele>84.000000</ele>
        <time>2010-01-01T00:30:13Z</time>
      </trkpt>
      <trkpt lat="31.28004500" lon="34.49110050">
        <ele>84.000000</ele>
        <time>2010-01-01T00:30:22Z</time>
      </trkpt>
      <trkpt lat="31.27997580" lon="34.49117310">
        <ele>85.000000</ele>
        <time>2010-01-01T00:30:25Z</time>
      </trkpt>
      <trkpt lat="31.27986380" lon="34.49137340">
        <ele>86.000000</ele>
        <time>2010-01-01T00:30:34Z</time>
      </trkpt>
      <trkpt lat="31.27981680" lon="34.49158750">
        <ele>87.000000</ele>
        <time>2010-01-01T00:30:41Z</time>
      </trkpt>
      <trkpt lat="31.27979860" lon="34.49170740">
        <ele>88.000000</ele>
        <time>2010-01-01T00:30:45Z</time>
      </trkpt>
      <trkpt lat="31.27970930" lon="34.49193600">
        <ele>89.000000</ele>
        <time>2010-01-01T00:30:54Z</time>
      </trkpt>
      <trkpt lat="31.27968600" lon="34.49196380">
        <ele>89.000000</ele>
        <time>2010-01-01T00:30:55Z</time>
      </trkpt>
      <trkpt lat="31.27952280" lon="34.49208670">
        <ele>88.000000</ele>
        <time>2010-01-01T00:31:03Z</time>
      </trkpt>
      <trkpt lat="31.27942350" lon="34.49223280">
        <ele>88.000000</ele>
        <time>2010-01-01T00:31:09Z</time>
      </trkpt>
      <trkpt lat="31.27939560" lon="34.49232290">
        <ele>89.000000</ele>
        <time>2010-01-01T00:31:13Z</time>
      </trkpt>
      <trkpt lat="31.27930700" lon="34.49254510">
        <ele>89.000000</ele>
        <time>2010-01-01T00:31:21Z</time>
      </trkpt>
      <trkpt lat="31.27921130" lon="34.49275890">
        <ele>89.000000</ele>
        <time>2010-01-01T00:31:29Z</time>
      </trkpt>
      <trkpt lat="31.27909200" lon="34.49293970">
        <ele>88.000000</ele>
        <time>2010-01-01T00:31:37Z</time>
      </trkpt>
      <trkpt lat="31.27892560" lon="34.49301490">
        <ele>89.000000</ele>
        <time>2010-01-01T00:31:44Z</time>
      </trkpt>
      <trkpt lat="31.27874750" lon="34.49302430">
        <ele>89.000000</ele>
        <time>2010-01-01T00:31:51Z</time>
      </trkpt>
      <trkpt lat="31.27867240" lon="34.49302070">
        <ele>89.000000</ele>
        <time>2010-01-01T00:31:54Z</time>
      </trkpt>
      <trkpt lat="31.27841800" lon="34.49298580">
        <ele>88.000000</ele>
        <time>2010-01-01T00:32:05Z</time>
      </trkpt>
      <trkpt lat="31.27831610" lon="34.49296670">
        <ele>88.000000</ele>
        <time>2010-01-01T00:32:09Z</time>
      </trkpt>
      <trkpt lat="31.27821770" lon="34.49296330">
        <ele>88.000000</ele>
        <time>2010-01-01T00:32:13Z</time>
      </trkpt>
      <trkpt lat="31.27809000" lon="34.49297630">
        <ele>88.000000</ele>
        <time>2010-01-01T00:32:18Z</time>
      </trkpt>
      <trkpt lat="31.27805400" lon="34.49296740">
        <ele>88.000000</ele>
        <time>2010-01-01T00:32:19Z</time>
      </trkpt>
      <trkpt lat="31.27799670" lon="34.49280270">
        <ele>88.000000</ele>
        <time>2010-01-01T00:32:26Z</time>
      </trkpt>
      <trkpt lat="31.27795440" lon="34.49270720">
        <ele>87.000000</ele>
        <time>2010-01-01T00:32:29Z</time>
      </trkpt>
      <trkpt lat="31.27779740" lon="34.49274130">
        <ele>88.000000</ele>
        <time>2010-01-01T00:32:36Z</time>
      </trkpt>
      <trkpt lat="31.27770220" lon="34.49269640">
        <ele>88.000000</ele>
        <time>2010-01-01T00:32:40Z</time>
      </trkpt>
      <trkpt lat="31.27762810" lon="34.49264570">
        <ele>87.000000</ele>
        <time>2010-01-01T00:32:43Z</time>
      </trkpt>
      <trkpt lat="31.27746790" lon="34.49268710">
        <ele>88.000000</ele>
        <time>2010-01-01T00:32:50Z</time>
      </trkpt>
      <trkpt lat="31.27737010" lon="34.49278300">
        <ele>88.000000</ele>
        <time>2010-01-01T00:32:55Z</time>
      </trkpt>
      <trkpt lat="31.27721260" lon="34.49284240">
        <ele>88.000000</ele>
        <time>2010-01-01T00:33:01Z</time>
      </trkpt>
      <trkpt lat="31.27709290" lon="34.49276100">
        <ele>88.000000</ele>
        <time>2010-01-01T00:33:07Z</time>
      </trkpt>
      <trkpt lat="31.27693080" lon="34.49274100">
        <ele>88.000000</ele>
        <time>2010-01-01T00:33:13Z</time>
      </trkpt>
      <trkpt lat="31.27674190" lon="34.49281040">
        <ele>88.000000</ele>
        <time>2010-01-01T00:33:21Z</time>
      </trkpt>
      <trkpt lat="31.27671050" lon="34.49283060">
        <ele>88.000000</ele>
        <time>2010-01-01T00:33:23Z</time>
      </trkpt>
      <trkpt lat="31.27657150" lon="34.49284100">
        <ele>88.000000</ele>
        <time>2010-01-01T00:33:28Z</time>
      </trkpt>
      <trkpt lat="31.27646770" lon="34.49279440">
        <ele>88.000000</ele>
        <time>2010-01-01T00:33:33Z</time>
      </trkpt>
      <trkpt lat="31.27635890" lon="34.49273210">
        <ele>87.000000</ele>
        <time>2010-01-01T00:33:38Z</time>
      </trkpt>
      <trkpt lat="31.27612900" lon="34.49263220">
        <ele>86.000000</ele>
        <time>2010-01-01T00:33:48Z</time>
      </trkpt>
      <trkpt lat="31.27606140" lon="34.49256990">
        <ele>86.000000</ele>
        <time>2010-01-01T00:33:51Z</time>
      </trkpt>
      <trkpt lat="31.27582120" lon="34.49229560">
        <ele>85.000000</ele>
        <time>2010-01-01T00:34:04Z</time>
      </trkpt>
      <trkpt lat="31.27570090" lon="34.49225450">
        <ele>86.000000</ele>
        <time>2010-01-01T00:34:09Z</time>
      </trkpt>
      <trkpt lat="31.27566790" lon="34.49226030">
        <ele>86.000000</ele>
        <time>2010-01-01T00:34:11Z</time>
      </trkpt>
      <trkpt lat="31.27552430" lon="34.49235730">
        <ele>86.000000</ele>
        <time>2010-01-01T00:34:17Z</time>
      </trkpt>
      <trkpt lat="31.27539870" lon="34.49245710">
        <ele>87.000000</ele>
        <time>2010-01-01T00:34:23Z</time>
      </trkpt>
      <trkpt lat="31.27523390" lon="34.49264570">
        <ele>88.000000</ele>
        <time>2010-01-01T00:34:33Z</time>
      </trkpt>
      <trkpt lat="31.27514520" lon="34.49272810">
        <ele>88.000000</ele>
        <time>2010-01-01T00:34:37Z</time>
      </trkpt>
      <trkpt lat="31.27500320" lon="34.49291560">
        <ele>89.000000</ele>
        <time>2010-01-01T00:34:46Z</time>
      </trkpt>
      <trkpt lat="31.27475510" lon="34.49313890">
        <ele>90.000000</ele>
        <time>2010-01-01T00:34:58Z</time>
      </trkpt>
      <trkpt lat="31.27466910" lon="34.49321250">
        <ele>90.000000</ele>
        <time>2010-01-01T00:35:03Z</time>
      </trkpt>
      <trkpt lat="31.27457540" lon="34.49327150">
        <ele>90.000000</ele>
        <time>2010-01-01T00:35:07Z</time>
      </trkpt>
      <trkpt lat="31.27430770" lon="34.49349160">
        <ele>91.000000</ele>
        <time>2010-01-01T00:35:20Z</time>
      </trkpt>
      <trkpt lat="31.27407710" lon="34.49361620">
        <ele>92.000000</ele>
        <time>2010-01-01T00:35:30Z</time>
      </trkpt>
      <trkpt lat="31.27367160" lon="34.49386930">
        <ele>93.000000</ele>
        <time>2010-01-01T00:35:49Z</time>
      </trkpt>
      <trkpt lat="31.27349730" lon="34.49397010">
        <ele>93.000000</ele>
        <time>2010-01-01T00:35:56Z</time>
      </trkpt>
      <trkpt lat="31.27337320" lon="34.49400550">
        <ele>93.000000</ele>
        <time>2010-01-01T00:36:01Z</time>
      </trkpt>
      <trkpt lat="31.27317000" lon="34.49404490">
        <ele>94.000000</ele>
        <time>2010-01-01T00:36:10Z</time>
      </trkpt>
      <trkpt lat="31.27310060" lon="34.49406620">
        <ele>94.000000</ele>
        <time>2010-01-01T00:36:13Z</time>
      </trkpt>
      <trkpt lat="31.27301790" lon="34.49408870">
        <ele>94.000000</ele>
        <time>2010-01-01T00:36:16Z</time>
      </trkpt>
      <trkpt lat="31.27284590" lon="34.49407650">
        <ele>95.000000</ele>
        <time>2010-01-01T00:36:23Z</time>
      </trkpt>
      <trkpt lat="31.27280330" lon="34.49397290">
        <ele>95.000000</ele>
        <time>2010-01-01T00:36:27Z</time>
      </trkpt>
      <trkpt lat="31.27270800" lon="34.49389510">
        <ele>95.000000</ele>
        <time>2010-01-01T00:36:31Z</time>
      </trkpt>
      <trkpt lat="31.27267660" lon="34.49388270">
        <ele>95.000000</ele>
        <time>2010-01-01T00:36:33Z</time>
      </trkpt>
      <trkpt lat="31.27260660" lon="34.49385350">
        <ele>95.000000</ele>
        <time>2010-01-01T00:36:36Z</time>
      </trkpt>
      <trkpt lat="31.27249180" lon="34.49368950">
        <ele>95.000000</ele>
        <time>2010-01-01T00:36:43Z</time>
      </trkpt>
      <trkpt lat="31.27244180" lon="34.49359680">
        <ele>94.000000</ele>
        <time>2010-01-01T00:36:47Z</time>
      </trkpt>
      <trkpt lat="31.27236550" lon="34.49350980">
        <ele>94.000000</ele>
        <time>2010-01-01T00:36:51Z</time>
      </trkpt>
      <trkpt lat="31.27218430" lon="34.49328030">
        <ele>93.000000</ele>
        <time>2010-01-01T00:37:02Z</time>
      </trkpt>
      <trkpt lat="31.27215430" lon="34.49312000">
        <ele>92.000000</ele>
        <time>2010-01-01T00:37:07Z</time>
      </trkpt>
      <trkpt lat="31.27213310" lon="34.49308030">
        <ele>92.000000</ele>
        <time>2010-01-01T00:37:09Z</time>
      </trkpt>
      <trkpt lat="31.27204340" lon="34.49306280">
        <ele>92.000000</ele>
        <time>2010-01-01T00:37:13Z</time>
      </trkpt>
      <trkpt lat="31.27195340" lon="34.49305650">
        <ele>91.000000</ele>
        <time>2010-01-01T00:37:16Z</time>
      </trkpt>
      <trkpt lat="31.27177160" lon="34.49301960">
        <ele>90.000000</ele>
        <time>2010-01-01T00:37:24Z</time>
      </trkpt>
      <trkpt lat="31.27154190" lon="34.49311910">
        <ele>90.000000</ele>
        <time>2010-01-01T00:37:33Z</time>
      </trkpt>
      <trkpt lat="31.27149000" lon="34.49316470">
        <ele>90.000000</ele>
        <time>2010-01-01T00:37:36Z</time>
      </trkpt>
      <trkpt lat="31.27135550" lon="34.49330510">
        <ele>89.000000</ele>
        <time>2010-01-01T00:37:43Z</time>
      </trkpt>
      <trkpt lat="31.27121820" lon="34.49342800">
        <ele>89.000000</ele>
        <time>2010-01-01T00:37:50Z</time>
      </trkpt>
      <trkpt lat="31.27096950" lon="34.49361530">
        <ele>89.000000</ele>
        <time>2010-01-01T00:38:02Z</time>
      </trkpt>
      <trkpt lat="31.27086440" lon="34.49378010">
        <ele>89.000000</ele>
        <time>2010-01-01T00:38:09Z</time>
      </trkpt>
      <trkpt lat="31.27090800" lon="34.49388370">
        <ele>90.000000</ele>
        <time>2010-01-01T00:38:13Z</time>
      </trkpt>
      <trkpt lat="31.27095700" lon="34.49399160">
        <ele>91.000000</ele>
        <time>2010-01-01T00:38:17Z</time>
      </trkpt>
      <trkpt lat="31.27088790" lon="34.49415340">
        <ele>91.000000</ele>
        <time>2010-01-01T00:38:23Z</time>
      </trkpt>
      <trkpt lat="31.27078710" lon="34.49420170">
        <ele>91.000000</ele>
        <time>2010-01-01T00:38:28Z</time>
      </trkpt>
      <trkpt lat="31.27059080" lon="34.49426190">
        <ele>90.000000</ele>
        <time>2010-01-01T00:38:36Z</time>
      </trkpt>
      <trkpt lat="31.27047180" lon="34.49433240">
        <ele>90.000000</ele>
        <time>2010-01-01T00:38:41Z</time>
      </trkpt>
      <trkpt lat="31.27027390" lon="34.49443280">
        <ele>90.000000</ele>
        <time>2010-01-01T00:38:50Z</time>
      </trkpt>
      <trkpt lat="31.27021430" lon="34.49446730">
        <ele>90.000000</ele>
        <time>2010-01-01T00:38:52Z</time>
      </trkpt>
      <trkpt lat="31.27016250" lon="34.49461620">
        <ele>90.000000</ele>
        <time>2010-01-01T00:38:58Z</time>
      </trkpt>
      <trkpt lat="31.27013700" lon="34.49475970">
        <ele>90.000000</ele>
        <time>2010-01-01T00:39:03Z</time>
      </trkpt>
      <trkpt lat="31.27006400" lon="34.49508970">
        <ele>91.000000</ele>
        <time>2010-01-01T00:39:15Z</time>
      </trkpt>
      <trkpt lat="31.27004960" lon="34.49514880">
        <ele>92.000000</ele>
        <time>2010-01-01T00:39:17Z</time>
      </trkpt>
      <trkpt lat="31.26996370" lon="34.49532050">
        <ele>92.000000</ele>
        <time>2010-01-01T00:39:23Z</time>
      </trkpt>
      <trkpt lat="31.26989320" lon="34.49540360">
        <ele>92.000000</ele>
        <time>2010-01-01T00:39:27Z</time>
      </trkpt>
      <trkpt lat="31.26982910" lon="34.49545500">
        <ele>92.000000</ele>
        <time>2010-01-01T00:39:31Z</time>
      </trkpt>
      <trkpt lat="31.26970520" lon="34.49551750">
        <ele>92.000000</ele>
        <time>2010-01-01T00:39:36Z</time>
      </trkpt>
      <trkpt lat="31.26944610" lon="34.49556520">
        <ele>91.000000</ele>
        <time>2010-01-01T00:39:47Z</time>
      </trkpt>
      <trkpt lat="31.26914390" lon="34.49552520">
        <ele>90.000000</ele>
        <time>2010-01-01T00:39:59Z</time>
      </trkpt>
      <trkpt lat="31.26890840" lon="34.49550660">
        <ele>91.000000</ele>
        <time>2010-01-01T00:40:08Z</time>
      </trkpt>
      <trkpt lat="31.26886130" lon="34.49550750">
        <ele>91.000000</ele>
        <time>2010-01-01T00:40:10Z</time>
      </trkpt>
      <trkpt lat="31.26862610" lon="34.49557020">
        <ele>92.000000</ele>
        <time>2010-01-01T00:40:20Z</time>
      </trkpt>
      <trkpt lat="31.26854770" lon="34.49561030">
        <ele>93.000000</ele>
        <time>2010-01-01T00:40:23Z</time>
      </trkpt>
      <trkpt lat="31.26833190" lon="34.49565220">
        <ele>94.000000</ele>
        <time>2010-01-01T00:40:32Z</time>
      </trkpt>
      <trkpt lat="31.26814190" lon="34.49564010">
        <ele>94.000000</ele>
        <time>2010-01-01T00:40:39Z</time>
      </trkpt>
      <trkpt lat="31.26799860" lon="34.49566420">
        <ele>94.000000</ele>
        <time>2010-01-01T00:40:45Z</time>
      </trkpt>
      <trkpt lat="31.26780450" lon="34.49570050">
        <ele>94.000000</ele>
        <time>2010-01-01T00:40:53Z</time>
      </trkpt>
      <trkpt lat="31.26777150" lon="34.49570300">
        <ele>94.000000</ele>
        <time>2010-01-01T00:40:54Z</time>
      </trkpt>
      <trkpt lat="31.26760610" lon="34.49569830">
        <ele>94.000000</ele>
        <time>2010-01-01T00:41:01Z</time>
      </trkpt>
      <trkpt lat="31.26736130" lon="34.49559990">
        <ele>93.000000</ele>
        <time>2010-01-01T00:41:11Z</time>
      </trkpt>
      <trkpt lat="31.26709580" lon="34.49564340">
        <ele>92.000000</ele>
        <time>2010-01-01T00:41:22Z</time>
      </trkpt>
      <trkpt lat="31.26655540" lon="34.49584180">
        <ele>91.000000</ele>
        <time>2010-01-01T00:41:45Z</time>
      </trkpt>
      <trkpt lat="31.26618320" lon="34.49596210">
        <ele>90.000000</ele>
        <time>2010-01-01T00:42:00Z</time>
      </trkpt>
      <trkpt lat="31.26597430" lon="34.49600550">
        <ele>89.000000</ele>
        <time>2010-01-01T00:42:09Z</time>
      </trkpt>
      <trkpt lat="31.26592560" lon="34.49601550">
        <ele>89.000000</ele>
        <time>2010-01-01T00:42:11Z</time>
      </trkpt>
      <trkpt lat="31.26578310" lon="34.49606400">
        <ele>89.000000</ele>
        <time>2010-01-01T00:42:17Z</time>
      </trkpt>
      <trkpt lat="31.26543870" lon="34.49624230">
        <ele>89.000000</ele>
        <time>2010-01-01T00:42:32Z</time>
      </trkpt>
      <trkpt lat="31.26526220" lon="34.49640850">
        <ele>90.000000</ele>
        <time>2010-01-01T00:42:41Z</time>
      </trkpt>
      <trkpt lat="31.26512080" lon="34.49646370">
        <ele>90.000000</ele>
        <time>2010-01-01T00:42:47Z</time>
      </trkpt>
      <trkpt lat="31.26498570" lon="34.49657480">
        <ele>91.000000</ele>
        <time>2010-01-01T00:42:53Z</time>
      </trkpt>
      <trkpt lat="31.26494770" lon="34.49663550">
        <ele>91.000000</ele>
        <time>2010-01-01T00:42:56Z</time>
      </trkpt>
      <trkpt lat="31.26485360" lon="34.49682380">
        <ele>91.000000</ele>
        <time>2010-01-01T00:43:03Z</time>
      </trkpt>
      <trkpt lat="31.26468870" lon="34.49699490">
        <ele>92.000000</ele>
        <time>2010-01-01T00:43:12Z</time>
      </trkpt>
      <trkpt lat="31.26450390" lon="34.49698700">
        <ele>91.000000</ele>
        <time>2010-01-01T00:43:20Z</time>
      </trkpt>
      <trkpt lat="31.26432720" lon="34.49703060">
        <ele>91.000000</ele>
        <time>2010-01-01T00:43:27Z</time>
      </trkpt>
      <trkpt lat="31.26428910" lon="34.49705690">
        <ele>91.000000</ele>
        <time>2010-01-01T00:43:29Z</time>
      </trkpt>
      <trkpt lat="31.26401210" lon="34.49733810">
        <ele>92.000000</ele>
        <time>2010-01-01T00:43:43Z</time>
      </trkpt>
      <trkpt lat="31.26373100" lon="34.49767600">
        <ele>93.000000</ele>
        <time>2010-01-01T00:44:00Z</time>
      </trkpt>
      <trkpt lat="31.26349320" lon="34.49776100">
        <ele>93.000000</ele>
        <time>2010-01-01T00:44:09Z</time>
      </trkpt>
      <trkpt lat="31.26325370" lon="34.49768990">
        <ele>93.000000</ele>
        <time>2010-01-01T00:44:19Z</time>
      </trkpt>
      <trkpt lat="31.26303070" lon="34.49758660">
        <ele>93.000000</ele>
        <time>2010-01-01T00:44:29Z</time>
      </trkpt>
      <trkpt lat="31.26293620" lon="34.49759150">
        <ele>94.000000</ele>
        <time>2010-01-01T00:44:33Z</time>
      </trkpt>
      <trkpt lat="31.26280230" lon="34.49761080">
        <ele>94.000000</ele>
        <time>2010-01-01T00:44:38Z</time>
      </trkpt>
      <trkpt lat="31.26253900" lon="34.49758950">
        <ele>95.000000</ele>
        <time>2010-01-01T00:44:49Z</time>
      </trkpt>
      <trkpt lat="31.26249500" lon="34.49759610">
        <ele>96.000000</ele>
        <time>2010-01-01T00:44:50Z</time>
      </trkpt>
      <trkpt lat="31.26223280" lon="34.49766670">
        <ele>96.000000</ele>
        <time>2010-01-01T00:45:01Z</time>
      </trkpt>
      <trkpt lat="31.26212240" lon="34.49768490">
        <ele>96.000000</ele>
        <time>2010-01-01T00:45:06Z</time>
      </trkpt>
      <trkpt lat="31.26197710" lon="34.49762220">
        <ele>96.000000</ele>
        <time>2010-01-01T00:45:12Z</time>
      </trkpt>
      <trkpt lat="31.26185990" lon="34.49765800">
        <ele>96.000000</ele>
        <time>2010-01-01T00:45:17Z</time>
      </trkpt>
      <trkpt lat="31.26174590" lon="34.49776520">
        <ele>96.000000</ele>
        <time>2010-01-01T00:45:23Z</time>
      </trkpt>
      <trkpt lat="31.26171650" lon="34.49778230">
        <ele>96.000000</ele>
        <time>2010-01-01T00:45:24Z</time>
      </trkpt>
      <trkpt lat="31.26152320" lon="34.49793980">
        <ele>97.000000</ele>
        <time>2010-01-01T00:45:33Z</time>
      </trkpt>
      <trkpt lat="31.26125630" lon="34.49805180">
        <ele>98.000000</ele>
        <time>2010-01-01T00:45:45Z</time>
      </trkpt>
      <trkpt lat="31.26107960" lon="34.49807750">
        <ele>98.000000</ele>
        <time>2010-01-01T00:45:52Z</time>
      </trkpt>
      <trkpt lat="31.26095800" lon="34.49813250">
        <ele>98.000000</ele>
        <time>2010-01-01T00:45:57Z</time>
      </trkpt>
      <trkpt lat="31.26074000" lon="34.49826330">
        <ele>99.000000</ele>
        <time>2010-01-01T00:46:07Z</time>
      </trkpt>
      <trkpt lat="31.26069000" lon="34.49830960">
        <ele>99.000000</ele>
        <time>2010-01-01T00:46:09Z</time>
      </trkpt>
      <trkpt lat="31.26063700" lon="34.49839070">
        <ele>100.00000</ele>
        <time>2010-01-01T00:46:13Z</time>
      </trkpt>
      <trkpt lat="31.26042140" lon="34.49852820">
        <ele>100.00000</ele>
        <time>2010-01-01T00:46:23Z</time>
      </trkpt>
      <trkpt lat="31.26032740" lon="34.49852660">
        <ele>101.00000</ele>
        <time>2010-01-01T00:46:27Z</time>
      </trkpt>
      <trkpt lat="31.26010340" lon="34.49865920">
        <ele>101.00000</ele>
        <time>2010-01-01T00:46:37Z</time>
      </trkpt>
      <trkpt lat="31.25995210" lon="34.49883100">
        <ele>101.00000</ele>
        <time>2010-01-01T00:46:45Z</time>
      </trkpt>
      <trkpt lat="31.25985290" lon="34.49882460">
        <ele>101.00000</ele>
        <time>2010-01-01T00:46:49Z</time>
      </trkpt>
      <trkpt lat="31.25982470" lon="34.49881140">
        <ele>101.00000</ele>
        <time>2010-01-01T00:46:50Z</time>
      </trkpt>
      <trkpt lat="31.25974380" lon="34.49878980">
        <ele>101.00000</ele>
        <time>2010-01-01T00:46:54Z</time>
      </trkpt>
      <trkpt lat="31.25963710" lon="34.49888250">
        <ele>101.00000</ele>
        <time>2010-01-01T00:46:59Z</time>
      </trkpt>
      <trkpt lat="31.25951630" lon="34.49901940">
        <ele>101.00000</ele>
        <time>2010-01-01T00:47:06Z</time>
      </trkpt>
      <trkpt lat="31.25932820" lon="34.49911000">
        <ele>102.00000</ele>
        <time>2010-01-01T00:47:14Z</time>
      </trkpt>
      <trkpt lat="31.25912490" lon="34.49907990">
        <ele>102.00000</ele>
        <time>2010-01-01T00:47:22Z</time>
      </trkpt>
      <trkpt lat="31.25892800" lon="34.49899180">
        <ele>101.00000</ele>
        <time>2010-01-01T00:47:30Z</time>
      </trkpt>
      <trkpt lat="31.25872000" lon="34.49893030">
        <ele>100.00000</ele>
        <time>2010-01-01T00:47:39Z</time>
      </trkpt>
      <trkpt lat="31.25866650" lon="34.49891730">
        <ele>100.00000</ele>
        <time>2010-01-01T00:47:41Z</time>
      </trkpt>
      <trkpt lat="31.25834460" lon="34.49892100">
        <ele>98.000000</ele>
        <time>2010-01-01T00:47:54Z</time>
      </trkpt>
      <trkpt lat="31.25813690" lon="34.49899610">
        <ele>97.000000</ele>
        <time>2010-01-01T00:48:03Z</time>
      </trkpt>
      <trkpt lat="31.25799280" lon="34.49907370">
        <ele>97.000000</ele>
        <time>2010-01-01T00:48:09Z</time>
      </trkpt>
      <trkpt lat="31.25778630" lon="34.49917990">
        <ele>96.000000</ele>
        <time>2010-01-01T00:48:18Z</time>
      </trkpt>
      <trkpt lat="31.25765880" lon="34.49927480">
        <ele>96.000000</ele>
        <time>2010-01-01T00:48:24Z</time>
      </trkpt>
      <trkpt lat="31.25758110" lon="34.49939010">
        <ele>97.000000</ele>
        <time>2010-01-01T00:48:29Z</time>
      </trkpt>
      <trkpt lat="31.25742120" lon="34.49962690">
        <ele>98.000000</ele>
        <time>2010-01-01T00:48:40Z</time>
      </trkpt>
      <trkpt lat="31.25737490" lon="34.49987400">
        <ele>99.000000</ele>
        <time>2010-01-01T00:48:48Z</time>
      </trkpt>
      <trkpt lat="31.25731700" lon="34.50007390">
        <ele>99.000000</ele>
        <time>2010-01-01T00:48:55Z</time>
      </trkpt>
      <trkpt lat="31.25725320" lon="34.50011630">
        <ele>99.000000</ele>
        <time>2010-01-01T00:48:58Z</time>
      </trkpt>
      <trkpt lat="31.25717630" lon="34.50015380">
        <ele>99.000000</ele>
        <time>2010-01-01T00:49:02Z</time>
      </trkpt>
      <trkpt lat="31.25704890" lon="34.50023850">
        <ele>99.000000</ele>
        <time>2010-01-01T00:49:08Z</time>
      </trkpt>
      <trkpt lat="31.25690990" lon="34.50038970">
        <ele>99.000000</ele>
        <time>2010-01-01T00:49:15Z</time>
      </trkpt>
      <trkpt lat="31.25680890" lon="34.50046550">
        <ele>98.000000</ele>
        <time>2010-01-01T00:49:20Z</time>
      </trkpt>
      <trkpt lat="31.25678340" lon="34.50044540">
        <ele>98.000000</ele>
        <time>2010-01-01T00:49:21Z</time>
      </trkpt>
      <trkpt lat="31.25672270" lon="34.50038440">
        <ele>98.000000</ele>
        <time>2010-01-01T00:49:24Z</time>
      </trkpt>
      <trkpt lat="31.25656920" lon="34.50030290">
        <ele>97.000000</ele>
        <time>2010-01-01T00:49:31Z</time>
      </trkpt>
      <trkpt lat="31.25641910" lon="34.50033260">
        <ele>97.000000</ele>
        <time>2010-01-01T00:49:37Z</time>
      </trkpt>
      <trkpt lat="31.25636480" lon="34.50046350">
        <ele>97.000000</ele>
        <time>2010-01-01T00:49:42Z</time>
      </trkpt>
      <trkpt lat="31.25627350" lon="34.50061790">
        <ele>98.000000</ele>
        <time>2010-01-01T00:49:49Z</time>
      </trkpt>
      <trkpt lat="31.25618820" lon="34.50071160">
        <ele>98.000000</ele>
        <time>2010-01-01T00:49:53Z</time>
      </trkpt>
      <trkpt lat="31.25615670" lon="34.50071970">
        <ele>98.000000</ele>
        <time>2010-01-01T00:49:55Z</time>
      </trkpt>
      <trkpt lat="31.25594640" lon="34.50076030">
        <ele>98.000000</ele>
        <time>2010-01-01T00:50:03Z</time>
      </trkpt>
      <trkpt lat="31.25566340" lon="34.50075050">
        <ele>98.000000</ele>
        <time>2010-01-01T00:50:14Z</time>
      </trkpt>
      <trkpt lat="31.25556070" lon="34.50071260">
        <ele>98.000000</ele>
        <time>2010-01-01T00:50:19Z</time>
      </trkpt>
      <trkpt lat="31.25544310" lon="34.50065460">
        <ele>98.000000</ele>
        <time>2010-01-01T00:50:24Z</time>
      </trkpt>
      <trkpt lat="31.25524960" lon="34.50044800">
        <ele>97.000000</ele>
        <time>2010-01-01T00:50:34Z</time>
      </trkpt>
      <trkpt lat="31.25499090" lon="34.50027640">
        <ele>98.000000</ele>
        <time>2010-01-01T00:50:46Z</time>
      </trkpt>
      <trkpt lat="31.25489210" lon="34.50022220">
        <ele>98.000000</ele>
        <time>2010-01-01T00:50:51Z</time>
      </trkpt>
      <trkpt lat="31.25472530" lon="34.50022880">
        <ele>99.000000</ele>
        <time>2010-01-01T00:50:57Z</time>
      </trkpt>
      <trkpt lat="31.25460770" lon="34.50026020">
        <ele>99.000000</ele>
        <time>2010-01-01T00:51:02Z</time>
      </trkpt>
      <trkpt lat="31.25441190" lon="34.50023200">
        <ele>99.000000</ele>
        <time>2010-01-01T00:51:10Z</time>
      </trkpt>
      <trkpt lat="31.25438060" lon="34.50020640">
        <ele>99.000000</ele>
        <time>2010-01-01T00:51:12Z</time>
      </trkpt>
      <trkpt lat="31.25418450" lon="34.50007070">
        <ele>99.000000</ele>
        <time>2010-01-01T00:51:21Z</time>
      </trkpt>
      <trkpt lat="31.25393880" lon="34.49993890">
        <ele>100.00000</ele>
        <time>2010-01-01T00:51:31Z</time>
      </trkpt>
      <trkpt lat="31.25371320" lon="34.49991970">
        <ele>101.00000</ele>
        <time>2010-01-01T00:51:41Z</time>
      </trkpt>
      <trkpt lat="31.25362250" lon="34.49994230">
        <ele>101.00000</ele>
        <time>2010-01-01T00:51:44Z</time>
      </trkpt>
      <trkpt lat="31.25339660" lon="34.50005930">
        <ele>103.00000</ele>
        <time>2010-01-01T00:51:54Z</time>
      </trkpt>
      <trkpt lat="31.25325290" lon="34.50003280">
        <ele>103.00000</ele>
        <time>2010-01-01T00:52:00Z</time>
      </trkpt>
      <trkpt lat="31.25316190" lon="34.49999110">
        <ele>103.00000</ele>
        <time>2010-01-01T00:52:04Z</time>
      </trkpt>
      <trkpt lat="31.25305160" lon="34.49996930">
        <ele>102.00000</ele>
        <time>2010-01-01T00:52:08Z</time>
      </trkpt>
      <trkpt lat="31.25299730" lon="34.49996880">
        <ele>102.00000</ele>
        <time>2010-01-01T00:52:11Z</time>
      </trkpt>
      <trkpt lat="31.25290980" lon="34.49995650">
        <ele>102.00000</ele>
        <time>2010-01-01T00:52:14Z</time>
      </trkpt>
      <trkpt lat="31.25273510" lon="34.49996220">
        <ele>102.00000</ele>
        <time>2010-01-01T00:52:21Z</time>
      </trkpt>
      <trkpt lat="31.25246780" lon="34.50004840">
        <ele>102.00000</ele>
        <time>2010-01-01T00:52:32Z</time>
      </trkpt>
      <trkpt lat="31.25224360" lon="34.50002730">
        <ele>102.00000</ele>
        <time>2010-01-01T00:52:41Z</time>
      </trkpt>
      <trkpt lat="31.25202120" lon="34.49986970">
        <ele>102.00000</ele>
        <time>2010-01-01T00:52:52Z</time>
      </trkpt>
      <trkpt lat="31.25180470" lon="34.49979170">
        <ele>102.00000</ele>
        <time>2010-01-01T00:53:01Z</time>
      </trkpt>
      <trkpt lat="31.25160470" lon="34.49977340">
        <ele>102.00000</ele>
        <time>2010-01-01T00:53:09Z</time>
      </trkpt>
      <trkpt lat="31.25157890" lon="34.49965830">
        <ele>102.00000</ele>
        <time>2010-01-01T00:53:13Z</time>
      </trkpt>
      <trkpt lat="31.25158880" lon="34.49956730">
        <ele>101.00000</ele>
        <time>2010-01-01T00:53:16Z</time>
      </trkpt>
      <trkpt lat="31.25155460" lon="34.49932290">
        <ele>100.00000</ele>
        <time>2010-01-01T00:53:24Z</time>
      </trkpt>
      <trkpt lat="31.25151880" lon="34.49924510">
        <ele>100.00000</ele>
        <time>2010-01-01T00:53:27Z</time>
      </trkpt>
      <trkpt lat="31.25137750" lon="34.49908150">
        <ele>99.000000</ele>
        <time>2010-01-01T00:53:35Z</time>
      </trkpt>
      <trkpt lat="31.25118040" lon="34.49881390">
        <ele>98.000000</ele>
        <time>2010-01-01T00:53:47Z</time>
      </trkpt>
      <trkpt lat="31.25107530" lon="34.49858450">
        <ele>98.000000</ele>
        <time>2010-01-01T00:53:56Z</time>
      </trkpt>
      <trkpt lat="31.25089880" lon="34.49809970">
        <ele>96.000000</ele>
        <time>2010-01-01T00:54:14Z</time>
      </trkpt>
      <trkpt lat="31.25085380" lon="34.49792890">
        <ele>96.000000</ele>
        <time>2010-01-01T00:54:20Z</time>
      </trkpt>
      <trkpt lat="31.25067250" lon="34.49763970">
        <ele>95.000000</ele>
        <time>2010-01-01T00:54:33Z</time>
      </trkpt>
      <trkpt lat="31.25033050" lon="34.49719020">
        <ele>96.000000</ele>
        <time>2010-01-01T00:54:53Z</time>
      </trkpt>
      <trkpt lat="31.25006110" lon="34.49680580">
        <ele>97.000000</ele>
        <time>2010-01-01T00:55:10Z</time>
      </trkpt>
      <trkpt lat="31.24976590" lon="34.49634820">
        <ele>97.000000</ele>
        <time>2010-01-01T00:55:30Z</time>
      </trkpt>
      <trkpt lat="31.24944400" lon="34.49585380">
        <ele>97.000000</ele>
        <time>2010-01-01T00:55:51Z</time>
      </trkpt>
      <trkpt lat="31.24911370" lon="34.49537190">
        <ele>97.000000</ele>
        <time>2010-01-01T00:56:12Z</time>
      </trkpt>
      <trkpt lat="31.24881770" lon="34.49496950">
        <ele>98.000000</ele>
        <time>2010-01-01T00:56:31Z</time>
      </trkpt>
      <trkpt lat="31.24843200" lon="34.49446550">
        <ele>98.000000</ele>
        <time>2010-01-01T00:56:54Z</time>
      </trkpt>
      <trkpt lat="31.24805280" lon="34.49405370">
        <ele>97.000000</ele>
        <time>2010-01-01T00:57:14Z</time>
      </trkpt>
      <trkpt lat="31.24783110" lon="34.49390590">
        <ele>97.000000</ele>
        <time>2010-01-01T00:57:25Z</time>
      </trkpt>
      <trkpt lat="31.24783420" lon="34.49390600">
        <ele>97.000000</ele>
        <time>2010-01-01T00:57:25Z</time>
      </trkpt>
      <trkpt lat="31.24784770" lon="34.49391410">
        <ele>97.000000</ele>
        <time>2010-01-01T00:57:25Z</time>
      </trkpt>
      <trkpt lat="31.24784970" lon="34.49391580">
        <ele>97.000000</ele>
        <time>2010-01-01T00:57:25Z</time>
      </trkpt>
      <trkpt lat="31.24785010" lon="34.49391630">
        <ele>97.000000</ele>
        <time>2010-01-01T00:57:25Z</time>
      </trkpt>
      <trkpt lat="31.24785140" lon="34.49391790">
        <ele>97.000000</ele>
        <time>2010-01-01T00:57:26Z</time>
      </trkpt>
      <trkpt lat="31.24785240" lon="34.49391940">
        <ele>97.000000</ele>
        <time>2010-01-01T00:57:26Z</time>
      </trkpt>
      <trkpt lat="31.24785340" lon="34.49392150">
        <ele>97.000000</ele>
        <time>2010-01-01T00:57:26Z</time>
      </trkpt>
      <trkpt lat="31.24785490" lon="34.49392420">
        <ele>97.000000</ele>
        <time>2010-01-01T00:57:26Z</time>
      </trkpt>
      <trkpt lat="31.24780730" lon="34.49388470">
        <ele>97.000000</ele>
        <time>2010-01-01T00:57:28Z</time>
      </trkpt>
      <trkpt lat="31.24765590" lon="34.49372170">
        <ele>97.000000</ele>
        <time>2010-01-01T00:57:36Z</time>
      </trkpt>
      <trkpt lat="31.24759910" lon="34.49364940">
        <ele>97.000000</ele>
        <time>2010-01-01T00:57:40Z</time>
      </trkpt>
      <trkpt lat="31.24743580" lon="34.49356890">
        <ele>97.000000</ele>
        <time>2010-01-01T00:57:47Z</time>
      </trkpt>
      <trkpt lat="31.24724760" lon="34.49366000">
        <ele>98.000000</ele>
        <time>2010-01-01T00:57:55Z</time>
      </trkpt>
      <trkpt lat="31.24713700" lon="34.49378220">
        <ele>98.000000</ele>
        <time>2010-01-01T00:58:01Z</time>
      </trkpt>
      <trkpt lat="31.24693030" lon="34.49399860">
        <ele>99.000000</ele>
        <time>2010-01-01T00:58:12Z</time>
      </trkpt>
      <trkpt lat="31.24675360" lon="34.49412520">
        <ele>100.00000</ele>
        <time>2010-01-01T00:58:20Z</time>
      </trkpt>
      <trkpt lat="31.24640830" lon="34.49428620">
        <ele>101.00000</ele>
        <time>2010-01-01T00:58:35Z</time>
      </trkpt>
      <trkpt lat="31.24619970" lon="34.49433870">
        <ele>101.00000</ele>
        <time>2010-01-01T00:58:44Z</time>
      </trkpt>
      <trkpt lat="31.24576210" lon="34.49442460">
        <ele>101.00000</ele>
        <time>2010-01-01T00:59:02Z</time>
      </trkpt>
      <trkpt lat="31.24539320" lon="34.49454380">
        <ele>102.00000</ele>
        <time>2010-01-01T00:59:17Z</time>
      </trkpt>
      <trkpt lat="31.24509610" lon="34.49472750">
        <ele>103.00000</ele>
        <time>2010-01-01T00:59:30Z</time>
      </trkpt>
      <trkpt lat="31.24490860" lon="34.49498240">
        <ele>104.00000</ele>
        <time>2010-01-01T00:59:42Z</time>
      </trkpt>
      <trkpt lat="31.24488890" lon="34.49503330">
        <ele>105.00000</ele>
        <time>2010-01-01T00:59:44Z</time>
      </trkpt>
      <trkpt lat="31.24480370" lon="34.49530260">
        <ele>106.00000</ele>
        <time>2010-01-01T00:59:54Z</time>
      </trkpt>
      <trkpt lat="31.24468270" lon="34.49533820">
        <ele>105.00000</ele>
        <time>2010-01-01T00:59:59Z</time>
      </trkpt>
      <trkpt lat="31.24447340" lon="34.49529170">
        <ele>104.00000</ele>
        <time>2010-01-01T01:00:07Z</time>
      </trkpt>
      <trkpt lat="31.24441810" lon="34.49528850">
        <ele>104.00000</ele>
        <time>2010-01-01T01:00:09Z</time>
      </trkpt>
      <trkpt lat="31.24430550" lon="34.49529790">
        <ele>103.00000</ele>
        <time>2010-01-01T01:00:14Z</time>
      </trkpt>
      <trkpt lat="31.24419690" lon="34.49532430">
        <ele>103.00000</ele>
        <time>2010-01-01T01:00:18Z</time>
      </trkpt>
      <trkpt lat="31.24404980" lon="34.49540100">
        <ele>103.00000</ele>
        <time>2010-01-01T01:00:25Z</time>
      </trkpt>
      <trkpt lat="31.24391860" lon="34.49557120">
        <ele>103.00000</ele>
        <time>2010-01-01T01:00:33Z</time>
      </trkpt>
      <trkpt lat="31.24382540" lon="34.49567760">
        <ele>104.00000</ele>
        <time>2010-01-01T01:00:38Z</time>
      </trkpt>
      <trkpt lat="31.24371030" lon="34.49588120">
        <ele>104.00000</ele>
        <time>2010-01-01T01:00:46Z</time>
      </trkpt>
      <trkpt lat="31.24369280" lon="34.49592830">
        <ele>104.00000</ele>
        <time>2010-01-01T01:00:48Z</time>
      </trkpt>
      <trkpt lat="31.24358240" lon="34.49615710">
        <ele>105.00000</ele>
        <time>2010-01-01T01:00:57Z</time>
      </trkpt>
      <trkpt lat="31.24357190" lon="34.49620130">
        <ele>105.00000</ele>
        <time>2010-01-01T01:00:59Z</time>
      </trkpt>
      <trkpt lat="31.24348560" lon="34.49641210">
        <ele>106.00000</ele>
        <time>2010-01-01T01:01:07Z</time>
      </trkpt>
      <trkpt lat="31.24347040" lon="34.49644950">
        <ele>106.00000</ele>
        <time>2010-01-01T01:01:08Z</time>
      </trkpt>
      <trkpt lat="31.24335300" lon="34.49666500">
        <ele>106.00000</ele>
        <time>2010-01-01T01:01:17Z</time>
      </trkpt>
      <trkpt lat="31.24325770" lon="34.49687310">
        <ele>106.00000</ele>
        <time>2010-01-01T01:01:25Z</time>
      </trkpt>
      <trkpt lat="31.24321100" lon="34.49710470">
        <ele>107.00000</ele>
        <time>2010-01-01T01:01:33Z</time>
      </trkpt>
      <trkpt lat="31.24319860" lon="34.49714810">
        <ele>107.00000</ele>
        <time>2010-01-01T01:01:34Z</time>
      </trkpt>
      <trkpt lat="31.24312500" lon="34.49739260">
        <ele>107.00000</ele>
        <time>2010-01-01T01:01:43Z</time>
      </trkpt>
      <trkpt lat="31.24301110" lon="34.49774060">
        <ele>107.00000</ele>
        <time>2010-01-01T01:01:56Z</time>
      </trkpt>
      <trkpt lat="31.24298210" lon="34.49783300">
        <ele>107.00000</ele>
        <time>2010-01-01T01:01:59Z</time>
      </trkpt>
      <trkpt lat="31.24286760" lon="34.49809980">
        <ele>107.00000</ele>
        <time>2010-01-01T01:02:10Z</time>
      </trkpt>
      <trkpt lat="31.24279490" lon="34.49835680">
        <ele>107.00000</ele>
        <time>2010-01-01T01:02:19Z</time>
      </trkpt>
      <trkpt lat="31.24278430" lon="34.49875360">
        <ele>107.00000</ele>
        <time>2010-01-01T01:02:33Z</time>
      </trkpt>
      <trkpt lat="31.24277330" lon="34.49896520">
        <ele>107.00000</ele>
        <time>2010-01-01T01:02:40Z</time>
      </trkpt>
      <trkpt lat="31.24270700" lon="34.49919000">
        <ele>107.00000</ele>
        <time>2010-01-01T01:02:48Z</time>
      </trkpt>
      <trkpt lat="31.24257700" lon="34.49932790">
        <ele>106.00000</ele>
        <time>2010-01-01T01:02:55Z</time>
      </trkpt>
      <trkpt lat="31.24240400" lon="34.49942900">
        <ele>106.00000</ele>
        <time>2010-01-01T01:03:03Z</time>
      </trkpt>
      <trkpt lat="31.24207430" lon="34.49960810">
        <ele>105.00000</ele>
        <time>2010-01-01T01:03:17Z</time>
      </trkpt>
      <trkpt lat="31.24199760" lon="34.49965540">
        <ele>104.00000</ele>
        <time>2010-01-01T01:03:21Z</time>
      </trkpt>
      <trkpt lat="31.24179470" lon="34.49975750">
        <ele>103.00000</ele>
        <time>2010-01-01T01:03:30Z</time>
      </trkpt>
      <trkpt lat="31.24172320" lon="34.49987080">
        <ele>103.00000</ele>
        <time>2010-01-01T01:03:34Z</time>
      </trkpt>
      <trkpt lat="31.24158130" lon="34.50014690">
        <ele>104.00000</ele>
        <time>2010-01-01T01:03:45Z</time>
      </trkpt>
      <trkpt lat="31.24148970" lon="34.50027470">
        <ele>105.00000</ele>
        <time>2010-01-01T01:03:51Z</time>
      </trkpt>
      <trkpt lat="31.24135180" lon="34.50044880">
        <ele>106.00000</ele>
        <time>2010-01-01T01:03:59Z</time>
      </trkpt>
      <trkpt lat="31.24118490" lon="34.50079350">
        <ele>107.00000</ele>
        <time>2010-01-01T01:04:13Z</time>
      </trkpt>
      <trkpt lat="31.24113020" lon="34.50094880">
        <ele>107.00000</ele>
        <time>2010-01-01T01:04:19Z</time>
      </trkpt>
      <trkpt lat="31.24110270" lon="34.50122490">
        <ele>108.00000</ele>
        <time>2010-01-01T01:04:28Z</time>
      </trkpt>
      <trkpt lat="31.24110880" lon="34.50142490">
        <ele>110.00000</ele>
        <time>2010-01-01T01:04:35Z</time>
      </trkpt>
      <trkpt lat="31.24107310" lon="34.50161240">
        <ele>110.00000</ele>
        <time>2010-01-01T01:04:41Z</time>
      </trkpt>
      <trkpt lat="31.24099950" lon="34.50169060">
        <ele>110.00000</ele>
        <time>2010-01-01T01:04:45Z</time>
      </trkpt>
      <trkpt lat="31.24081730" lon="34.50174480">
        <ele>108.00000</ele>
        <time>2010-01-01T01:04:53Z</time>
      </trkpt>
      <trkpt lat="31.24058940" lon="34.50180200">
        <ele>107.00000</ele>
        <time>2010-01-01T01:05:02Z</time>
      </trkpt>
      <trkpt lat="31.24046340" lon="34.50194290">
        <ele>107.00000</ele>
        <time>2010-01-01T01:05:09Z</time>
      </trkpt>
      <trkpt lat="31.24038850" lon="34.50202060">
        <ele>107.00000</ele>
        <time>2010-01-01T01:05:13Z</time>
      </trkpt>
      <trkpt lat="31.24026690" lon="34.50211700">
        <ele>107.00000</ele>
        <time>2010-01-01T01:05:19Z</time>
      </trkpt>
      <trkpt lat="31.24008070" lon="34.50225000">
        <ele>107.00000</ele>
        <time>2010-01-01T01:05:28Z</time>
      </trkpt>
      <trkpt lat="31.23992990" lon="34.50224690">
        <ele>107.00000</ele>
        <time>2010-01-01T01:05:34Z</time>
      </trkpt>
      <trkpt lat="31.23972980" lon="34.50237850">
        <ele>106.00000</ele>
        <time>2010-01-01T01:05:43Z</time>
      </trkpt>
      <trkpt lat="31.23969560" lon="34.50241170">
        <ele>106.00000</ele>
        <time>2010-01-01T01:05:45Z</time>
      </trkpt>
      <trkpt lat="31.23948060" lon="34.50263910">
        <ele>106.00000</ele>
        <time>2010-01-01T01:05:57Z</time>
      </trkpt>
      <trkpt lat="31.23935910" lon="34.50295720">
        <ele>105.00000</ele>
        <time>2010-01-01T01:06:08Z</time>
      </trkpt>
      <trkpt lat="31.23926620" lon="34.50307570">
        <ele>105.00000</ele>
        <time>2010-01-01T01:06:14Z</time>
      </trkpt>
      <trkpt lat="31.23923510" lon="34.50309960">
        <ele>104.00000</ele>
        <time>2010-01-01T01:06:15Z</time>
      </trkpt>
      <trkpt lat="31.23918190" lon="34.50314720">
        <ele>104.00000</ele>
        <time>2010-01-01T01:06:18Z</time>
      </trkpt>
      <trkpt lat="31.23909910" lon="34.50314350">
        <ele>104.00000</ele>
        <time>2010-01-01T01:06:21Z</time>
      </trkpt>
      <trkpt lat="31.23896800" lon="34.50313210">
        <ele>104.00000</ele>
        <time>2010-01-01T01:06:27Z</time>
      </trkpt>
      <trkpt lat="31.23869370" lon="34.50314640">
        <ele>103.00000</ele>
        <time>2010-01-01T01:06:38Z</time>
      </trkpt>
      <trkpt lat="31.23866390" lon="34.50313760">
        <ele>103.00000</ele>
        <time>2010-01-01T01:06:39Z</time>
      </trkpt>
      <trkpt lat="31.23862240" lon="34.50319700">
        <ele>103.00000</ele>
        <time>2010-01-01T01:06:42Z</time>
      </trkpt>
      <trkpt lat="31.23867990" lon="34.50324250">
        <ele>103.00000</ele>
        <time>2010-01-01T01:06:44Z</time>
      </trkpt>
      <trkpt lat="31.23868360" lon="34.50323550">
        <ele>103.00000</ele>
        <time>2010-01-01T01:06:45Z</time>
      </trkpt>
      <trkpt lat="31.23867930" lon="34.50320480">
        <ele>103.00000</ele>
        <time>2010-01-01T01:06:46Z</time>
      </trkpt>
      <trkpt lat="31.23868050" lon="34.50319770">
        <ele>103.00000</ele>
        <time>2010-01-01T01:06:46Z</time>
      </trkpt>
      <trkpt lat="31.23867890" lon="34.50317840">
        <ele>103.00000</ele>
        <time>2010-01-01T01:06:47Z</time>
      </trkpt>
      <trkpt lat="31.23869290" lon="34.50317510">
        <ele>103.00000</ele>
        <time>2010-01-01T01:06:47Z</time>
      </trkpt>
      <trkpt lat="31.23876710" lon="34.50310330">
        <ele>103.00000</ele>
        <time>2010-01-01T01:06:51Z</time>
      </trkpt>
      <trkpt lat="31.23881210" lon="34.50308550">
        <ele>103.00000</ele>
        <time>2010-01-01T01:06:53Z</time>
      </trkpt>
      <trkpt lat="31.23884040" lon="34.50308210">
        <ele>103.00000</ele>
        <time>2010-01-01T01:06:54Z</time>
      </trkpt>
      <trkpt lat="31.23904170" lon="34.50309370">
        <ele>104.00000</ele>
        <time>2010-01-01T01:07:02Z</time>
      </trkpt>
      <trkpt lat="31.23913560" lon="34.50310150">
        <ele>104.00000</ele>
        <time>2010-01-01T01:07:06Z</time>
      </trkpt>
      <trkpt lat="31.23920510" lon="34.50311370">
        <ele>104.00000</ele>
        <time>2010-01-01T01:07:09Z</time>
      </trkpt>
      <trkpt lat="31.23922180" lon="34.50311690">
        <ele>104.00000</ele>
        <time>2010-01-01T01:07:09Z</time>
      </trkpt>
      <trkpt lat="31.23924370" lon="34.50313330">
        <ele>104.00000</ele>
        <time>2010-01-01T01:07:10Z</time>
      </trkpt>
      <trkpt lat="31.23925420" lon="34.50325030">
        <ele>105.00000</ele>
        <time>2010-01-01T01:07:14Z</time>
      </trkpt>
      <trkpt lat="31.23918560" lon="34.50329190">
        <ele>104.00000</ele>
        <time>2010-01-01T01:07:18Z</time>
      </trkpt>
      <trkpt lat="31.23898090" lon="34.50329080">
        <ele>104.00000</ele>
        <time>2010-01-01T01:07:26Z</time>
      </trkpt>
      <trkpt lat="31.23870080" lon="34.50337370">
        <ele>103.00000</ele>
        <time>2010-01-01T01:07:37Z</time>
      </trkpt>
      <trkpt lat="31.23864000" lon="34.50343220">
        <ele>103.00000</ele>
        <time>2010-01-01T01:07:40Z</time>
      </trkpt>
      <trkpt lat="31.23853280" lon="34.50370190">
        <ele>103.00000</ele>
        <time>2010-01-01T01:07:51Z</time>
      </trkpt>
      <trkpt lat="31.23844130" lon="34.50412610">
        <ele>103.00000</ele>
        <time>2010-01-01T01:08:06Z</time>
      </trkpt>
      <trkpt lat="31.23834250" lon="34.50442300">
        <ele>103.00000</ele>
        <time>2010-01-01T01:08:17Z</time>
      </trkpt>
      <trkpt lat="31.23827790" lon="34.50457810">
        <ele>103.00000</ele>
        <time>2010-01-01T01:08:22Z</time>
      </trkpt>
      <trkpt lat="31.23816860" lon="34.50482140">
        <ele>102.00000</ele>
        <time>2010-01-01T01:08:32Z</time>
      </trkpt>
      <trkpt lat="31.23811340" lon="34.50491380">
        <ele>102.00000</ele>
        <time>2010-01-01T01:08:36Z</time>
      </trkpt>
      <trkpt lat="31.23801550" lon="34.50506140">
        <ele>102.00000</ele>
        <time>2010-01-01T01:08:42Z</time>
      </trkpt>
      <trkpt lat="31.23798310" lon="34.50511140">
        <ele>102.00000</ele>
        <time>2010-01-01T01:08:44Z</time>
      </trkpt>
      <trkpt lat="31.23789530" lon="34.50523660">
        <ele>102.00000</ele>
        <time>2010-01-01T01:08:50Z</time>
      </trkpt>
      <trkpt lat="31.23774500" lon="34.50541440">
        <ele>102.00000</ele>
        <time>2010-01-01T01:08:58Z</time>
      </trkpt>
      <trkpt lat="31.23765830" lon="34.50550470">
        <ele>102.00000</ele>
        <time>2010-01-01T01:09:03Z</time>
      </trkpt>
      <trkpt lat="31.23751700" lon="34.50564360">
        <ele>102.00000</ele>
        <time>2010-01-01T01:09:10Z</time>
      </trkpt>
      <trkpt lat="31.23726780" lon="34.50584590">
        <ele>103.00000</ele>
        <time>2010-01-01T01:09:23Z</time>
      </trkpt>
      <trkpt lat="31.23710870" lon="34.50596900">
        <ele>103.00000</ele>
        <time>2010-01-01T01:09:30Z</time>
      </trkpt>
      <trkpt lat="31.23686840" lon="34.50618990">
        <ele>103.00000</ele>
        <time>2010-01-01T01:09:42Z</time>
      </trkpt>
      <trkpt lat="31.23664000" lon="34.50652210">
        <ele>103.00000</ele>
        <time>2010-01-01T01:09:57Z</time>
      </trkpt>
      <trkpt lat="31.23649910" lon="34.50683400">
        <ele>103.00000</ele>
        <time>2010-01-01T01:10:09Z</time>
      </trkpt>
      <trkpt lat="31.23632080" lon="34.50726190">
        <ele>103.00000</ele>
        <time>2010-01-01T01:10:25Z</time>
      </trkpt>
      <trkpt lat="31.23629830" lon="34.50731480">
        <ele>103.00000</ele>
        <time>2010-01-01T01:10:27Z</time>
      </trkpt>
      <trkpt lat="31.23625110" lon="34.50747490">
        <ele>103.00000</ele>
        <time>2010-01-01T01:10:33Z</time>
      </trkpt>
      <trkpt lat="31.23625400" lon="34.50766440">
        <ele>104.00000</ele>
        <time>2010-01-01T01:10:40Z</time>
      </trkpt>
      <trkpt lat="31.23624430" lon="34.50785960">
        <ele>105.00000</ele>
        <time>2010-01-01T01:10:46Z</time>
      </trkpt>
      <trkpt lat="31.23609090" lon="34.50802330">
        <ele>107.00000</ele>
        <time>2010-01-01T01:10:55Z</time>
      </trkpt>
      <trkpt lat="31.23593480" lon="34.50812620">
        <ele>108.00000</ele>
        <time>2010-01-01T01:11:02Z</time>
      </trkpt>
      <trkpt lat="31.23582320" lon="34.50812420">
        <ele>108.00000</ele>
        <time>2010-01-01T01:11:06Z</time>
      </trkpt>
      <trkpt lat="31.23566290" lon="34.50805040">
        <ele>108.00000</ele>
        <time>2010-01-01T01:11:13Z</time>
      </trkpt>
      <trkpt lat="31.23564240" lon="34.50803800">
        <ele>107.00000</ele>
        <time>2010-01-01T01:11:14Z</time>
      </trkpt>
      <trkpt lat="31.23548600" lon="34.50809530">
        <ele>108.00000</ele>
        <time>2010-01-01T01:11:21Z</time>
      </trkpt>
      <trkpt lat="31.23537510" lon="34.50814440">
        <ele>108.00000</ele>
        <time>2010-01-01T01:11:25Z</time>
      </trkpt>
      <trkpt lat="31.23535620" lon="34.50815370">
        <ele>108.00000</ele>
        <time>2010-01-01T01:11:26Z</time>
      </trkpt>
      <trkpt lat="31.23535590" lon="34.50815380">
        <ele>108.00000</ele>
        <time>2010-01-01T01:11:26Z</time>
      </trkpt>
      <trkpt lat="31.23536240" lon="34.50815230">
        <ele>108.00000</ele>
        <time>2010-01-01T01:11:26Z</time>
      </trkpt>
      <trkpt lat="31.23536630" lon="34.50815280">
        <ele>108.00000</ele>
        <time>2010-01-01T01:11:27Z</time>
      </trkpt>
      <trkpt lat="31.23532900" lon="34.50818740">
        <ele>108.00000</ele>
        <time>2010-01-01T01:11:29Z</time>
      </trkpt>
      <trkpt lat="31.23525430" lon="34.50824930">
        <ele>108.00000</ele>
        <time>2010-01-01T01:11:32Z</time>
      </trkpt>
      <trkpt lat="31.23523730" lon="34.50826090">
        <ele>108.00000</ele>
        <time>2010-01-01T01:11:33Z</time>
      </trkpt>
      <trkpt lat="31.23509930" lon="34.50824290">
        <ele>108.00000</ele>
        <time>2010-01-01T01:11:39Z</time>
      </trkpt>
      <trkpt lat="31.23499960" lon="34.50825500">
        <ele>108.00000</ele>
        <time>2010-01-01T01:11:43Z</time>
      </trkpt>
      <trkpt lat="31.23497760" lon="34.50825860">
        <ele>108.00000</ele>
        <time>2010-01-01T01:11:43Z</time>
      </trkpt>
      <trkpt lat="31.23492950" lon="34.50830360">
        <ele>108.00000</ele>
        <time>2010-01-01T01:11:46Z</time>
      </trkpt>
      <trkpt lat="31.23492160" lon="34.50834850">
        <ele>108.00000</ele>
        <time>2010-01-01T01:11:48Z</time>
      </trkpt>
      <trkpt lat="31.23494300" lon="34.50851920">
        <ele>109.00000</ele>
        <time>2010-01-01T01:11:53Z</time>
      </trkpt>
      <trkpt lat="31.23502910" lon="34.50861550">
        <ele>109.00000</ele>
        <time>2010-01-01T01:11:58Z</time>
      </trkpt>
      <trkpt lat="31.23517350" lon="34.50871110">
        <ele>109.00000</ele>
        <time>2010-01-01T01:12:05Z</time>
      </trkpt>
      <trkpt lat="31.23536830" lon="34.50892710">
        <ele>110.00000</ele>
        <time>2010-01-01T01:12:16Z</time>
      </trkpt>
      <trkpt lat="31.23549110" lon="34.50901780">
        <ele>110.00000</ele>
        <time>2010-01-01T01:12:21Z</time>
      </trkpt>
      <trkpt lat="31.23566790" lon="34.50920340">
        <ele>111.00000</ele>
        <time>2010-01-01T01:12:31Z</time>
      </trkpt>
      <trkpt lat="31.23579270" lon="34.50932400">
        <ele>111.00000</ele>
        <time>2010-01-01T01:12:37Z</time>
      </trkpt>
      <trkpt lat="31.23582210" lon="34.50929560">
        <ele>111.00000</ele>
        <time>2010-01-01T01:12:39Z</time>
      </trkpt>
      <trkpt lat="31.23577590" lon="34.50931200">
        <ele>111.00000</ele>
        <time>2010-01-01T01:12:41Z</time>
      </trkpt>
      <trkpt lat="31.23559010" lon="34.50934790">
        <ele>111.00000</ele>
        <time>2010-01-01T01:12:48Z</time>
      </trkpt>
      <trkpt lat="31.23551190" lon="34.50934730">
        <ele>111.00000</ele>
        <time>2010-01-01T01:12:52Z</time>
      </trkpt>
      <trkpt lat="31.23528140" lon="34.50920650">
        <ele>111.00000</ele>
        <time>2010-01-01T01:13:02Z</time>
      </trkpt>
      <trkpt lat="31.23521390" lon="34.50912310">
        <ele>110.00000</ele>
        <time>2010-01-01T01:13:06Z</time>
      </trkpt>
      <trkpt lat="31.23499630" lon="34.50898610">
        <ele>110.00000</ele>
        <time>2010-01-01T01:13:16Z</time>
      </trkpt>
      <trkpt lat="31.23473700" lon="34.50901590">
        <ele>110.00000</ele>
        <time>2010-01-01T01:13:26Z</time>
      </trkpt>
      <trkpt lat="31.23425100" lon="34.50916830">
        <ele>111.00000</ele>
        <time>2010-01-01T01:13:46Z</time>
      </trkpt>
      <trkpt lat="31.23382730" lon="34.50919500">
        <ele>112.00000</ele>
        <time>2010-01-01T01:14:03Z</time>
      </trkpt>
      <trkpt lat="31.23356310" lon="34.50914330">
        <ele>113.00000</ele>
        <time>2010-01-01T01:14:14Z</time>
      </trkpt>
      <trkpt lat="31.23346570" lon="34.50910810">
        <ele>113.00000</ele>
        <time>2010-01-01T01:14:18Z</time>
      </trkpt>
      <trkpt lat="31.23323300" lon="34.50904740">
        <ele>113.00000</ele>
        <time>2010-01-01T01:14:28Z</time>
      </trkpt>
      <trkpt lat="31.23300000" lon="34.50906140">
        <ele>113.00000</ele>
        <time>2010-01-01T01:14:37Z</time>
      </trkpt>
      <trkpt lat="31.23275580" lon="34.50906040">
        <ele>113.00000</ele>
        <time>2010-01-01T01:14:47Z</time>
      </trkpt>
      <trkpt lat="31.23253720" lon="34.50896330">
        <ele>113.00000</ele>
        <time>2010-01-01T01:14:56Z</time>
      </trkpt>
      <trkpt lat="31.23227150" lon="34.50884650">
        <ele>112.00000</ele>
        <time>2010-01-01T01:15:07Z</time>
      </trkpt>
      <trkpt lat="31.23212820" lon="34.50886150">
        <ele>111.00000</ele>
        <time>2010-01-01T01:15:13Z</time>
      </trkpt>
      <trkpt lat="31.23188670" lon="34.50895110">
        <ele>111.00000</ele>
        <time>2010-01-01T01:15:23Z</time>
      </trkpt>
      <trkpt lat="31.23170550" lon="34.50897610">
        <ele>111.00000</ele>
        <time>2010-01-01T01:15:31Z</time>
      </trkpt>
      <trkpt lat="31.23160940" lon="34.50897300">
        <ele>111.00000</ele>
        <time>2010-01-01T01:15:35Z</time>
      </trkpt>
      <trkpt lat="31.23131180" lon="34.50902960">
        <ele>110.00000</ele>
        <time>2010-01-01T01:15:47Z</time>
      </trkpt>
      <trkpt lat="31.23100080" lon="34.50909080">
        <ele>109.00000</ele>
        <time>2010-01-01T01:15:59Z</time>
      </trkpt>
      <trkpt lat="31.23079900" lon="34.50915830">
        <ele>107.00000</ele>
        <time>2010-01-01T01:16:08Z</time>
      </trkpt>
      <trkpt lat="31.23065730" lon="34.50920450">
        <ele>108.00000</ele>
        <time>2010-01-01T01:16:14Z</time>
      </trkpt>
      <trkpt lat="31.23061590" lon="34.50922250">
        <ele>108.00000</ele>
        <time>2010-01-01T01:16:15Z</time>
      </trkpt>
      <trkpt lat="31.23046290" lon="34.50931470">
        <ele>109.00000</ele>
        <time>2010-01-01T01:16:22Z</time>
      </trkpt>
      <trkpt lat="31.23026120" lon="34.50935810">
        <ele>110.00000</ele>
        <time>2010-01-01T01:16:30Z</time>
      </trkpt>
      <trkpt lat="31.22993300" lon="34.50943600">
        <ele>111.00000</ele>
        <time>2010-01-01T01:16:44Z</time>
      </trkpt>
      <trkpt lat="31.22962930" lon="34.50949380">
        <ele>111.00000</ele>
        <time>2010-01-01T01:16:56Z</time>
      </trkpt>
      <trkpt lat="31.22928180" lon="34.50955390">
        <ele>111.00000</ele>
        <time>2010-01-01T01:17:10Z</time>
      </trkpt>
      <trkpt lat="31.22912370" lon="34.50957220">
        <ele>111.00000</ele>
        <time>2010-01-01T01:17:17Z</time>
      </trkpt>
      <trkpt lat="31.22902060" lon="34.50960010">
        <ele>112.00000</ele>
        <time>2010-01-01T01:17:21Z</time>
      </trkpt>
      <trkpt lat="31.22886990" lon="34.50961610">
        <ele>112.00000</ele>
        <time>2010-01-01T01:17:27Z</time>
      </trkpt>
      <trkpt lat="31.22867890" lon="34.50965810">
        <ele>112.00000</ele>
        <time>2010-01-01T01:17:35Z</time>
      </trkpt>
      <trkpt lat="31.22850820" lon="34.50969700">
        <ele>112.00000</ele>
        <time>2010-01-01T01:17:42Z</time>
      </trkpt>
      <trkpt lat="31.22841970" lon="34.50971210">
        <ele>112.00000</ele>
        <time>2010-01-01T01:17:45Z</time>
      </trkpt>
      <trkpt lat="31.22832590" lon="34.50973650">
        <ele>112.00000</ele>
        <time>2010-01-01T01:17:49Z</time>
      </trkpt>
      <trkpt lat="31.22793280" lon="34.50997760">
        <ele>111.00000</ele>
        <time>2010-01-01T01:18:07Z</time>
      </trkpt>
      <trkpt lat="31.22768520" lon="34.51022140">
        <ele>111.00000</ele>
        <time>2010-01-01T01:18:20Z</time>
      </trkpt>
      <trkpt lat="31.22757240" lon="34.51033050">
        <ele>111.00000</ele>
        <time>2010-01-01T01:18:26Z</time>
      </trkpt>
      <trkpt lat="31.22749820" lon="34.51057300">
        <ele>111.00000</ele>
        <time>2010-01-01T01:18:34Z</time>
      </trkpt>
      <trkpt lat="31.22749350" lon="34.51066030">
        <ele>111.00000</ele>
        <time>2010-01-01T01:18:37Z</time>
      </trkpt>
      <trkpt lat="31.22742190" lon="34.51066300">
        <ele>111.00000</ele>
        <time>2010-01-01T01:18:40Z</time>
      </trkpt>
      <trkpt lat="31.22733140" lon="34.51069980">
        <ele>112.00000</ele>
        <time>2010-01-01T01:18:44Z</time>
      </trkpt>
      <trkpt lat="31.22712900" lon="34.51086400">
        <ele>112.00000</ele>
        <time>2010-01-01T01:18:54Z</time>
      </trkpt>
      <trkpt lat="31.22706600" lon="34.51093330">
        <ele>112.00000</ele>
        <time>2010-01-01T01:18:57Z</time>
      </trkpt>
      <trkpt lat="31.22683870" lon="34.51115260">
        <ele>113.00000</ele>
        <time>2010-01-01T01:19:09Z</time>
      </trkpt>
      <trkpt lat="31.22677610" lon="34.51128380">
        <ele>113.00000</ele>
        <time>2010-01-01T01:19:14Z</time>
      </trkpt>
      <trkpt lat="31.22669840" lon="34.51137000">
        <ele>113.00000</ele>
        <time>2010-01-01T01:19:19Z</time>
      </trkpt>
      <trkpt lat="31.22664510" lon="34.51149260">
        <ele>114.00000</ele>
        <time>2010-01-01T01:19:23Z</time>
      </trkpt>
      <trkpt lat="31.22655970" lon="34.51172040">
        <ele>114.00000</ele>
        <time>2010-01-01T01:19:32Z</time>
      </trkpt>
      <trkpt lat="31.22651840" lon="34.51190120">
        <ele>114.00000</ele>
        <time>2010-01-01T01:19:38Z</time>
      </trkpt>
      <trkpt lat="31.22645250" lon="34.51214630">
        <ele>114.00000</ele>
        <time>2010-01-01T01:19:47Z</time>
      </trkpt>
      <trkpt lat="31.22642340" lon="34.51239380">
        <ele>114.00000</ele>
        <time>2010-01-01T01:19:56Z</time>
      </trkpt>
      <trkpt lat="31.22638810" lon="34.51258710">
        <ele>114.00000</ele>
        <time>2010-01-01T01:20:02Z</time>
      </trkpt>
      <trkpt lat="31.22635850" lon="34.51269140">
        <ele>114.00000</ele>
        <time>2010-01-01T01:20:06Z</time>
      </trkpt>
      <trkpt lat="31.22626320" lon="34.51290130">
        <ele>114.00000</ele>
        <time>2010-01-01T01:20:14Z</time>
      </trkpt>
      <trkpt lat="31.22612750" lon="34.51309400">
        <ele>114.00000</ele>
        <time>2010-01-01T01:20:23Z</time>
      </trkpt>
      <trkpt lat="31.22600820" lon="34.51336660">
        <ele>114.00000</ele>
        <time>2010-01-01T01:20:33Z</time>
      </trkpt>
      <trkpt lat="31.22599710" lon="34.51348240">
        <ele>114.00000</ele>
        <time>2010-01-01T01:20:37Z</time>
      </trkpt>
      <trkpt lat="31.22590820" lon="34.51377680">
        <ele>113.00000</ele>
        <time>2010-01-01T01:20:48Z</time>
      </trkpt>
      <trkpt lat="31.22580950" lon="34.51409300">
        <ele>112.00000</ele>
        <time>2010-01-01T01:21:00Z</time>
      </trkpt>
      <trkpt lat="31.22578650" lon="34.51436600">
        <ele>113.00000</ele>
        <time>2010-01-01T01:21:09Z</time>
      </trkpt>
      <trkpt lat="31.22573180" lon="34.51479220">
        <ele>114.00000</ele>
        <time>2010-01-01T01:21:24Z</time>
      </trkpt>
      <trkpt lat="31.22569270" lon="34.51507770">
        <ele>115.00000</ele>
        <time>2010-01-01T01:21:34Z</time>
      </trkpt>
      <trkpt lat="31.22562500" lon="34.51525940">
        <ele>115.00000</ele>
        <time>2010-01-01T01:21:40Z</time>
      </trkpt>
      <trkpt lat="31.22557900" lon="34.51540010">
        <ele>115.00000</ele>
        <time>2010-01-01T01:21:45Z</time>
      </trkpt>
      <trkpt lat="31.22549500" lon="34.51567480">
        <ele>115.00000</ele>
        <time>2010-01-01T01:21:55Z</time>
      </trkpt>
      <trkpt lat="31.22543510" lon="34.51596900">
        <ele>114.00000</ele>
        <time>2010-01-01T01:22:06Z</time>
      </trkpt>
      <trkpt lat="31.22540910" lon="34.51608240">
        <ele>115.00000</ele>
        <time>2010-01-01T01:22:10Z</time>
      </trkpt>
      <trkpt lat="31.22533920" lon="34.51634840">
        <ele>115.00000</ele>
        <time>2010-01-01T01:22:19Z</time>
      </trkpt>
      <trkpt lat="31.22527440" lon="34.51654350">
        <ele>115.00000</ele>
        <time>2010-01-01T01:22:27Z</time>
      </trkpt>
      <trkpt lat="31.22503430" lon="34.51700970">
        <ele>115.00000</ele>
        <time>2010-01-01T01:22:45Z</time>
      </trkpt>
      <trkpt lat="31.22498440" lon="34.51711180">
        <ele>116.00000</ele>
        <time>2010-01-01T01:22:49Z</time>
      </trkpt>
      <trkpt lat="31.22492380" lon="34.51720710">
        <ele>116.00000</ele>
        <time>2010-01-01T01:22:53Z</time>
      </trkpt>
      <trkpt lat="31.22481650" lon="34.51740430">
        <ele>117.00000</ele>
        <time>2010-01-01T01:23:01Z</time>
      </trkpt>
      <trkpt lat="31.22462840" lon="34.51775860">
        <ele>118.00000</ele>
        <time>2010-01-01T01:23:16Z</time>
      </trkpt>
      <trkpt lat="31.22439430" lon="34.51807380">
        <ele>117.00000</ele>
        <time>2010-01-01T01:23:30Z</time>
      </trkpt>
      <trkpt lat="31.22423060" lon="34.51836680">
        <ele>116.00000</ele>
        <time>2010-01-01T01:23:42Z</time>
      </trkpt>
      <trkpt lat="31.22408490" lon="34.51851980">
        <ele>117.00000</ele>
        <time>2010-01-01T01:23:50Z</time>
      </trkpt>
      <trkpt lat="31.22400990" lon="34.51862040">
        <ele>118.00000</ele>
        <time>2010-01-01T01:23:54Z</time>
      </trkpt>
      <trkpt lat="31.22393420" lon="34.51870050">
        <ele>118.00000</ele>
        <time>2010-01-01T01:23:58Z</time>
      </trkpt>
      <trkpt lat="31.22377660" lon="34.51883420">
        <ele>119.00000</ele>
        <time>2010-01-01T01:24:06Z</time>
      </trkpt>
      <trkpt lat="31.22367220" lon="34.51901320">
        <ele>119.00000</ele>
        <time>2010-01-01T01:24:14Z</time>
      </trkpt>
      <trkpt lat="31.22359790" lon="34.51908130">
        <ele>119.00000</ele>
        <time>2010-01-01T01:24:17Z</time>
      </trkpt>
      <trkpt lat="31.22357570" lon="34.51910630">
        <ele>119.00000</ele>
        <time>2010-01-01T01:24:19Z</time>
      </trkpt>
      <trkpt lat="31.22344260" lon="34.51931340">
        <ele>119.00000</ele>
        <time>2010-01-01T01:24:27Z</time>
      </trkpt>
      <trkpt lat="31.22326900" lon="34.51954000">
        <ele>119.00000</ele>
        <time>2010-01-01T01:24:38Z</time>
      </trkpt>
      <trkpt lat="31.22324230" lon="34.51957810">
        <ele>120.00000</ele>
        <time>2010-01-01T01:24:39Z</time>
      </trkpt>
      <trkpt lat="31.22311770" lon="34.51982310">
        <ele>120.00000</ele>
        <time>2010-01-01T01:24:49Z</time>
      </trkpt>
      <trkpt lat="31.22304690" lon="34.51991620">
        <ele>120.00000</ele>
        <time>2010-01-01T01:24:54Z</time>
      </trkpt>
      <trkpt lat="31.22291840" lon="34.52016150">
        <ele>119.00000</ele>
        <time>2010-01-01T01:25:03Z</time>
      </trkpt>
      <trkpt lat="31.22277650" lon="34.52033230">
        <ele>119.00000</ele>
        <time>2010-01-01T01:25:12Z</time>
      </trkpt>
      <trkpt lat="31.22261850" lon="34.52062860">
        <ele>118.00000</ele>
        <time>2010-01-01T01:25:23Z</time>
      </trkpt>
      <trkpt lat="31.22257870" lon="34.52070740">
        <ele>118.00000</ele>
        <time>2010-01-01T01:25:27Z</time>
      </trkpt>
      <trkpt lat="31.22247300" lon="34.52085640">
        <ele>117.00000</ele>
        <time>2010-01-01T01:25:33Z</time>
      </trkpt>
      <trkpt lat="31.22236190" lon="34.52111400">
        <ele>119.00000</ele>
        <time>2010-01-01T01:25:43Z</time>
      </trkpt>
      <trkpt lat="31.22226790" lon="34.52124300">
        <ele>120.00000</ele>
        <time>2010-01-01T01:25:49Z</time>
      </trkpt>
      <trkpt lat="31.22214970" lon="34.52147280">
        <ele>121.00000</ele>
        <time>2010-01-01T01:25:58Z</time>
      </trkpt>
      <trkpt lat="31.22208150" lon="34.52159150">
        <ele>120.00000</ele>
        <time>2010-01-01T01:26:03Z</time>
      </trkpt>
      <trkpt lat="31.22192800" lon="34.52182520">
        <ele>120.00000</ele>
        <time>2010-01-01T01:26:13Z</time>
      </trkpt>
      <trkpt lat="31.22178560" lon="34.52209120">
        <ele>120.00000</ele>
        <time>2010-01-01T01:26:24Z</time>
      </trkpt>
      <trkpt lat="31.22168830" lon="34.52232040">
        <ele>120.00000</ele>
        <time>2010-01-01T01:26:33Z</time>
      </trkpt>
      <trkpt lat="31.22158180" lon="34.52255200">
        <ele>121.00000</ele>
        <time>2010-01-01T01:26:42Z</time>
      </trkpt>
      <trkpt lat="31.22150260" lon="34.52274000">
        <ele>120.00000</ele>
        <time>2010-01-01T01:26:49Z</time>
      </trkpt>
      <trkpt lat="31.22154630" lon="34.52287670">
        <ele>119.00000</ele>
        <time>2010-01-01T01:26:54Z</time>
      </trkpt>
      <trkpt lat="31.22160220" lon="34.52299000">
        <ele>119.00000</ele>
        <time>2010-01-01T01:26:58Z</time>
      </trkpt>
      <trkpt lat="31.22160120" lon="34.52301150">
        <ele>119.00000</ele>
        <time>2010-01-01T01:26:59Z</time>
      </trkpt>
      <trkpt lat="31.22160480" lon="34.52301200">
        <ele>119.00000</ele>
        <time>2010-01-01T01:26:59Z</time>
      </trkpt>
      <trkpt lat="31.22161410" lon="34.52300640">
        <ele>119.00000</ele>
        <time>2010-01-01T01:27:00Z</time>
      </trkpt>
      <trkpt lat="31.22163530" lon="34.52299410">
        <ele>119.00000</ele>
        <time>2010-01-01T01:27:00Z</time>
      </trkpt>
      <trkpt lat="31.22168800" lon="34.52289800">
        <ele>120.00000</ele>
        <time>2010-01-01T01:27:04Z</time>
      </trkpt>
      <trkpt lat="31.22173290" lon="34.52287990">
        <ele>120.00000</ele>
        <time>2010-01-01T01:27:06Z</time>
      </trkpt>
      <trkpt lat="31.22190890" lon="34.52283890">
        <ele>122.00000</ele>
        <time>2010-01-01T01:27:13Z</time>
      </trkpt>
      <trkpt lat="31.22198960" lon="34.52283530">
        <ele>123.00000</ele>
        <time>2010-01-01T01:27:17Z</time>
      </trkpt>
      <trkpt lat="31.22201260" lon="34.52283740">
        <ele>123.00000</ele>
        <time>2010-01-01T01:27:18Z</time>
      </trkpt>
      <trkpt lat="31.22211280" lon="34.52283320">
        <ele>124.00000</ele>
        <time>2010-01-01T01:27:22Z</time>
      </trkpt>
      <trkpt lat="31.22217570" lon="34.52282800">
        <ele>125.00000</ele>
        <time>2010-01-01T01:27:24Z</time>
      </trkpt>
      <trkpt lat="31.22220110" lon="34.52282510">
        <ele>125.00000</ele>
        <time>2010-01-01T01:27:25Z</time>
      </trkpt>
      <trkpt lat="31.22220320" lon="34.52279370">
        <ele>125.00000</ele>
        <time>2010-01-01T01:27:26Z</time>
      </trkpt>
      <trkpt lat="31.22215600" lon="34.52278550">
        <ele>125.00000</ele>
        <time>2010-01-01T01:27:28Z</time>
      </trkpt>
      <trkpt lat="31.22216120" lon="34.52278820">
        <ele>125.00000</ele>
        <time>2010-01-01T01:27:28Z</time>
      </trkpt>
      <trkpt lat="31.22216680" lon="34.52279030">
        <ele>125.00000</ele>
        <time>2010-01-01T01:27:29Z</time>
      </trkpt>
      <trkpt lat="31.22228550" lon="34.52276600">
        <ele>126.00000</ele>
        <time>2010-01-01T01:27:33Z</time>
      </trkpt>
      <trkpt lat="31.22241960" lon="34.52274210">
        <ele>127.00000</ele>
        <time>2010-01-01T01:27:39Z</time>
      </trkpt>
      <trkpt lat="31.22253270" lon="34.52274040">
        <ele>128.00000</ele>
        <time>2010-01-01T01:27:43Z</time>
      </trkpt>
      <trkpt lat="31.22268730" lon="34.52268720">
        <ele>129.00000</ele>
        <time>2010-01-01T01:27:50Z</time>
      </trkpt>
      <trkpt lat="31.22289880" lon="34.52259370">
        <ele>130.00000</ele>
        <time>2010-01-01T01:27:59Z</time>
      </trkpt>
      <trkpt lat="31.22309720" lon="34.52252590">
        <ele>131.00000</ele>
        <time>2010-01-01T01:28:07Z</time>
      </trkpt>
      <trkpt lat="31.22345090" lon="34.52243340">
        <ele>132.00000</ele>
        <time>2010-01-01T01:28:22Z</time>
      </trkpt>
      <trkpt lat="31.22365410" lon="34.52240640">
        <ele>133.00000</ele>
        <time>2010-01-01T01:28:30Z</time>
      </trkpt>
      <trkpt lat="31.22369810" lon="34.52246890">
        <ele>133.00000</ele>
        <time>2010-01-01T01:28:33Z</time>
      </trkpt>
      <trkpt lat="31.22363700" lon="34.52257120">
        <ele>133.00000</ele>
        <time>2010-01-01T01:28:37Z</time>
      </trkpt>
      <trkpt lat="31.22358720" lon="34.52267880">
        <ele>132.00000</ele>
        <time>2010-01-01T01:28:41Z</time>
      </trkpt>
      <trkpt lat="31.22347700" lon="34.52279960">
        <ele>131.00000</ele>
        <time>2010-01-01T01:28:47Z</time>
      </trkpt>
      <trkpt lat="31.22342930" lon="34.52289070">
        <ele>131.00000</ele>
        <time>2010-01-01T01:28:51Z</time>
      </trkpt>
      <trkpt lat="31.22329820" lon="34.52309890">
        <ele>130.00000</ele>
        <time>2010-01-01T01:29:00Z</time>
      </trkpt>
      <trkpt lat="31.22315090" lon="34.52332280">
        <ele>128.00000</ele>
        <time>2010-01-01T01:29:09Z</time>
      </trkpt>
      <trkpt lat="31.22305830" lon="34.52342520">
        <ele>128.00000</ele>
        <time>2010-01-01T01:29:14Z</time>
      </trkpt>
      <trkpt lat="31.22290040" lon="34.52354390">
        <ele>127.00000</ele>
        <time>2010-01-01T01:29:22Z</time>
      </trkpt>
      <trkpt lat="31.22288170" lon="34.52367350">
        <ele>126.00000</ele>
        <time>2010-01-01T01:29:26Z</time>
      </trkpt>
      <trkpt lat="31.22285090" lon="34.52374550">
        <ele>125.00000</ele>
        <time>2010-01-01T01:29:29Z</time>
      </trkpt>
      <trkpt lat="31.22277670" lon="34.52388320">
        <ele>124.00000</ele>
        <time>2010-01-01T01:29:35Z</time>
      </trkpt>
      <trkpt lat="31.22275070" lon="34.52412180">
        <ele>123.00000</ele>
        <time>2010-01-01T01:29:43Z</time>
      </trkpt>
      <trkpt lat="31.22278170" lon="34.52424690">
        <ele>123.00000</ele>
        <time>2010-01-01T01:29:47Z</time>
      </trkpt>
      <trkpt lat="31.22282050" lon="34.52433790">
        <ele>123.00000</ele>
        <time>2010-01-01T01:29:51Z</time>
      </trkpt>
      <trkpt lat="31.22276000" lon="34.52434110">
        <ele>123.00000</ele>
        <time>2010-01-01T01:29:53Z</time>
      </trkpt>
      <trkpt lat="31.22268950" lon="34.52435250">
        <ele>122.00000</ele>
        <time>2010-01-01T01:29:56Z</time>
      </trkpt>
      <trkpt lat="31.22259930" lon="34.52436240">
        <ele>122.00000</ele>
        <time>2010-01-01T01:30:00Z</time>
      </trkpt>
      <trkpt lat="31.22247550" lon="34.52449020">
        <ele>121.00000</ele>
        <time>2010-01-01T01:30:06Z</time>
      </trkpt>
      <trkpt lat="31.22242210" lon="34.52461430">
        <ele>120.00000</ele>
        <time>2010-01-01T01:30:11Z</time>
      </trkpt>
      <trkpt lat="31.22242370" lon="34.52478500">
        <ele>120.00000</ele>
        <time>2010-01-01T01:30:17Z</time>
      </trkpt>
      <trkpt lat="31.22243910" lon="34.52482130">
        <ele>120.00000</ele>
        <time>2010-01-01T01:30:18Z</time>
      </trkpt>
      <trkpt lat="31.22254670" lon="34.52498650">
        <ele>120.00000</ele>
        <time>2010-01-01T01:30:26Z</time>
      </trkpt>
      <trkpt lat="31.22261700" lon="34.52505960">
        <ele>121.00000</ele>
        <time>2010-01-01T01:30:29Z</time>
      </trkpt>
      <trkpt lat="31.22256680" lon="34.52515960">
        <ele>121.00000</ele>
        <time>2010-01-01T01:30:33Z</time>
      </trkpt>
      <trkpt lat="31.22248270" lon="34.52520420">
        <ele>121.00000</ele>
        <time>2010-01-01T01:30:37Z</time>
      </trkpt>
      <trkpt lat="31.22236730" lon="34.52530200">
        <ele>121.00000</ele>
        <time>2010-01-01T01:30:43Z</time>
      </trkpt>
      <trkpt lat="31.22224610" lon="34.52547100">
        <ele>122.00000</ele>
        <time>2010-01-01T01:30:50Z</time>
      </trkpt>
      <trkpt lat="31.22212800" lon="34.52562910">
        <ele>122.00000</ele>
        <time>2010-01-01T01:30:57Z</time>
      </trkpt>
      <trkpt lat="31.22215580" lon="34.52579880">
        <ele>123.00000</ele>
        <time>2010-01-01T01:31:03Z</time>
      </trkpt>
      <trkpt lat="31.22227780" lon="34.52582300">
        <ele>124.00000</ele>
        <time>2010-01-01T01:31:08Z</time>
      </trkpt>
      <trkpt lat="31.22240350" lon="34.52581130">
        <ele>124.00000</ele>
        <time>2010-01-01T01:31:13Z</time>
      </trkpt>
      <trkpt lat="31.22244610" lon="34.52592330">
        <ele>125.00000</ele>
        <time>2010-01-01T01:31:18Z</time>
      </trkpt>
      <trkpt lat="31.22234980" lon="34.52602270">
        <ele>125.00000</ele>
        <time>2010-01-01T01:31:23Z</time>
      </trkpt>
      <trkpt lat="31.22218710" lon="34.52615270">
        <ele>125.00000</ele>
        <time>2010-01-01T01:31:31Z</time>
      </trkpt>
      <trkpt lat="31.22201350" lon="34.52614540">
        <ele>124.00000</ele>
        <time>2010-01-01T01:31:38Z</time>
      </trkpt>
      <trkpt lat="31.22193880" lon="34.52611260">
        <ele>123.00000</ele>
        <time>2010-01-01T01:31:41Z</time>
      </trkpt>
      <trkpt lat="31.22183690" lon="34.52617090">
        <ele>123.00000</ele>
        <time>2010-01-01T01:31:45Z</time>
      </trkpt>
      <trkpt lat="31.22180460" lon="34.52635420">
        <ele>124.00000</ele>
        <time>2010-01-01T01:31:52Z</time>
      </trkpt>
      <trkpt lat="31.22191600" lon="34.52642510">
        <ele>125.00000</ele>
        <time>2010-01-01T01:31:57Z</time>
      </trkpt>
      <trkpt lat="31.22201850" lon="34.52650010">
        <ele>126.00000</ele>
        <time>2010-01-01T01:32:02Z</time>
      </trkpt>
      <trkpt lat="31.22199640" lon="34.52658860">
        <ele>126.00000</ele>
        <time>2010-01-01T01:32:05Z</time>
      </trkpt>
      <trkpt lat="31.22188040" lon="34.52661830">
        <ele>126.00000</ele>
        <time>2010-01-01T01:32:09Z</time>
      </trkpt>
      <trkpt lat="31.22184410" lon="34.52661240">
        <ele>126.00000</ele>
        <time>2010-01-01T01:32:11Z</time>
      </trkpt>
      <trkpt lat="31.22172090" lon="34.52658000">
        <ele>125.00000</ele>
        <time>2010-01-01T01:32:16Z</time>
      </trkpt>
      <trkpt lat="31.22153010" lon="34.52647830">
        <ele>123.00000</ele>
        <time>2010-01-01T01:32:24Z</time>
      </trkpt>
      <trkpt lat="31.22141120" lon="34.52647490">
        <ele>122.00000</ele>
        <time>2010-01-01T01:32:29Z</time>
      </trkpt>
      <trkpt lat="31.22134890" lon="34.52659510">
        <ele>122.00000</ele>
        <time>2010-01-01T01:32:34Z</time>
      </trkpt>
      <trkpt lat="31.22134350" lon="34.52662730">
        <ele>123.00000</ele>
        <time>2010-01-01T01:32:35Z</time>
      </trkpt>
      <trkpt lat="31.22128410" lon="34.52673170">
        <ele>123.00000</ele>
        <time>2010-01-01T01:32:39Z</time>
      </trkpt>
      <trkpt lat="31.22120400" lon="34.52679030">
        <ele>122.00000</ele>
        <time>2010-01-01T01:32:43Z</time>
      </trkpt>
      <trkpt lat="31.22108730" lon="34.52686160">
        <ele>122.00000</ele>
        <time>2010-01-01T01:32:48Z</time>
      </trkpt>
      <trkpt lat="31.22102710" lon="34.52690910">
        <ele>122.00000</ele>
        <time>2010-01-01T01:32:51Z</time>
      </trkpt>
      <trkpt lat="31.22095570" lon="34.52709340">
        <ele>123.00000</ele>
        <time>2010-01-01T01:32:58Z</time>
      </trkpt>
      <trkpt lat="31.22087630" lon="34.52721980">
        <ele>123.00000</ele>
        <time>2010-01-01T01:33:04Z</time>
      </trkpt>
      <trkpt lat="31.22086970" lon="34.52734050">
        <ele>123.00000</ele>
        <time>2010-01-01T01:33:08Z</time>
      </trkpt>
      <trkpt lat="31.22088130" lon="34.52743240">
        <ele>124.00000</ele>
        <time>2010-01-01T01:33:11Z</time>
      </trkpt>
      <trkpt lat="31.22091070" lon="34.52759120">
        <ele>125.00000</ele>
        <time>2010-01-01T01:33:17Z</time>
      </trkpt>
      <trkpt lat="31.22086460" lon="34.52769050">
        <ele>125.00000</ele>
        <time>2010-01-01T01:33:20Z</time>
      </trkpt>
      <trkpt lat="31.22082860" lon="34.52776060">
        <ele>126.00000</ele>
        <time>2010-01-01T01:33:23Z</time>
      </trkpt>
      <trkpt lat="31.22078270" lon="34.52768710">
        <ele>125.00000</ele>
        <time>2010-01-01T01:33:26Z</time>
      </trkpt>
      <trkpt lat="31.22077270" lon="34.52764760">
        <ele>125.00000</ele>
        <time>2010-01-01T01:33:28Z</time>
      </trkpt>
      <trkpt lat="31.22075220" lon="34.52755140">
        <ele>124.00000</ele>
        <time>2010-01-01T01:33:31Z</time>
      </trkpt>
      <trkpt lat="31.22069100" lon="34.52741070">
        <ele>123.00000</ele>
        <time>2010-01-01T01:33:37Z</time>
      </trkpt>
      <trkpt lat="31.22055220" lon="34.52741770">
        <ele>122.00000</ele>
        <time>2010-01-01T01:33:42Z</time>
      </trkpt>
      <trkpt lat="31.22048180" lon="34.52745080">
        <ele>122.00000</ele>
        <time>2010-01-01T01:33:45Z</time>
      </trkpt>
      <trkpt lat="31.22041550" lon="34.52751480">
        <ele>122.00000</ele>
        <time>2010-01-01T01:33:49Z</time>
      </trkpt>
      <trkpt lat="31.22026320" lon="34.52760150">
        <ele>121.00000</ele>
        <time>2010-01-01T01:33:55Z</time>
      </trkpt>
      <trkpt lat="31.22020090" lon="34.52776520">
        <ele>122.00000</ele>
        <time>2010-01-01T01:34:01Z</time>
      </trkpt>
      <trkpt lat="31.22027590" lon="34.52805350">
        <ele>124.00000</ele>
        <time>2010-01-01T01:34:12Z</time>
      </trkpt>
      <trkpt lat="31.22033030" lon="34.52821740">
        <ele>126.00000</ele>
        <time>2010-01-01T01:34:18Z</time>
      </trkpt>
      <trkpt lat="31.22029270" lon="34.52844370">
        <ele>127.00000</ele>
        <time>2010-01-01T01:34:26Z</time>
      </trkpt>
      <trkpt lat="31.22030200" lon="34.52849160">
        <ele>127.00000</ele>
        <time>2010-01-01T01:34:27Z</time>
      </trkpt>
      <trkpt lat="31.22034920" lon="34.52865630">
        <ele>128.00000</ele>
        <time>2010-01-01T01:34:33Z</time>
      </trkpt>
      <trkpt lat="31.22042430" lon="34.52888880">
        <ele>129.00000</ele>
        <time>2010-01-01T01:34:42Z</time>
      </trkpt>
      <trkpt lat="31.22046210" lon="34.52896390">
        <ele>129.00000</ele>
        <time>2010-01-01T01:34:45Z</time>
      </trkpt>
      <trkpt lat="31.22048740" lon="34.52924880">
        <ele>130.00000</ele>
        <time>2010-01-01T01:34:55Z</time>
      </trkpt>
      <trkpt lat="31.22047710" lon="34.52929730">
        <ele>130.00000</ele>
        <time>2010-01-01T01:34:56Z</time>
      </trkpt>
      <trkpt lat="31.22041700" lon="34.52960960">
        <ele>129.00000</ele>
        <time>2010-01-01T01:35:07Z</time>
      </trkpt>
      <trkpt lat="31.22038020" lon="34.52987040">
        <ele>128.00000</ele>
        <time>2010-01-01T01:35:16Z</time>
      </trkpt>
      <trkpt lat="31.22036070" lon="34.52999630">
        <ele>128.00000</ele>
        <time>2010-01-01T01:35:21Z</time>
      </trkpt>
      <trkpt lat="31.22045550" lon="34.53011590">
        <ele>127.00000</ele>
        <time>2010-01-01T01:35:26Z</time>
      </trkpt>
      <trkpt lat="31.22051420" lon="34.53014920">
        <ele>127.00000</ele>
        <time>2010-01-01T01:35:29Z</time>
      </trkpt>
      <trkpt lat="31.22055510" lon="34.53022680">
        <ele>127.00000</ele>
        <time>2010-01-01T01:35:32Z</time>
      </trkpt>
      <trkpt lat="31.22055230" lon="34.53025730">
        <ele>127.00000</ele>
        <time>2010-01-01T01:35:33Z</time>
      </trkpt>
      <trkpt lat="31.22054080" lon="34.53044450">
        <ele>127.00000</ele>
        <time>2010-01-01T01:35:40Z</time>
      </trkpt>
      <trkpt lat="31.22061480" lon="34.53056250">
        <ele>127.00000</ele>
        <time>2010-01-01T01:35:45Z</time>
      </trkpt>
      <trkpt lat="31.22075930" lon="34.53064170">
        <ele>127.00000</ele>
        <time>2010-01-01T01:35:51Z</time>
      </trkpt>
      <trkpt lat="31.22079010" lon="34.53064930">
        <ele>127.00000</ele>
        <time>2010-01-01T01:35:52Z</time>
      </trkpt>
      <trkpt lat="31.22088920" lon="34.53081070">
        <ele>127.00000</ele>
        <time>2010-01-01T01:35:59Z</time>
      </trkpt>
      <trkpt lat="31.22091330" lon="34.53095660">
        <ele>128.00000</ele>
        <time>2010-01-01T01:36:04Z</time>
      </trkpt>
      <trkpt lat="31.22088640" lon="34.53122200">
        <ele>128.00000</ele>
        <time>2010-01-01T01:36:13Z</time>
      </trkpt>
      <trkpt lat="31.22097660" lon="34.53128550">
        <ele>129.00000</ele>
        <time>2010-01-01T01:36:17Z</time>
      </trkpt>
      <trkpt lat="31.22106310" lon="34.53124520">
        <ele>129.00000</ele>
        <time>2010-01-01T01:36:21Z</time>
      </trkpt>
      <trkpt lat="31.22111630" lon="34.53126830">
        <ele>130.00000</ele>
        <time>2010-01-01T01:36:23Z</time>
      </trkpt>
      <trkpt lat="31.22122610" lon="34.53142020">
        <ele>130.00000</ele>
        <time>2010-01-01T01:36:30Z</time>
      </trkpt>
      <trkpt lat="31.22133140" lon="34.53146750">
        <ele>131.00000</ele>
        <time>2010-01-01T01:36:35Z</time>
      </trkpt>
      <trkpt lat="31.22150170" lon="34.53152710">
        <ele>132.00000</ele>
        <time>2010-01-01T01:36:42Z</time>
      </trkpt>
      <trkpt lat="31.22162900" lon="34.53174660">
        <ele>133.00000</ele>
        <time>2010-01-01T01:36:51Z</time>
      </trkpt>
      <trkpt lat="31.22165560" lon="34.53187400">
        <ele>133.00000</ele>
        <time>2010-01-01T01:36:55Z</time>
      </trkpt>
      <trkpt lat="31.22168610" lon="34.53196160">
        <ele>133.00000</ele>
        <time>2010-01-01T01:36:59Z</time>
      </trkpt>
      <trkpt lat="31.22179430" lon="34.53210250">
        <ele>134.00000</ele>
        <time>2010-01-01T01:37:05Z</time>
      </trkpt>
      <trkpt lat="31.22196170" lon="34.53224710">
        <ele>135.00000</ele>
        <time>2010-01-01T01:37:13Z</time>
      </trkpt>
      <trkpt lat="31.22202790" lon="34.53239660">
        <ele>136.00000</ele>
        <time>2010-01-01T01:37:19Z</time>
      </trkpt>
      <trkpt lat="31.22202540" lon="34.53249060">
        <ele>136.00000</ele>
        <time>2010-01-01T01:37:22Z</time>
      </trkpt>
      <trkpt lat="31.22197920" lon="34.53259460">
        <ele>136.00000</ele>
        <time>2010-01-01T01:37:26Z</time>
      </trkpt>
      <trkpt lat="31.22195220" lon="34.53263430">
        <ele>136.00000</ele>
        <time>2010-01-01T01:37:28Z</time>
      </trkpt>
      <trkpt lat="31.22176000" lon="34.53285150">
        <ele>135.00000</ele>
        <time>2010-01-01T01:37:39Z</time>
      </trkpt>
      <trkpt lat="31.22173800" lon="34.53295520">
        <ele>135.00000</ele>
        <time>2010-01-01T01:37:43Z</time>
      </trkpt>
      <trkpt lat="31.22171160" lon="34.53309360">
        <ele>136.00000</ele>
        <time>2010-01-01T01:37:47Z</time>
      </trkpt>
      <trkpt lat="31.22168910" lon="34.53309690">
        <ele>136.00000</ele>
        <time>2010-01-01T01:37:48Z</time>
      </trkpt>
      <trkpt lat="31.22151990" lon="34.53309590">
        <ele>135.00000</ele>
        <time>2010-01-01T01:37:55Z</time>
      </trkpt>
      <trkpt lat="31.22140840" lon="34.53311560">
        <ele>134.00000</ele>
        <time>2010-01-01T01:38:00Z</time>
      </trkpt>
      <trkpt lat="31.22129960" lon="34.53312810">
        <ele>134.00000</ele>
        <time>2010-01-01T01:38:04Z</time>
      </trkpt>
      <trkpt lat="31.22115410" lon="34.53318490">
        <ele>134.00000</ele>
        <time>2010-01-01T01:38:10Z</time>
      </trkpt>
      <trkpt lat="31.22107280" lon="34.53324040">
        <ele>134.00000</ele>
        <time>2010-01-01T01:38:14Z</time>
      </trkpt>
      <trkpt lat="31.22105880" lon="34.53338180">
        <ele>134.00000</ele>
        <time>2010-01-01T01:38:19Z</time>
      </trkpt>
      <trkpt lat="31.22113270" lon="34.53355130">
        <ele>134.00000</ele>
        <time>2010-01-01T01:38:25Z</time>
      </trkpt>
      <trkpt lat="31.22115560" lon="34.53371760">
        <ele>134.00000</ele>
        <time>2010-01-01T01:38:31Z</time>
      </trkpt>
      <trkpt lat="31.22122440" lon="34.53390420">
        <ele>135.00000</ele>
        <time>2010-01-01T01:38:38Z</time>
      </trkpt>
      <trkpt lat="31.22125580" lon="34.53396480">
        <ele>135.00000</ele>
        <time>2010-01-01T01:38:40Z</time>
      </trkpt>
      <trkpt lat="31.22126950" lon="34.53413430">
        <ele>135.00000</ele>
        <time>2010-01-01T01:38:46Z</time>
      </trkpt>
      <trkpt lat="31.22123710" lon="34.53416250">
        <ele>135.00000</ele>
        <time>2010-01-01T01:38:48Z</time>
      </trkpt>
      <trkpt lat="31.22117620" lon="34.53427460">
        <ele>134.00000</ele>
        <time>2010-01-01T01:38:52Z</time>
      </trkpt>
      <trkpt lat="31.22111170" lon="34.53428070">
        <ele>134.00000</ele>
        <time>2010-01-01T01:38:55Z</time>
      </trkpt>
      <trkpt lat="31.22106250" lon="34.53434220">
        <ele>134.00000</ele>
        <time>2010-01-01T01:38:58Z</time>
      </trkpt>
      <trkpt lat="31.22102770" lon="34.53443830">
        <ele>134.00000</ele>
        <time>2010-01-01T01:39:01Z</time>
      </trkpt>
      <trkpt lat="31.22090940" lon="34.53453660">
        <ele>133.00000</ele>
        <time>2010-01-01T01:39:07Z</time>
      </trkpt>
      <trkpt lat="31.22079830" lon="34.53457140">
        <ele>133.00000</ele>
        <time>2010-01-01T01:39:12Z</time>
      </trkpt>
      <trkpt lat="31.22071750" lon="34.53455540">
        <ele>132.00000</ele>
        <time>2010-01-01T01:39:15Z</time>
      </trkpt>
      <trkpt lat="31.22069260" lon="34.53455200">
        <ele>132.00000</ele>
        <time>2010-01-01T01:39:16Z</time>
      </trkpt>
      <trkpt lat="31.22058010" lon="34.53454110">
        <ele>131.00000</ele>
        <time>2010-01-01T01:39:21Z</time>
      </trkpt>
      <trkpt lat="31.22049420" lon="34.53453920">
        <ele>131.00000</ele>
        <time>2010-01-01T01:39:24Z</time>
      </trkpt>
      <trkpt lat="31.22041440" lon="34.53450830">
        <ele>130.00000</ele>
        <time>2010-01-01T01:39:27Z</time>
      </trkpt>
      <trkpt lat="31.22030200" lon="34.53444860">
        <ele>129.00000</ele>
        <time>2010-01-01T01:39:32Z</time>
      </trkpt>
      <trkpt lat="31.22022220" lon="34.53442570">
        <ele>129.00000</ele>
        <time>2010-01-01T01:39:36Z</time>
      </trkpt>
      <trkpt lat="31.22020400" lon="34.53444440">
        <ele>129.00000</ele>
        <time>2010-01-01T01:39:37Z</time>
      </trkpt>
      <trkpt lat="31.22020570" lon="34.53446670">
        <ele>129.00000</ele>
        <time>2010-01-01T01:39:37Z</time>
      </trkpt>
      <trkpt lat="31.22021960" lon="34.53456370">
        <ele>129.00000</ele>
        <time>2010-01-01T01:39:41Z</time>
      </trkpt>
      <trkpt lat="31.22015960" lon="34.53464860">
        <ele>129.00000</ele>
        <time>2010-01-01T01:39:45Z</time>
      </trkpt>
      <trkpt lat="31.22004330" lon="34.53466150">
        <ele>129.00000</ele>
        <time>2010-01-01T01:39:49Z</time>
      </trkpt>
      <trkpt lat="31.21992190" lon="34.53483290">
        <ele>129.00000</ele>
        <time>2010-01-01T01:39:57Z</time>
      </trkpt>
      <trkpt lat="31.21992330" lon="34.53491620">
        <ele>129.00000</ele>
        <time>2010-01-01T01:40:00Z</time>
      </trkpt>
      <trkpt lat="31.21993270" lon="34.53500470">
        <ele>130.00000</ele>
        <time>2010-01-01T01:40:03Z</time>
      </trkpt>
      <trkpt lat="31.21987570" lon="34.53513480">
        <ele>130.00000</ele>
        <time>2010-01-01T01:40:08Z</time>
      </trkpt>
      <trkpt lat="31.21981990" lon="34.53526710">
        <ele>130.00000</ele>
        <time>2010-01-01T01:40:13Z</time>
      </trkpt>
      <trkpt lat="31.21975690" lon="34.53549240">
        <ele>130.00000</ele>
        <time>2010-01-01T01:40:21Z</time>
      </trkpt>
      <trkpt lat="31.21968240" lon="34.53564140">
        <ele>131.00000</ele>
        <time>2010-01-01T01:40:27Z</time>
      </trkpt>
      <trkpt lat="31.21962860" lon="34.53575500">
        <ele>131.00000</ele>
        <time>2010-01-01T01:40:31Z</time>
      </trkpt>
      <trkpt lat="31.21961410" lon="34.53576990">
        <ele>131.00000</ele>
        <time>2010-01-01T01:40:32Z</time>
      </trkpt>
      <trkpt lat="31.21949640" lon="34.53583720">
        <ele>131.00000</ele>
        <time>2010-01-01T01:40:37Z</time>
      </trkpt>
      <trkpt lat="31.21942100" lon="34.53583130">
        <ele>130.00000</ele>
        <time>2010-01-01T01:40:40Z</time>
      </trkpt>
      <trkpt lat="31.21933630" lon="34.53588190">
        <ele>130.00000</ele>
        <time>2010-01-01T01:40:44Z</time>
      </trkpt>
      <trkpt lat="31.21922080" lon="34.53593210">
        <ele>130.00000</ele>
        <time>2010-01-01T01:40:49Z</time>
      </trkpt>
      <trkpt lat="31.21919300" lon="34.53602620">
        <ele>131.00000</ele>
        <time>2010-01-01T01:40:53Z</time>
      </trkpt>
      <trkpt lat="31.21919860" lon="34.53605350">
        <ele>131.00000</ele>
        <time>2010-01-01T01:40:53Z</time>
      </trkpt>
      <trkpt lat="31.21919710" lon="34.53624400">
        <ele>133.00000</ele>
        <time>2010-01-01T01:41:00Z</time>
      </trkpt>
      <trkpt lat="31.21917590" lon="34.53639010">
        <ele>134.00000</ele>
        <time>2010-01-01T01:41:05Z</time>
      </trkpt>
      <trkpt lat="31.21916770" lon="34.53641170">
        <ele>134.00000</ele>
        <time>2010-01-01T01:41:06Z</time>
      </trkpt>
      <trkpt lat="31.21908980" lon="34.53646200">
        <ele>134.00000</ele>
        <time>2010-01-01T01:41:09Z</time>
      </trkpt>
      <trkpt lat="31.21907210" lon="34.53651870">
        <ele>134.00000</ele>
        <time>2010-01-01T01:41:11Z</time>
      </trkpt>
      <trkpt lat="31.21906760" lon="34.53659140">
        <ele>134.00000</ele>
        <time>2010-01-01T01:41:14Z</time>
      </trkpt>
      <trkpt lat="31.21908470" lon="34.53678110">
        <ele>136.00000</ele>
        <time>2010-01-01T01:41:21Z</time>
      </trkpt>
      <trkpt lat="31.21899250" lon="34.53690910">
        <ele>135.00000</ele>
        <time>2010-01-01T01:41:26Z</time>
      </trkpt>
      <trkpt lat="31.21887530" lon="34.53705050">
        <ele>135.00000</ele>
        <time>2010-01-01T01:41:33Z</time>
      </trkpt>
      <trkpt lat="31.21872390" lon="34.53726820">
        <ele>135.00000</ele>
        <time>2010-01-01T01:41:43Z</time>
      </trkpt>
      <trkpt lat="31.21868690" lon="34.53738250">
        <ele>135.00000</ele>
        <time>2010-01-01T01:41:47Z</time>
      </trkpt>
      <trkpt lat="31.21871170" lon="34.53746730">
        <ele>136.00000</ele>
        <time>2010-01-01T01:41:50Z</time>
      </trkpt>
      <trkpt lat="31.21872840" lon="34.53765640">
        <ele>136.00000</ele>
        <time>2010-01-01T01:41:56Z</time>
      </trkpt>
      <trkpt lat="31.21872980" lon="34.53782150">
        <ele>137.00000</ele>
        <time>2010-01-01T01:42:02Z</time>
      </trkpt>
      <trkpt lat="31.21865170" lon="34.53797160">
        <ele>137.00000</ele>
        <time>2010-01-01T01:42:08Z</time>
      </trkpt>
      <trkpt lat="31.21858230" lon="34.53810570">
        <ele>137.00000</ele>
        <time>2010-01-01T01:42:13Z</time>
      </trkpt>
      <trkpt lat="31.21851850" lon="34.53840400">
        <ele>137.00000</ele>
        <time>2010-01-01T01:42:24Z</time>
      </trkpt>
      <trkpt lat="31.21841390" lon="34.53852300">
        <ele>137.00000</ele>
        <time>2010-01-01T01:42:30Z</time>
      </trkpt>
      <trkpt lat="31.21829720" lon="34.53865070">
        <ele>137.00000</ele>
        <time>2010-01-01T01:42:36Z</time>
      </trkpt>
      <trkpt lat="31.21820190" lon="34.53871640">
        <ele>137.00000</ele>
        <time>2010-01-01T01:42:41Z</time>
      </trkpt>
      <trkpt lat="31.21821240" lon="34.53862920">
        <ele>137.00000</ele>
        <time>2010-01-01T01:42:44Z</time>
      </trkpt>
      <trkpt lat="31.21826300" lon="34.53851510">
        <ele>137.00000</ele>
        <time>2010-01-01T01:42:48Z</time>
      </trkpt>
      <trkpt lat="31.21821440" lon="34.53847810">
        <ele>136.00000</ele>
        <time>2010-01-01T01:42:50Z</time>
      </trkpt>
      <trkpt lat="31.21809530" lon="34.53845850">
        <ele>136.00000</ele>
        <time>2010-01-01T01:42:55Z</time>
      </trkpt>
      <trkpt lat="31.21792430" lon="34.53855520">
        <ele>135.00000</ele>
        <time>2010-01-01T01:43:03Z</time>
      </trkpt>
      <trkpt lat="31.21789150" lon="34.53858140">
        <ele>135.00000</ele>
        <time>2010-01-01T01:43:04Z</time>
      </trkpt>
      <trkpt lat="31.21779530" lon="34.53852730">
        <ele>134.00000</ele>
        <time>2010-01-01T01:43:09Z</time>
      </trkpt>
      <trkpt lat="31.21775690" lon="34.53843000">
        <ele>133.00000</ele>
        <time>2010-01-01T01:43:12Z</time>
      </trkpt>
      <trkpt lat="31.21770000" lon="34.53839220">
        <ele>133.00000</ele>
        <time>2010-01-01T01:43:15Z</time>
      </trkpt>
      <trkpt lat="31.21762730" lon="34.53834970">
        <ele>132.00000</ele>
        <time>2010-01-01T01:43:18Z</time>
      </trkpt>
      <trkpt lat="31.21760730" lon="34.53819530">
        <ele>131.00000</ele>
        <time>2010-01-01T01:43:23Z</time>
      </trkpt>
      <trkpt lat="31.21762320" lon="34.53807130">
        <ele>131.00000</ele>
        <time>2010-01-01T01:43:28Z</time>
      </trkpt>
      <trkpt lat="31.21766070" lon="34.53783250">
        <ele>131.00000</ele>
        <time>2010-01-01T01:43:36Z</time>
      </trkpt>
      <trkpt lat="31.21769690" lon="34.53745490">
        <ele>130.00000</ele>
        <time>2010-01-01T01:43:49Z</time>
      </trkpt>
      <trkpt lat="31.21763120" lon="34.53741620">
        <ele>129.00000</ele>
        <time>2010-01-01T01:43:52Z</time>
      </trkpt>
      <trkpt lat="31.21743020" lon="34.53733640">
        <ele>128.00000</ele>
        <time>2010-01-01T01:44:01Z</time>
      </trkpt>
      <trkpt lat="31.21724900" lon="34.53726840">
        <ele>128.00000</ele>
        <time>2010-01-01T01:44:08Z</time>
      </trkpt>
      <trkpt lat="31.21706960" lon="34.53718200">
        <ele>127.00000</ele>
        <time>2010-01-01T01:44:16Z</time>
      </trkpt>
      <trkpt lat="31.21691110" lon="34.53708770">
        <ele>127.00000</ele>
        <time>2010-01-01T01:44:23Z</time>
      </trkpt>
      <trkpt lat="31.21688060" lon="34.53706540">
        <ele>127.00000</ele>
        <time>2010-01-01T01:44:24Z</time>
      </trkpt>
      <trkpt lat="31.21664670" lon="34.53689140">
        <ele>127.00000</ele>
        <time>2010-01-01T01:44:36Z</time>
      </trkpt>
      <trkpt lat="31.21654860" lon="34.53677340">
        <ele>126.00000</ele>
        <time>2010-01-01T01:44:41Z</time>
      </trkpt>
      <trkpt lat="31.21650080" lon="34.53661080">
        <ele>126.00000</ele>
        <time>2010-01-01T01:44:47Z</time>
      </trkpt>
      <trkpt lat="31.21652110" lon="34.53639990">
        <ele>125.00000</ele>
        <time>2010-01-01T01:44:54Z</time>
      </trkpt>
      <trkpt lat="31.21655320" lon="34.53609120">
        <ele>125.00000</ele>
        <time>2010-01-01T01:45:05Z</time>
      </trkpt>
      <trkpt lat="31.21661770" lon="34.53589340">
        <ele>124.00000</ele>
        <time>2010-01-01T01:45:12Z</time>
      </trkpt>
      <trkpt lat="31.21668220" lon="34.53573130">
        <ele>124.00000</ele>
        <time>2010-01-01T01:45:18Z</time>
      </trkpt>
      <trkpt lat="31.21658210" lon="34.53565180">
        <ele>124.00000</ele>
        <time>2010-01-01T01:45:23Z</time>
      </trkpt>
      <trkpt lat="31.21654900" lon="34.53566020">
        <ele>124.00000</ele>
        <time>2010-01-01T01:45:25Z</time>
      </trkpt>
      <trkpt lat="31.21629120" lon="34.53574660">
        <ele>124.00000</ele>
        <time>2010-01-01T01:45:35Z</time>
      </trkpt>
      <trkpt lat="31.21601700" lon="34.53583430">
        <ele>124.00000</ele>
        <time>2010-01-01T01:45:47Z</time>
      </trkpt>
      <trkpt lat="31.21601800" lon="34.53583360">
        <ele>124.00000</ele>
        <time>2010-01-01T01:45:47Z</time>
      </trkpt>
      <trkpt lat="31.21641290" lon="34.53556860">
        <ele>124.00000</ele>
        <time>2010-01-01T01:46:05Z</time>
      </trkpt>
      <trkpt lat="31.21643610" lon="34.53543900">
        <ele>124.00000</ele>
        <time>2010-01-01T01:46:10Z</time>
      </trkpt>
      <trkpt lat="31.21640930" lon="34.53527130">
        <ele>124.00000</ele>
        <time>2010-01-01T01:46:15Z</time>
      </trkpt>
      <trkpt lat="31.21611010" lon="34.53486340">
        <ele>125.00000</ele>
        <time>2010-01-01T01:46:34Z</time>
      </trkpt>
      <trkpt lat="31.21602950" lon="34.53476150">
        <ele>125.00000</ele>
        <time>2010-01-01T01:46:38Z</time>
      </trkpt>
      <trkpt lat="31.21596630" lon="34.53465520">
        <ele>125.00000</ele>
        <time>2010-01-01T01:46:43Z</time>
      </trkpt>
      <trkpt lat="31.21588030" lon="34.53456510">
        <ele>126.00000</ele>
        <time>2010-01-01T01:46:48Z</time>
      </trkpt>
      <trkpt lat="31.21576730" lon="34.53445980">
        <ele>127.00000</ele>
        <time>2010-01-01T01:46:53Z</time>
      </trkpt>
      <trkpt lat="31.21569990" lon="34.53434320">
        <ele>127.00000</ele>
        <time>2010-01-01T01:46:58Z</time>
      </trkpt>
      <trkpt lat="31.21560790" lon="34.53428270">
        <ele>128.00000</ele>
        <time>2010-01-01T01:47:02Z</time>
      </trkpt>
      <trkpt lat="31.21549690" lon="34.53420250">
        <ele>129.00000</ele>
        <time>2010-01-01T01:47:08Z</time>
      </trkpt>
      <trkpt lat="31.21543690" lon="34.53415940">
        <ele>129.00000</ele>
        <time>2010-01-01T01:47:10Z</time>
      </trkpt>
      <trkpt lat="31.21529640" lon="34.53400140">
        <ele>131.00000</ele>
        <time>2010-01-01T01:47:18Z</time>
      </trkpt>
      <trkpt lat="31.21523590" lon="34.53392730">
        <ele>131.00000</ele>
        <time>2010-01-01T01:47:22Z</time>
      </trkpt>
      <trkpt lat="31.21524830" lon="34.53377720">
        <ele>132.00000</ele>
        <time>2010-01-01T01:47:27Z</time>
      </trkpt>
      <trkpt lat="31.21520260" lon="34.53366460">
        <ele>132.00000</ele>
        <time>2010-01-01T01:47:31Z</time>
      </trkpt>
      <trkpt lat="31.21499630" lon="34.53346230">
        <ele>135.00000</ele>
        <time>2010-01-01T01:47:42Z</time>
      </trkpt>
      <trkpt lat="31.21489440" lon="34.53333480">
        <ele>135.00000</ele>
        <time>2010-01-01T01:47:48Z</time>
      </trkpt>
      <trkpt lat="31.21491150" lon="34.53315210">
        <ele>135.00000</ele>
        <time>2010-01-01T01:47:54Z</time>
      </trkpt>
      <trkpt lat="31.21491190" lon="34.53292190">
        <ele>135.00000</ele>
        <time>2010-01-01T01:48:02Z</time>
      </trkpt>
      <trkpt lat="31.21494730" lon="34.53264900">
        <ele>134.00000</ele>
        <time>2010-01-01T01:48:12Z</time>
      </trkpt>
      <trkpt lat="31.21505250" lon="34.53243620">
        <ele>134.00000</ele>
        <time>2010-01-01T01:48:20Z</time>
      </trkpt>
      <trkpt lat="31.21512450" lon="34.53229930">
        <ele>133.00000</ele>
        <time>2010-01-01T01:48:25Z</time>
      </trkpt>
      <trkpt lat="31.21519550" lon="34.53207870">
        <ele>133.00000</ele>
        <time>2010-01-01T01:48:34Z</time>
      </trkpt>
      <trkpt lat="31.21514210" lon="34.53194690">
        <ele>133.00000</ele>
        <time>2010-01-01T01:48:39Z</time>
      </trkpt>
      <trkpt lat="31.21520780" lon="34.53174820">
        <ele>132.00000</ele>
        <time>2010-01-01T01:48:46Z</time>
      </trkpt>
      <trkpt lat="31.21527240" lon="34.53155290">
        <ele>131.00000</ele>
        <time>2010-01-01T01:48:53Z</time>
      </trkpt>
      <trkpt lat="31.21524820" lon="34.53134130">
        <ele>131.00000</ele>
        <time>2010-01-01T01:49:00Z</time>
      </trkpt>
      <trkpt lat="31.21522820" lon="34.53125560">
        <ele>130.00000</ele>
        <time>2010-01-01T01:49:03Z</time>
      </trkpt>
      <trkpt lat="31.21522270" lon="34.53112040">
        <ele>130.00000</ele>
        <time>2010-01-01T01:49:08Z</time>
      </trkpt>
      <trkpt lat="31.21521620" lon="34.53109900">
        <ele>130.00000</ele>
        <time>2010-01-01T01:49:09Z</time>
      </trkpt>
      <trkpt lat="31.21519640" lon="34.53105610">
        <ele>130.00000</ele>
        <time>2010-01-01T01:49:10Z</time>
      </trkpt>
      <trkpt lat="31.21519340" lon="34.53105640">
        <ele>130.00000</ele>
        <time>2010-01-01T01:49:11Z</time>
      </trkpt>
      <trkpt lat="31.21519130" lon="34.53105900">
        <ele>130.00000</ele>
        <time>2010-01-01T01:49:11Z</time>
      </trkpt>
      <trkpt lat="31.21516680" lon="34.53098100">
        <ele>130.00000</ele>
        <time>2010-01-01T01:49:13Z</time>
      </trkpt>
      <trkpt lat="31.21511450" lon="34.53084580">
        <ele>129.00000</ele>
        <time>2010-01-01T01:49:19Z</time>
      </trkpt>
      <trkpt lat="31.21504930" lon="34.53071590">
        <ele>129.00000</ele>
        <time>2010-01-01T01:49:24Z</time>
      </trkpt>
      <trkpt lat="31.21500900" lon="34.53063560">
        <ele>129.00000</ele>
        <time>2010-01-01T01:49:27Z</time>
      </trkpt>
      <trkpt lat="31.21496770" lon="34.53054790">
        <ele>129.00000</ele>
        <time>2010-01-01T01:49:30Z</time>
      </trkpt>
      <trkpt lat="31.21492260" lon="34.53038850">
        <ele>129.00000</ele>
        <time>2010-01-01T01:49:36Z</time>
      </trkpt>
      <trkpt lat="31.21492160" lon="34.53034210">
        <ele>129.00000</ele>
        <time>2010-01-01T01:49:38Z</time>
      </trkpt>
      <trkpt lat="31.21493180" lon="34.53029110">
        <ele>129.00000</ele>
        <time>2010-01-01T01:49:39Z</time>
      </trkpt>
      <trkpt lat="31.21493610" lon="34.53026490">
        <ele>129.00000</ele>
        <time>2010-01-01T01:49:40Z</time>
      </trkpt>
      <trkpt lat="31.21493730" lon="34.53025460">
        <ele>129.00000</ele>
        <time>2010-01-01T01:49:41Z</time>
      </trkpt>
      <trkpt lat="31.21493780" lon="34.53024760">
        <ele>129.00000</ele>
        <time>2010-01-01T01:49:41Z</time>
      </trkpt>
      <trkpt lat="31.21494710" lon="34.53023200">
        <ele>129.00000</ele>
        <time>2010-01-01T01:49:42Z</time>
      </trkpt>
      <trkpt lat="31.21495360" lon="34.53022580">
        <ele>129.00000</ele>
        <time>2010-01-01T01:49:42Z</time>
      </trkpt>
      <trkpt lat="31.21502590" lon="34.53006470">
        <ele>128.00000</ele>
        <time>2010-01-01T01:49:48Z</time>
      </trkpt>
      <trkpt lat="31.21506390" lon="34.52991700">
        <ele>128.00000</ele>
        <time>2010-01-01T01:49:53Z</time>
      </trkpt>
      <trkpt lat="31.21506590" lon="34.52980970">
        <ele>128.00000</ele>
        <time>2010-01-01T01:49:57Z</time>
      </trkpt>
      <trkpt lat="31.21508360" lon="34.52975050">
        <ele>128.00000</ele>
        <time>2010-01-01T01:49:59Z</time>
      </trkpt>
      <trkpt lat="31.21510670" lon="34.52965700">
        <ele>128.00000</ele>
        <time>2010-01-01T01:50:03Z</time>
      </trkpt>
      <trkpt lat="31.21517870" lon="34.52943120">
        <ele>127.00000</ele>
        <time>2010-01-01T01:50:11Z</time>
      </trkpt>
      <trkpt lat="31.21520300" lon="34.52928140">
        <ele>127.00000</ele>
        <time>2010-01-01T01:50:16Z</time>
      </trkpt>
      <trkpt lat="31.21521450" lon="34.52920880">
        <ele>127.00000</ele>
        <time>2010-01-01T01:50:19Z</time>
      </trkpt>
      <trkpt lat="31.21521570" lon="34.52919180">
        <ele>127.00000</ele>
        <time>2010-01-01T01:50:19Z</time>
      </trkpt>
      <trkpt lat="31.21525770" lon="34.52909940">
        <ele>127.00000</ele>
        <time>2010-01-01T01:50:23Z</time>
      </trkpt>
      <trkpt lat="31.21526890" lon="34.52907840">
        <ele>127.00000</ele>
        <time>2010-01-01T01:50:24Z</time>
      </trkpt>
      <trkpt lat="31.21532110" lon="34.52898770">
        <ele>127.00000</ele>
        <time>2010-01-01T01:50:27Z</time>
      </trkpt>
      <trkpt lat="31.21536150" lon="34.52889100">
        <ele>128.00000</ele>
        <time>2010-01-01T01:50:31Z</time>
      </trkpt>
      <trkpt lat="31.21542340" lon="34.52884380">
        <ele>128.00000</ele>
        <time>2010-01-01T01:50:34Z</time>
      </trkpt>
      <trkpt lat="31.21553310" lon="34.52879710">
        <ele>128.00000</ele>
        <time>2010-01-01T01:50:39Z</time>
      </trkpt>
      <trkpt lat="31.21557880" lon="34.52875840">
        <ele>128.00000</ele>
        <time>2010-01-01T01:50:41Z</time>
      </trkpt>
      <trkpt lat="31.21561430" lon="34.52875870">
        <ele>127.00000</ele>
        <time>2010-01-01T01:50:42Z</time>
      </trkpt>
      <trkpt lat="31.21562330" lon="34.52876890">
        <ele>127.00000</ele>
        <time>2010-01-01T01:50:43Z</time>
      </trkpt>
      <trkpt lat="31.21562530" lon="34.52877430">
        <ele>127.00000</ele>
        <time>2010-01-01T01:50:43Z</time>
      </trkpt>
      <trkpt lat="31.21563100" lon="34.52877670">
        <ele>127.00000</ele>
        <time>2010-01-01T01:50:43Z</time>
      </trkpt>
      <trkpt lat="31.21564370" lon="34.52878400">
        <ele>127.00000</ele>
        <time>2010-01-01T01:50:44Z</time>
      </trkpt>
      <trkpt lat="31.21565300" lon="34.52878050">
        <ele>127.00000</ele>
        <time>2010-01-01T01:50:44Z</time>
      </trkpt>
      <trkpt lat="31.21567510" lon="34.52874010">
        <ele>127.00000</ele>
        <time>2010-01-01T01:50:46Z</time>
      </trkpt>
      <trkpt lat="31.21567510" lon="34.52869720">
        <ele>128.00000</ele>
        <time>2010-01-01T01:50:47Z</time>
      </trkpt>
      <trkpt lat="31.21562880" lon="34.52861890">
        <ele>129.00000</ele>
        <time>2010-01-01T01:50:51Z</time>
      </trkpt>
      <trkpt lat="31.21560780" lon="34.52852450">
        <ele>130.00000</ele>
        <time>2010-01-01T01:50:54Z</time>
      </trkpt>
      <trkpt lat="31.21558180" lon="34.52833530">
        <ele>131.00000</ele>
        <time>2010-01-01T01:51:01Z</time>
      </trkpt>
      <trkpt lat="31.21555860" lon="34.52829460">
        <ele>131.00000</ele>
        <time>2010-01-01T01:51:02Z</time>
      </trkpt>
      <trkpt lat="31.21552700" lon="34.52828840">
        <ele>132.00000</ele>
        <time>2010-01-01T01:51:04Z</time>
      </trkpt>
      <trkpt lat="31.21552400" lon="34.52829570">
        <ele>132.00000</ele>
        <time>2010-01-01T01:51:04Z</time>
      </trkpt>
      <trkpt lat="31.21552380" lon="34.52830010">
        <ele>132.00000</ele>
        <time>2010-01-01T01:51:04Z</time>
      </trkpt>
      <trkpt lat="31.21552370" lon="34.52830090">
        <ele>132.00000</ele>
        <time>2010-01-01T01:51:04Z</time>
      </trkpt>
      <trkpt lat="31.21552440" lon="34.52830370">
        <ele>131.00000</ele>
        <time>2010-01-01T01:51:04Z</time>
      </trkpt>
      <trkpt lat="31.21552450" lon="34.52830430">
        <ele>131.00000</ele>
        <time>2010-01-01T01:51:04Z</time>
      </trkpt>
      <trkpt lat="31.21552240" lon="34.52830710">
        <ele>131.00000</ele>
        <time>2010-01-01T01:51:04Z</time>
      </trkpt>
      <trkpt lat="31.21551910" lon="34.52831070">
        <ele>131.00000</ele>
        <time>2010-01-01T01:51:04Z</time>
      </trkpt>
      <trkpt lat="31.21551520" lon="34.52831160">
        <ele>131.00000</ele>
        <time>2010-01-01T01:51:05Z</time>
      </trkpt>
      <trkpt lat="31.21551600" lon="34.52831160">
        <ele>131.00000</ele>
        <time>2010-01-01T01:51:05Z</time>
      </trkpt>
      <trkpt lat="31.21551670" lon="34.52830370">
        <ele>131.00000</ele>
        <time>2010-01-01T01:51:05Z</time>
      </trkpt>
      <trkpt lat="31.21555640" lon="34.52817950">
        <ele>132.00000</ele>
        <time>2010-01-01T01:51:09Z</time>
      </trkpt>
      <trkpt lat="31.21562700" lon="34.52804280">
        <ele>132.00000</ele>
        <time>2010-01-01T01:51:15Z</time>
      </trkpt>
      <trkpt lat="31.21576480" lon="34.52784630">
        <ele>133.00000</ele>
        <time>2010-01-01T01:51:24Z</time>
      </trkpt>
      <trkpt lat="31.21600130" lon="34.52754650">
        <ele>133.00000</ele>
        <time>2010-01-01T01:51:37Z</time>
      </trkpt>
      <trkpt lat="31.21611010" lon="34.52740880">
        <ele>132.00000</ele>
        <time>2010-01-01T01:51:44Z</time>
      </trkpt>
      <trkpt lat="31.21613730" lon="34.52737440">
        <ele>132.00000</ele>
        <time>2010-01-01T01:51:45Z</time>
      </trkpt>
      <trkpt lat="31.21616400" lon="34.52733850">
        <ele>132.00000</ele>
        <time>2010-01-01T01:51:47Z</time>
      </trkpt>
      <trkpt lat="31.21624460" lon="34.52723310">
        <ele>132.00000</ele>
        <time>2010-01-01T01:51:52Z</time>
      </trkpt>
      <trkpt lat="31.21627180" lon="34.52719660">
        <ele>133.00000</ele>
        <time>2010-01-01T01:51:54Z</time>
      </trkpt>
      <trkpt lat="31.21647070" lon="34.52691050">
        <ele>134.00000</ele>
        <time>2010-01-01T01:52:06Z</time>
      </trkpt>
      <trkpt lat="31.21663600" lon="34.52667030">
        <ele>135.00000</ele>
        <time>2010-01-01T01:52:17Z</time>
      </trkpt>
      <trkpt lat="31.21666250" lon="34.52663350">
        <ele>135.00000</ele>
        <time>2010-01-01T01:52:18Z</time>
      </trkpt>
      <trkpt lat="31.21679850" lon="34.52645210">
        <ele>136.00000</ele>
        <time>2010-01-01T01:52:27Z</time>
      </trkpt>
      <trkpt lat="31.21687550" lon="34.52640040">
        <ele>136.00000</ele>
        <time>2010-01-01T01:52:30Z</time>
      </trkpt>
      <trkpt lat="31.21695490" lon="34.52647470">
        <ele>136.00000</ele>
        <time>2010-01-01T01:52:34Z</time>
      </trkpt>
      <trkpt lat="31.21698360" lon="34.52652460">
        <ele>136.00000</ele>
        <time>2010-01-01T01:52:36Z</time>
      </trkpt>
      <trkpt lat="31.21697810" lon="34.52653130">
        <ele>136.00000</ele>
        <time>2010-01-01T01:52:37Z</time>
      </trkpt>
      <trkpt lat="31.21697860" lon="34.52653370">
        <ele>136.00000</ele>
        <time>2010-01-01T01:52:37Z</time>
      </trkpt>
      <trkpt lat="31.21697720" lon="34.52653890">
        <ele>136.00000</ele>
        <time>2010-01-01T01:52:37Z</time>
      </trkpt>
      <trkpt lat="31.21697630" lon="34.52653970">
        <ele>136.00000</ele>
        <time>2010-01-01T01:52:37Z</time>
      </trkpt>
      <trkpt lat="31.21697590" lon="34.52654010">
        <ele>136.00000</ele>
        <time>2010-01-01T01:52:37Z</time>
      </trkpt>
      <trkpt lat="31.21697490" lon="34.52654120">
        <ele>136.00000</ele>
        <time>2010-01-01T01:52:37Z</time>
      </trkpt>
      <trkpt lat="31.21697430" lon="34.52654180">
        <ele>136.00000</ele>
        <time>2010-01-01T01:52:37Z</time>
      </trkpt>
      <trkpt lat="31.21697170" lon="34.52654480">
        <ele>136.00000</ele>
        <time>2010-01-01T01:52:37Z</time>
      </trkpt>
      <trkpt lat="31.21697120" lon="34.52654510">
        <ele>136.00000</ele>
        <time>2010-01-01T01:52:37Z</time>
      </trkpt>
      <trkpt lat="31.21697110" lon="34.52654530">
        <ele>136.00000</ele>
        <time>2010-01-01T01:52:37Z</time>
      </trkpt>
      <trkpt lat="31.21697020" lon="34.52654690">
        <ele>136.00000</ele>
        <time>2010-01-01T01:52:37Z</time>
      </trkpt>
      <trkpt lat="31.21696960" lon="34.52654830">
        <ele>136.00000</ele>
        <time>2010-01-01T01:52:37Z</time>
      </trkpt>
      <trkpt lat="31.21697200" lon="34.52654480">
        <ele>136.00000</ele>
        <time>2010-01-01T01:52:38Z</time>
      </trkpt>
      <trkpt lat="31.21697260" lon="34.52654420">
        <ele>136.00000</ele>
        <time>2010-01-01T01:52:38Z</time>
      </trkpt>
      <trkpt lat="31.21697280" lon="34.52654430">
        <ele>136.00000</ele>
        <time>2010-01-01T01:52:38Z</time>
      </trkpt>
      <trkpt lat="31.21697290" lon="34.52654510">
        <ele>136.00000</ele>
        <time>2010-01-01T01:52:38Z</time>
      </trkpt>
      <trkpt lat="31.21697280" lon="34.52654530">
        <ele>136.00000</ele>
        <time>2010-01-01T01:52:38Z</time>
      </trkpt>
      <trkpt lat="31.21697440" lon="34.52654580">
        <ele>136.00000</ele>
        <time>2010-01-01T01:52:38Z</time>
      </trkpt>
      <trkpt lat="31.21701330" lon="34.52655010">
        <ele>136.00000</ele>
        <time>2010-01-01T01:52:39Z</time>
      </trkpt>
      <trkpt lat="31.21702310" lon="34.52656480">
        <ele>136.00000</ele>
        <time>2010-01-01T01:52:40Z</time>
      </trkpt>
      <trkpt lat="31.21707030" lon="34.52670800">
        <ele>136.00000</ele>
        <time>2010-01-01T01:52:45Z</time>
      </trkpt>
      <trkpt lat="31.21716390" lon="34.52705240">
        <ele>133.00000</ele>
        <time>2010-01-01T01:52:58Z</time>
      </trkpt>
      <trkpt lat="31.21720700" lon="34.52727200">
        <ele>131.00000</ele>
        <time>2010-01-01T01:53:05Z</time>
      </trkpt>
      <trkpt lat="31.21726330" lon="34.52751380">
        <ele>129.00000</ele>
        <time>2010-01-01T01:53:14Z</time>
      </trkpt>
      <trkpt lat="31.21744650" lon="34.52774710">
        <ele>127.00000</ele>
        <time>2010-01-01T01:53:25Z</time>
      </trkpt>
      <trkpt lat="31.21766790" lon="34.52778450">
        <ele>126.00000</ele>
        <time>2010-01-01T01:53:34Z</time>
      </trkpt>
      <trkpt lat="31.21773490" lon="34.52776580">
        <ele>126.00000</ele>
        <time>2010-01-01T01:53:36Z</time>
      </trkpt>
      <trkpt lat="31.21808910" lon="34.52760880">
        <ele>126.00000</ele>
        <time>2010-01-01T01:53:52Z</time>
      </trkpt>
      <trkpt lat="31.21855420" lon="34.52728490">
        <ele>126.00000</ele>
        <time>2010-01-01T01:54:13Z</time>
      </trkpt>
      <trkpt lat="31.21890870" lon="34.52705820">
        <ele>125.00000</ele>
        <time>2010-01-01T01:54:29Z</time>
      </trkpt>
      <trkpt lat="31.21911250" lon="34.52696220">
        <ele>123.00000</ele>
        <time>2010-01-01T01:54:38Z</time>
      </trkpt>
      <trkpt lat="31.21935200" lon="34.52689840">
        <ele>123.00000</ele>
        <time>2010-01-01T01:54:48Z</time>
      </trkpt>
      <trkpt lat="31.21962240" lon="34.52683760">
        <ele>122.00000</ele>
        <time>2010-01-01T01:54:59Z</time>
      </trkpt>
      <trkpt lat="31.21979890" lon="34.52676940">
        <ele>121.00000</ele>
        <time>2010-01-01T01:55:06Z</time>
      </trkpt>
      <trkpt lat="31.22017150" lon="34.52652610">
        <ele>120.00000</ele>
        <time>2010-01-01T01:55:24Z</time>
      </trkpt>
      <trkpt lat="31.22051700" lon="34.52621680">
        <ele>120.00000</ele>
        <time>2010-01-01T01:55:41Z</time>
      </trkpt>
      <trkpt lat="31.22086490" lon="34.52589650">
        <ele>120.00000</ele>
        <time>2010-01-01T01:55:59Z</time>
      </trkpt>
      <trkpt lat="31.22117410" lon="34.52561090">
        <ele>120.00000</ele>
        <time>2010-01-01T01:56:14Z</time>
      </trkpt>
      <trkpt lat="31.22143130" lon="34.52533720">
        <ele>119.00000</ele>
        <time>2010-01-01T01:56:28Z</time>
      </trkpt>
      <trkpt lat="31.22162190" lon="34.52496100">
        <ele>117.00000</ele>
        <time>2010-01-01T01:56:43Z</time>
      </trkpt>
      <trkpt lat="31.22169640" lon="34.52461950">
        <ele>118.00000</ele>
        <time>2010-01-01T01:56:55Z</time>
      </trkpt>
      <trkpt lat="31.22171190" lon="34.52441240">
        <ele>119.00000</ele>
        <time>2010-01-01T01:57:03Z</time>
      </trkpt>
      <trkpt lat="31.22163540" lon="34.52407470">
        <ele>119.00000</ele>
        <time>2010-01-01T01:57:14Z</time>
      </trkpt>
      <trkpt lat="31.22144350" lon="34.52389030">
        <ele>119.00000</ele>
        <time>2010-01-01T01:57:24Z</time>
      </trkpt>
      <trkpt lat="31.22138420" lon="34.52386670">
        <ele>120.00000</ele>
        <time>2010-01-01T01:57:27Z</time>
      </trkpt>
      <trkpt lat="31.22108420" lon="34.52377440">
        <ele>120.00000</ele>
        <time>2010-01-01T01:57:39Z</time>
      </trkpt>
      <trkpt lat="31.22075890" lon="34.52355900">
        <ele>120.00000</ele>
        <time>2010-01-01T01:57:54Z</time>
      </trkpt>
      <trkpt lat="31.22041010" lon="34.52330250">
        <ele>121.00000</ele>
        <time>2010-01-01T01:58:11Z</time>
      </trkpt>
      <trkpt lat="31.22032010" lon="34.52320210">
        <ele>121.00000</ele>
        <time>2010-01-01T01:58:16Z</time>
      </trkpt>
      <trkpt lat="31.22023420" lon="34.52313370">
        <ele>122.00000</ele>
        <time>2010-01-01T01:58:20Z</time>
      </trkpt>
      <trkpt lat="31.22023160" lon="34.52293370">
        <ele>122.00000</ele>
        <time>2010-01-01T01:58:27Z</time>
      </trkpt>
      <trkpt lat="31.22032170" lon="34.52276480">
        <ele>122.00000</ele>
        <time>2010-01-01T01:58:34Z</time>
      </trkpt>
      <trkpt lat="31.22049420" lon="34.52248230">
        <ele>121.00000</ele>
        <time>2010-01-01T01:58:46Z</time>
      </trkpt>
      <trkpt lat="31.22066410" lon="34.52221220">
        <ele>123.00000</ele>
        <time>2010-01-01T01:58:57Z</time>
      </trkpt>
      <trkpt lat="31.22079930" lon="34.52197230">
        <ele>124.00000</ele>
        <time>2010-01-01T01:59:07Z</time>
      </trkpt>
      <trkpt lat="31.22087370" lon="34.52184160">
        <ele>125.00000</ele>
        <time>2010-01-01T01:59:12Z</time>
      </trkpt>
      <trkpt lat="31.22102600" lon="34.52171170">
        <ele>124.00000</ele>
        <time>2010-01-01T01:59:20Z</time>
      </trkpt>
      <trkpt lat="31.22120550" lon="34.52143500">
        <ele>124.00000</ele>
        <time>2010-01-01T01:59:32Z</time>
      </trkpt>
      <trkpt lat="31.22131500" lon="34.52125550">
        <ele>124.00000</ele>
        <time>2010-01-01T01:59:39Z</time>
      </trkpt>
      <trkpt lat="31.22157580" lon="34.52084080">
        <ele>122.00000</ele>
        <time>2010-01-01T01:59:57Z</time>
      </trkpt>
      <trkpt lat="31.22182380" lon="34.52040580">
        <ele>124.00000</ele>
        <time>2010-01-01T02:00:15Z</time>
      </trkpt>
      <trkpt lat="31.22206170" lon="34.52001200">
        <ele>124.00000</ele>
        <time>2010-01-01T02:00:31Z</time>
      </trkpt>
      <trkpt lat="31.22236500" lon="34.51954600">
        <ele>123.00000</ele>
        <time>2010-01-01T02:00:51Z</time>
      </trkpt>
      <trkpt lat="31.22272350" lon="34.51900360">
        <ele>124.00000</ele>
        <time>2010-01-01T02:01:15Z</time>
      </trkpt>
      <trkpt lat="31.22294090" lon="34.51869470">
        <ele>124.00000</ele>
        <time>2010-01-01T02:01:28Z</time>
      </trkpt>
      <trkpt lat="31.22309730" lon="34.51848830">
        <ele>124.00000</ele>
        <time>2010-01-01T02:01:38Z</time>
      </trkpt>
      <trkpt lat="31.22339500" lon="34.51801890">
        <ele>125.00000</ele>
        <time>2010-01-01T02:01:58Z</time>
      </trkpt>
      <trkpt lat="31.22341770" lon="34.51796920">
        <ele>125.00000</ele>
        <time>2010-01-01T02:02:00Z</time>
      </trkpt>
      <trkpt lat="31.22354980" lon="34.51782010">
        <ele>124.00000</ele>
        <time>2010-01-01T02:02:07Z</time>
      </trkpt>
      <trkpt lat="31.22381910" lon="34.51758010">
        <ele>121.00000</ele>
        <time>2010-01-01T02:02:21Z</time>
      </trkpt>
      <trkpt lat="31.22403640" lon="34.51729620">
        <ele>119.00000</ele>
        <time>2010-01-01T02:02:34Z</time>
      </trkpt>
      <trkpt lat="31.22418360" lon="34.51698190">
        <ele>120.00000</ele>
        <time>2010-01-01T02:02:46Z</time>
      </trkpt>
      <trkpt lat="31.22432440" lon="34.51659430">
        <ele>122.00000</ele>
        <time>2010-01-01T02:03:00Z</time>
      </trkpt>
      <trkpt lat="31.22442490" lon="34.51637730">
        <ele>122.00000</ele>
        <time>2010-01-01T02:03:09Z</time>
      </trkpt>
      <trkpt lat="31.22450920" lon="34.51620060">
        <ele>122.00000</ele>
        <time>2010-01-01T02:03:16Z</time>
      </trkpt>
      <trkpt lat="31.22457160" lon="34.51592040">
        <ele>122.00000</ele>
        <time>2010-01-01T02:03:26Z</time>
      </trkpt>
      <trkpt lat="31.22468230" lon="34.51552880">
        <ele>122.00000</ele>
        <time>2010-01-01T02:03:40Z</time>
      </trkpt>
      <trkpt lat="31.22465540" lon="34.51542680">
        <ele>124.00000</ele>
        <time>2010-01-01T02:03:43Z</time>
      </trkpt>
      <trkpt lat="31.22466310" lon="34.51522360">
        <ele>125.00000</ele>
        <time>2010-01-01T02:03:50Z</time>
      </trkpt>
      <trkpt lat="31.22466190" lon="34.51495790">
        <ele>126.00000</ele>
        <time>2010-01-01T02:04:00Z</time>
      </trkpt>
      <trkpt lat="31.22471890" lon="34.51477250">
        <ele>125.00000</ele>
        <time>2010-01-01T02:04:06Z</time>
      </trkpt>
      <trkpt lat="31.22475650" lon="34.51467420">
        <ele>125.00000</ele>
        <time>2010-01-01T02:04:10Z</time>
      </trkpt>
      <trkpt lat="31.22479620" lon="34.51447550">
        <ele>124.00000</ele>
        <time>2010-01-01T02:04:17Z</time>
      </trkpt>
      <trkpt lat="31.22475680" lon="34.51420380">
        <ele>125.00000</ele>
        <time>2010-01-01T02:04:26Z</time>
      </trkpt>
      <trkpt lat="31.22480080" lon="34.51389190">
        <ele>124.00000</ele>
        <time>2010-01-01T02:04:37Z</time>
      </trkpt>
      <trkpt lat="31.22490620" lon="34.51349200">
        <ele>123.00000</ele>
        <time>2010-01-01T02:04:52Z</time>
      </trkpt>
      <trkpt lat="31.22500720" lon="34.51294870">
        <ele>122.00000</ele>
        <time>2010-01-01T02:05:11Z</time>
      </trkpt>
      <trkpt lat="31.22506040" lon="34.51267250">
        <ele>121.00000</ele>
        <time>2010-01-01T02:05:20Z</time>
      </trkpt>
      <trkpt lat="31.22525110" lon="34.51210470">
        <ele>120.00000</ele>
        <time>2010-01-01T02:05:41Z</time>
      </trkpt>
      <trkpt lat="31.22536970" lon="34.51178720">
        <ele>119.00000</ele>
        <time>2010-01-01T02:05:53Z</time>
      </trkpt>
      <trkpt lat="31.22542160" lon="34.51160760">
        <ele>119.00000</ele>
        <time>2010-01-01T02:05:59Z</time>
      </trkpt>
      <trkpt lat="31.22562610" lon="34.51122570">
        <ele>121.00000</ele>
        <time>2010-01-01T02:06:15Z</time>
      </trkpt>
      <trkpt lat="31.22576560" lon="34.51097750">
        <ele>122.00000</ele>
        <time>2010-01-01T02:06:25Z</time>
      </trkpt>
      <trkpt lat="31.22595100" lon="34.51074750">
        <ele>122.00000</ele>
        <time>2010-01-01T02:06:36Z</time>
      </trkpt>
      <trkpt lat="31.22620530" lon="34.51029330">
        <ele>120.00000</ele>
        <time>2010-01-01T02:06:54Z</time>
      </trkpt>
      <trkpt lat="31.22643840" lon="34.51003900">
        <ele>118.00000</ele>
        <time>2010-01-01T02:07:07Z</time>
      </trkpt>
      <trkpt lat="31.22667710" lon="34.50985350">
        <ele>116.00000</ele>
        <time>2010-01-01T02:07:19Z</time>
      </trkpt>
      <trkpt lat="31.22680650" lon="34.50975830">
        <ele>116.00000</ele>
        <time>2010-01-01T02:07:25Z</time>
      </trkpt>
      <trkpt lat="31.22707480" lon="34.50951470">
        <ele>116.00000</ele>
        <time>2010-01-01T02:07:38Z</time>
      </trkpt>
      <trkpt lat="31.22732170" lon="34.50929770">
        <ele>115.00000</ele>
        <time>2010-01-01T02:07:51Z</time>
      </trkpt>
      <trkpt lat="31.22752410" lon="34.50920650">
        <ele>115.00000</ele>
        <time>2010-01-01T02:07:59Z</time>
      </trkpt>
      <trkpt lat="31.22764230" lon="34.50914590">
        <ele>114.00000</ele>
        <time>2010-01-01T02:08:05Z</time>
      </trkpt>
      <trkpt lat="31.22790120" lon="34.50892520">
        <ele>116.00000</ele>
        <time>2010-01-01T02:08:17Z</time>
      </trkpt>
      <trkpt lat="31.22800960" lon="34.50883200">
        <ele>116.00000</ele>
        <time>2010-01-01T02:08:23Z</time>
      </trkpt>
      <trkpt lat="31.22804570" lon="34.50880410">
        <ele>117.00000</ele>
        <time>2010-01-01T02:08:25Z</time>
      </trkpt>
      <trkpt lat="31.22806270" lon="34.50879050">
        <ele>117.00000</ele>
        <time>2010-01-01T02:08:25Z</time>
      </trkpt>
      <trkpt lat="31.22822550" lon="34.50866000">
        <ele>119.00000</ele>
        <time>2010-01-01T02:08:33Z</time>
      </trkpt>
      <trkpt lat="31.22828980" lon="34.50861740">
        <ele>119.00000</ele>
        <time>2010-01-01T02:08:36Z</time>
      </trkpt>
      <trkpt lat="31.22833650" lon="34.50858000">
        <ele>120.00000</ele>
        <time>2010-01-01T02:08:39Z</time>
      </trkpt>
      <trkpt lat="31.22843780" lon="34.50851080">
        <ele>121.00000</ele>
        <time>2010-01-01T02:08:43Z</time>
      </trkpt>
      <trkpt lat="31.22858650" lon="34.50845070">
        <ele>121.00000</ele>
        <time>2010-01-01T02:08:50Z</time>
      </trkpt>
      <trkpt lat="31.22874180" lon="34.50845230">
        <ele>121.00000</ele>
        <time>2010-01-01T02:08:56Z</time>
      </trkpt>
      <trkpt lat="31.22904130" lon="34.50852480">
        <ele>119.00000</ele>
        <time>2010-01-01T02:09:08Z</time>
      </trkpt>
      <trkpt lat="31.22922270" lon="34.50855430">
        <ele>118.00000</ele>
        <time>2010-01-01T02:09:15Z</time>
      </trkpt>
      <trkpt lat="31.22957020" lon="34.50856350">
        <ele>117.00000</ele>
        <time>2010-01-01T02:09:29Z</time>
      </trkpt>
      <trkpt lat="31.22995150" lon="34.50848000">
        <ele>119.00000</ele>
        <time>2010-01-01T02:09:45Z</time>
      </trkpt>
      <trkpt lat="31.23016120" lon="34.50841060">
        <ele>119.00000</ele>
        <time>2010-01-01T02:09:53Z</time>
      </trkpt>
      <trkpt lat="31.23036840" lon="34.50830680">
        <ele>119.00000</ele>
        <time>2010-01-01T02:10:03Z</time>
      </trkpt>
      <trkpt lat="31.23055760" lon="34.50812260">
        <ele>119.00000</ele>
        <time>2010-01-01T02:10:12Z</time>
      </trkpt>
      <trkpt lat="31.23078910" lon="34.50796520">
        <ele>120.00000</ele>
        <time>2010-01-01T02:10:23Z</time>
      </trkpt>
      <trkpt lat="31.23109270" lon="34.50768070">
        <ele>120.00000</ele>
        <time>2010-01-01T02:10:39Z</time>
      </trkpt>
      <trkpt lat="31.23125580" lon="34.50747060">
        <ele>121.00000</ele>
        <time>2010-01-01T02:10:48Z</time>
      </trkpt>
      <trkpt lat="31.23132590" lon="34.50733270">
        <ele>121.00000</ele>
        <time>2010-01-01T02:10:54Z</time>
      </trkpt>
      <trkpt lat="31.23146400" lon="34.50715100">
        <ele>121.00000</ele>
        <time>2010-01-01T02:11:02Z</time>
      </trkpt>
      <trkpt lat="31.23166300" lon="34.50701320">
        <ele>121.00000</ele>
        <time>2010-01-01T02:11:11Z</time>
      </trkpt>
      <trkpt lat="31.23190990" lon="34.50682580">
        <ele>121.00000</ele>
        <time>2010-01-01T02:11:23Z</time>
      </trkpt>
      <trkpt lat="31.23214430" lon="34.50671360">
        <ele>121.00000</ele>
        <time>2010-01-01T02:11:33Z</time>
      </trkpt>
      <trkpt lat="31.23238510" lon="34.50660280">
        <ele>122.00000</ele>
        <time>2010-01-01T02:11:44Z</time>
      </trkpt>
      <trkpt lat="31.23274400" lon="34.50639580">
        <ele>122.00000</ele>
        <time>2010-01-01T02:12:00Z</time>
      </trkpt>
      <trkpt lat="31.23303860" lon="34.50618030">
        <ele>123.00000</ele>
        <time>2010-01-01T02:12:14Z</time>
      </trkpt>
      <trkpt lat="31.23314480" lon="34.50605130">
        <ele>123.00000</ele>
        <time>2010-01-01T02:12:20Z</time>
      </trkpt>
      <trkpt lat="31.23330510" lon="34.50589100">
        <ele>124.00000</ele>
        <time>2010-01-01T02:12:28Z</time>
      </trkpt>
      <trkpt lat="31.23340950" lon="34.50575600">
        <ele>122.00000</ele>
        <time>2010-01-01T02:12:34Z</time>
      </trkpt>
      <trkpt lat="31.23370350" lon="34.50544970">
        <ele>118.00000</ele>
        <time>2010-01-01T02:12:50Z</time>
      </trkpt>
      <trkpt lat="31.23398840" lon="34.50521240">
        <ele>119.00000</ele>
        <time>2010-01-01T02:13:04Z</time>
      </trkpt>
      <trkpt lat="31.23401880" lon="34.50518470">
        <ele>119.00000</ele>
        <time>2010-01-01T02:13:06Z</time>
      </trkpt>
      <trkpt lat="31.23415210" lon="34.50517580">
        <ele>120.00000</ele>
        <time>2010-01-01T02:13:11Z</time>
      </trkpt>
      <trkpt lat="31.23432650" lon="34.50523090">
        <ele>119.00000</ele>
        <time>2010-01-01T02:13:18Z</time>
      </trkpt>
      <trkpt lat="31.23446390" lon="34.50516690">
        <ele>119.00000</ele>
        <time>2010-01-01T02:13:24Z</time>
      </trkpt>
      <trkpt lat="31.23461060" lon="34.50512100">
        <ele>118.00000</ele>
        <time>2010-01-01T02:13:30Z</time>
      </trkpt>
      <trkpt lat="31.23463950" lon="34.50512750">
        <ele>118.00000</ele>
        <time>2010-01-01T02:13:32Z</time>
      </trkpt>
      <trkpt lat="31.23463210" lon="34.50511720">
        <ele>118.00000</ele>
        <time>2010-01-01T02:13:32Z</time>
      </trkpt>
      <trkpt lat="31.23463120" lon="34.50511010">
        <ele>118.00000</ele>
        <time>2010-01-01T02:13:32Z</time>
      </trkpt>
      <trkpt lat="31.23463340" lon="34.50510830">
        <ele>119.00000</ele>
        <time>2010-01-01T02:13:32Z</time>
      </trkpt>
      <trkpt lat="31.23463530" lon="34.50510680">
        <ele>119.00000</ele>
        <time>2010-01-01T02:13:32Z</time>
      </trkpt>
      <trkpt lat="31.23462910" lon="34.50510270">
        <ele>119.00000</ele>
        <time>2010-01-01T02:13:33Z</time>
      </trkpt>
      <trkpt lat="31.23464210" lon="34.50510000">
        <ele>119.00000</ele>
        <time>2010-01-01T02:13:33Z</time>
      </trkpt>
      <trkpt lat="31.23476170" lon="34.50501870">
        <ele>119.00000</ele>
        <time>2010-01-01T02:13:39Z</time>
      </trkpt>
      <trkpt lat="31.23493180" lon="34.50496870">
        <ele>119.00000</ele>
        <time>2010-01-01T02:13:46Z</time>
      </trkpt>
      <trkpt lat="31.23520920" lon="34.50495140">
        <ele>118.00000</ele>
        <time>2010-01-01T02:13:57Z</time>
      </trkpt>
      <trkpt lat="31.23532650" lon="34.50492860">
        <ele>117.00000</ele>
        <time>2010-01-01T02:14:02Z</time>
      </trkpt>
      <trkpt lat="31.23540090" lon="34.50482290">
        <ele>118.00000</ele>
        <time>2010-01-01T02:14:06Z</time>
      </trkpt>
      <trkpt lat="31.23551800" lon="34.50462880">
        <ele>119.00000</ele>
        <time>2010-01-01T02:14:14Z</time>
      </trkpt>
      <trkpt lat="31.23558540" lon="34.50451170">
        <ele>119.00000</ele>
        <time>2010-01-01T02:14:19Z</time>
      </trkpt>
      <trkpt lat="31.23568480" lon="34.50436560">
        <ele>119.00000</ele>
        <time>2010-01-01T02:14:26Z</time>
      </trkpt>
      <trkpt lat="31.23579150" lon="34.50423510">
        <ele>119.00000</ele>
        <time>2010-01-01T02:14:32Z</time>
      </trkpt>
      <trkpt lat="31.23581900" lon="34.50420360">
        <ele>119.00000</ele>
        <time>2010-01-01T02:14:33Z</time>
      </trkpt>
      <trkpt lat="31.23595890" lon="34.50400000">
        <ele>118.00000</ele>
        <time>2010-01-01T02:14:42Z</time>
      </trkpt>
      <trkpt lat="31.23600330" lon="34.50385020">
        <ele>119.00000</ele>
        <time>2010-01-01T02:14:48Z</time>
      </trkpt>
      <trkpt lat="31.23595680" lon="34.50367140">
        <ele>120.00000</ele>
        <time>2010-01-01T02:14:54Z</time>
      </trkpt>
      <trkpt lat="31.23582110" lon="34.50358640">
        <ele>122.00000</ele>
        <time>2010-01-01T02:15:00Z</time>
      </trkpt>
      <trkpt lat="31.23579440" lon="34.50357740">
        <ele>122.00000</ele>
        <time>2010-01-01T02:15:01Z</time>
      </trkpt>
      <trkpt lat="31.23576800" lon="34.50360830">
        <ele>122.00000</ele>
        <time>2010-01-01T02:15:03Z</time>
      </trkpt>
      <trkpt lat="31.23578310" lon="34.50361660">
        <ele>122.00000</ele>
        <time>2010-01-01T02:15:04Z</time>
      </trkpt>
      <trkpt lat="31.23583770" lon="34.50364420">
        <ele>121.00000</ele>
        <time>2010-01-01T02:15:06Z</time>
      </trkpt>
      <trkpt lat="31.23582520" lon="34.50367870">
        <ele>121.00000</ele>
        <time>2010-01-01T02:15:07Z</time>
      </trkpt>
      <trkpt lat="31.23578770" lon="34.50365740">
        <ele>122.00000</ele>
        <time>2010-01-01T02:15:09Z</time>
      </trkpt>
      <trkpt lat="31.23574440" lon="34.50365290">
        <ele>122.00000</ele>
        <time>2010-01-01T02:15:11Z</time>
      </trkpt>
      <trkpt lat="31.23574810" lon="34.50368450">
        <ele>122.00000</ele>
        <time>2010-01-01T02:15:12Z</time>
      </trkpt>
      <trkpt lat="31.23581630" lon="34.50371850">
        <ele>121.00000</ele>
        <time>2010-01-01T02:15:15Z</time>
      </trkpt>
      <trkpt lat="31.23578310" lon="34.50373380">
        <ele>122.00000</ele>
        <time>2010-01-01T02:15:16Z</time>
      </trkpt>
      <trkpt lat="31.23566360" lon="34.50378090">
        <ele>122.00000</ele>
        <time>2010-01-01T02:15:21Z</time>
      </trkpt>
      <trkpt lat="31.23565720" lon="34.50386950">
        <ele>122.00000</ele>
        <time>2010-01-01T02:15:24Z</time>
      </trkpt>
      <trkpt lat="31.23566460" lon="34.50392680">
        <ele>122.00000</ele>
        <time>2010-01-01T02:15:26Z</time>
      </trkpt>
      <trkpt lat="31.23570790" lon="34.50392890">
        <ele>121.00000</ele>
        <time>2010-01-01T02:15:28Z</time>
      </trkpt>
      <trkpt lat="31.23571900" lon="34.50389020">
        <ele>121.00000</ele>
        <time>2010-01-01T02:15:29Z</time>
      </trkpt>
      <trkpt lat="31.23575230" lon="34.50380940">
        <ele>122.00000</ele>
        <time>2010-01-01T02:15:32Z</time>
      </trkpt>
      <trkpt lat="31.23571390" lon="34.50383950">
        <ele>122.00000</ele>
        <time>2010-01-01T02:15:34Z</time>
      </trkpt>
      <trkpt lat="31.23570300" lon="34.50394260">
        <ele>121.00000</ele>
        <time>2010-01-01T02:15:38Z</time>
      </trkpt>
      <trkpt lat="31.23566300" lon="34.50393060">
        <ele>122.00000</ele>
        <time>2010-01-01T02:15:40Z</time>
      </trkpt>
      <trkpt lat="31.23566000" lon="34.50390210">
        <ele>122.00000</ele>
        <time>2010-01-01T02:15:41Z</time>
      </trkpt>
      <trkpt lat="31.23565820" lon="34.50384250">
        <ele>122.00000</ele>
        <time>2010-01-01T02:15:43Z</time>
      </trkpt>
      <trkpt lat="31.23559360" lon="34.50369950">
        <ele>124.00000</ele>
        <time>2010-01-01T02:15:48Z</time>
      </trkpt>
      <trkpt lat="31.23558950" lon="34.50367980">
        <ele>124.00000</ele>
        <time>2010-01-01T02:15:49Z</time>
      </trkpt>
      <trkpt lat="31.23566220" lon="34.50351870">
        <ele>124.00000</ele>
        <time>2010-01-01T02:15:55Z</time>
      </trkpt>
      <trkpt lat="31.23568280" lon="34.50347610">
        <ele>124.00000</ele>
        <time>2010-01-01T02:15:57Z</time>
      </trkpt>
      <trkpt lat="31.23582770" lon="34.50335860">
        <ele>123.00000</ele>
        <time>2010-01-01T02:16:04Z</time>
      </trkpt>
      <trkpt lat="31.23613900" lon="34.50321190">
        <ele>120.00000</ele>
        <time>2010-01-01T02:16:17Z</time>
      </trkpt>
      <trkpt lat="31.23633680" lon="34.50308030">
        <ele>118.00000</ele>
        <time>2010-01-01T02:16:26Z</time>
      </trkpt>
      <trkpt lat="31.23636290" lon="34.50303550">
        <ele>118.00000</ele>
        <time>2010-01-01T02:16:28Z</time>
      </trkpt>
      <trkpt lat="31.23645100" lon="34.50291520">
        <ele>118.00000</ele>
        <time>2010-01-01T02:16:34Z</time>
      </trkpt>
      <trkpt lat="31.23655950" lon="34.50282360">
        <ele>118.00000</ele>
        <time>2010-01-01T02:16:39Z</time>
      </trkpt>
      <trkpt lat="31.23659960" lon="34.50279550">
        <ele>118.00000</ele>
        <time>2010-01-01T02:16:41Z</time>
      </trkpt>
      <trkpt lat="31.23663910" lon="34.50276910">
        <ele>118.00000</ele>
        <time>2010-01-01T02:16:43Z</time>
      </trkpt>
      <trkpt lat="31.23677380" lon="34.50258270">
        <ele>118.00000</ele>
        <time>2010-01-01T02:16:51Z</time>
      </trkpt>
      <trkpt lat="31.23683910" lon="34.50251260">
        <ele>117.00000</ele>
        <time>2010-01-01T02:16:55Z</time>
      </trkpt>
      <trkpt lat="31.23700940" lon="34.50229530">
        <ele>116.00000</ele>
        <time>2010-01-01T02:17:05Z</time>
      </trkpt>
      <trkpt lat="31.23700980" lon="34.50224320">
        <ele>116.00000</ele>
        <time>2010-01-01T02:17:06Z</time>
      </trkpt>
      <trkpt lat="31.23700060" lon="34.50208030">
        <ele>116.00000</ele>
        <time>2010-01-01T02:17:12Z</time>
      </trkpt>
      <trkpt lat="31.23698120" lon="34.50196830">
        <ele>117.00000</ele>
        <time>2010-01-01T02:17:16Z</time>
      </trkpt>
      <trkpt lat="31.23692130" lon="34.50173060">
        <ele>118.00000</ele>
        <time>2010-01-01T02:17:24Z</time>
      </trkpt>
      <trkpt lat="31.23684890" lon="34.50133200">
        <ele>120.00000</ele>
        <time>2010-01-01T02:17:38Z</time>
      </trkpt>
      <trkpt lat="31.23681250" lon="34.50117590">
        <ele>120.00000</ele>
        <time>2010-01-01T02:17:44Z</time>
      </trkpt>
      <trkpt lat="31.23672960" lon="34.50083270">
        <ele>121.00000</ele>
        <time>2010-01-01T02:17:56Z</time>
      </trkpt>
      <trkpt lat="31.23666660" lon="34.50057580">
        <ele>120.00000</ele>
        <time>2010-01-01T02:18:05Z</time>
      </trkpt>
      <trkpt lat="31.23667890" lon="34.50041220">
        <ele>120.00000</ele>
        <time>2010-01-01T02:18:11Z</time>
      </trkpt>
      <trkpt lat="31.23680170" lon="34.50022030">
        <ele>120.00000</ele>
        <time>2010-01-01T02:18:19Z</time>
      </trkpt>
      <trkpt lat="31.23683860" lon="34.50020140">
        <ele>120.00000</ele>
        <time>2010-01-01T02:18:21Z</time>
      </trkpt>
      <trkpt lat="31.23699470" lon="34.50025140">
        <ele>120.00000</ele>
        <time>2010-01-01T02:18:27Z</time>
      </trkpt>
      <trkpt lat="31.23722070" lon="34.50040200">
        <ele>120.00000</ele>
        <time>2010-01-01T02:18:38Z</time>
      </trkpt>
      <trkpt lat="31.23734450" lon="34.50045530">
        <ele>120.00000</ele>
        <time>2010-01-01T02:18:43Z</time>
      </trkpt>
      <trkpt lat="31.23773150" lon="34.50052440">
        <ele>119.00000</ele>
        <time>2010-01-01T02:18:58Z</time>
      </trkpt>
      <trkpt lat="31.23796680" lon="34.50055370">
        <ele>118.00000</ele>
        <time>2010-01-01T02:19:08Z</time>
      </trkpt>
      <trkpt lat="31.23824160" lon="34.50061530">
        <ele>117.00000</ele>
        <time>2010-01-01T02:19:19Z</time>
      </trkpt>
      <trkpt lat="31.23832760" lon="34.50063540">
        <ele>117.00000</ele>
        <time>2010-01-01T02:19:23Z</time>
      </trkpt>
      <trkpt lat="31.23859620" lon="34.50061380">
        <ele>113.00000</ele>
        <time>2010-01-01T02:19:33Z</time>
      </trkpt>
      <trkpt lat="31.23872080" lon="34.50054320">
        <ele>112.00000</ele>
        <time>2010-01-01T02:19:39Z</time>
      </trkpt>
      <trkpt lat="31.23885340" lon="34.50040080">
        <ele>112.00000</ele>
        <time>2010-01-01T02:19:46Z</time>
      </trkpt>
      <trkpt lat="31.23896590" lon="34.50021190">
        <ele>112.00000</ele>
        <time>2010-01-01T02:19:54Z</time>
      </trkpt>
      <trkpt lat="31.23916840" lon="34.50003990">
        <ele>112.00000</ele>
        <time>2010-01-01T02:20:04Z</time>
      </trkpt>
      <trkpt lat="31.23949800" lon="34.49977170">
        <ele>111.00000</ele>
        <time>2010-01-01T02:20:20Z</time>
      </trkpt>
      <trkpt lat="31.23974970" lon="34.49952480">
        <ele>112.00000</ele>
        <time>2010-01-01T02:20:33Z</time>
      </trkpt>
      <trkpt lat="31.24001390" lon="34.49922420">
        <ele>114.00000</ele>
        <time>2010-01-01T02:20:48Z</time>
      </trkpt>
      <trkpt lat="31.24023590" lon="34.49892140">
        <ele>113.00000</ele>
        <time>2010-01-01T02:21:02Z</time>
      </trkpt>
      <trkpt lat="31.24043950" lon="34.49861720">
        <ele>112.00000</ele>
        <time>2010-01-01T02:21:15Z</time>
      </trkpt>
      <trkpt lat="31.24055960" lon="34.49843240">
        <ele>112.00000</ele>
        <time>2010-01-01T02:21:23Z</time>
      </trkpt>
      <trkpt lat="31.24059250" lon="34.49837750">
        <ele>112.00000</ele>
        <time>2010-01-01T02:21:25Z</time>
      </trkpt>
      <trkpt lat="31.24058470" lon="34.49833600">
        <ele>113.00000</ele>
        <time>2010-01-01T02:21:27Z</time>
      </trkpt>
      <trkpt lat="31.24057850" lon="34.49834270">
        <ele>113.00000</ele>
        <time>2010-01-01T02:21:27Z</time>
      </trkpt>
      <trkpt lat="31.24057500" lon="34.49834800">
        <ele>113.00000</ele>
        <time>2010-01-01T02:21:27Z</time>
      </trkpt>
      <trkpt lat="31.24057490" lon="34.49834840">
        <ele>113.00000</ele>
        <time>2010-01-01T02:21:27Z</time>
      </trkpt>
      <trkpt lat="31.24057410" lon="34.49835000">
        <ele>113.00000</ele>
        <time>2010-01-01T02:21:27Z</time>
      </trkpt>
      <trkpt lat="31.24057390" lon="34.49835030">
        <ele>113.00000</ele>
        <time>2010-01-01T02:21:27Z</time>
      </trkpt>
      <trkpt lat="31.24057370" lon="34.49835220">
        <ele>113.00000</ele>
        <time>2010-01-01T02:21:27Z</time>
      </trkpt>
      <trkpt lat="31.24057310" lon="34.49835350">
        <ele>113.00000</ele>
        <time>2010-01-01T02:21:27Z</time>
      </trkpt>
      <trkpt lat="31.24057180" lon="34.49835570">
        <ele>113.00000</ele>
        <time>2010-01-01T02:21:27Z</time>
      </trkpt>
      <trkpt lat="31.24057160" lon="34.49835620">
        <ele>113.00000</ele>
        <time>2010-01-01T02:21:27Z</time>
      </trkpt>
      <trkpt lat="31.24057150" lon="34.49835650">
        <ele>113.00000</ele>
        <time>2010-01-01T02:21:27Z</time>
      </trkpt>
      <trkpt lat="31.24057000" lon="34.49835940">
        <ele>113.00000</ele>
        <time>2010-01-01T02:21:28Z</time>
      </trkpt>
      <trkpt lat="31.24056930" lon="34.49836090">
        <ele>113.00000</ele>
        <time>2010-01-01T02:21:28Z</time>
      </trkpt>
      <trkpt lat="31.24058140" lon="34.49837430">
        <ele>113.00000</ele>
        <time>2010-01-01T02:21:28Z</time>
      </trkpt>
      <trkpt lat="31.24058530" lon="34.49836120">
        <ele>113.00000</ele>
        <time>2010-01-01T02:21:29Z</time>
      </trkpt>
      <trkpt lat="31.24064610" lon="34.49826020">
        <ele>113.00000</ele>
        <time>2010-01-01T02:21:33Z</time>
      </trkpt>
      <trkpt lat="31.24069120" lon="34.49818260">
        <ele>113.00000</ele>
        <time>2010-01-01T02:21:36Z</time>
      </trkpt>
      <trkpt lat="31.24079600" lon="34.49798990">
        <ele>113.00000</ele>
        <time>2010-01-01T02:21:44Z</time>
      </trkpt>
      <trkpt lat="31.24098160" lon="34.49760610">
        <ele>113.00000</ele>
        <time>2010-01-01T02:21:59Z</time>
      </trkpt>
      <trkpt lat="31.24100700" lon="34.49755280">
        <ele>113.00000</ele>
        <time>2010-01-01T02:22:01Z</time>
      </trkpt>
      <trkpt lat="31.24108330" lon="34.49732260">
        <ele>112.00000</ele>
        <time>2010-01-01T02:22:10Z</time>
      </trkpt>
      <trkpt lat="31.24112760" lon="34.49715230">
        <ele>112.00000</ele>
        <time>2010-01-01T02:22:16Z</time>
      </trkpt>
      <trkpt lat="31.24116540" lon="34.49700200">
        <ele>111.00000</ele>
        <time>2010-01-01T02:22:21Z</time>
      </trkpt>
      <trkpt lat="31.24123570" lon="34.49673260">
        <ele>111.00000</ele>
        <time>2010-01-01T02:22:31Z</time>
      </trkpt>
      <trkpt lat="31.24131350" lon="34.49651560">
        <ele>111.00000</ele>
        <time>2010-01-01T02:22:39Z</time>
      </trkpt>
      <trkpt lat="31.24139880" lon="34.49631170">
        <ele>111.00000</ele>
        <time>2010-01-01T02:22:47Z</time>
      </trkpt>
      <trkpt lat="31.24153840" lon="34.49590070">
        <ele>113.00000</ele>
        <time>2010-01-01T02:23:02Z</time>
      </trkpt>
      <trkpt lat="31.24160960" lon="34.49554360">
        <ele>115.00000</ele>
        <time>2010-01-01T02:23:14Z</time>
      </trkpt>
      <trkpt lat="31.24171550" lon="34.49517270">
        <ele>115.00000</ele>
        <time>2010-01-01T02:23:28Z</time>
      </trkpt>
      <trkpt lat="31.24175830" lon="34.49501910">
        <ele>115.00000</ele>
        <time>2010-01-01T02:23:33Z</time>
      </trkpt>
      <trkpt lat="31.24182800" lon="34.49486170">
        <ele>114.00000</ele>
        <time>2010-01-01T02:23:39Z</time>
      </trkpt>
      <trkpt lat="31.24195740" lon="34.49454480">
        <ele>112.00000</ele>
        <time>2010-01-01T02:23:51Z</time>
      </trkpt>
      <trkpt lat="31.24202750" lon="34.49431680">
        <ele>112.00000</ele>
        <time>2010-01-01T02:24:00Z</time>
      </trkpt>
      <trkpt lat="31.24212070" lon="34.49406340">
        <ele>112.00000</ele>
        <time>2010-01-01T02:24:09Z</time>
      </trkpt>
      <trkpt lat="31.24218410" lon="34.49386800">
        <ele>113.00000</ele>
        <time>2010-01-01T02:24:16Z</time>
      </trkpt>
      <trkpt lat="31.24227130" lon="34.49368270">
        <ele>113.00000</ele>
        <time>2010-01-01T02:24:23Z</time>
      </trkpt>
      <trkpt lat="31.24252300" lon="34.49329310">
        <ele>114.00000</ele>
        <time>2010-01-01T02:24:40Z</time>
      </trkpt>
      <trkpt lat="31.24284900" lon="34.49283330">
        <ele>112.00000</ele>
        <time>2010-01-01T02:25:01Z</time>
      </trkpt>
      <trkpt lat="31.24295030" lon="34.49272020">
        <ele>112.00000</ele>
        <time>2010-01-01T02:25:06Z</time>
      </trkpt>
      <trkpt lat="31.24305450" lon="34.49251630">
        <ele>113.00000</ele>
        <time>2010-01-01T02:25:14Z</time>
      </trkpt>
      <trkpt lat="31.24308540" lon="34.49237050">
        <ele>113.00000</ele>
        <time>2010-01-01T02:25:19Z</time>
      </trkpt>
      <trkpt lat="31.24311290" lon="34.49227620">
        <ele>113.00000</ele>
        <time>2010-01-01T02:25:23Z</time>
      </trkpt>
      <trkpt lat="31.24318190" lon="34.49213740">
        <ele>113.00000</ele>
        <time>2010-01-01T02:25:28Z</time>
      </trkpt>
      <trkpt lat="31.24333580" lon="34.49198190">
        <ele>112.00000</ele>
        <time>2010-01-01T02:25:36Z</time>
      </trkpt>
      <trkpt lat="31.24339620" lon="34.49192820">
        <ele>112.00000</ele>
        <time>2010-01-01T02:25:40Z</time>
      </trkpt>
      <trkpt lat="31.24350380" lon="34.49184320">
        <ele>110.00000</ele>
        <time>2010-01-01T02:25:45Z</time>
      </trkpt>
      <trkpt lat="31.24366920" lon="34.49161540">
        <ele>108.00000</ele>
        <time>2010-01-01T02:25:55Z</time>
      </trkpt>
      <trkpt lat="31.24373990" lon="34.49142160">
        <ele>109.00000</ele>
        <time>2010-01-01T02:26:02Z</time>
      </trkpt>
      <trkpt lat="31.24375130" lon="34.49124870">
        <ele>110.00000</ele>
        <time>2010-01-01T02:26:08Z</time>
      </trkpt>
      <trkpt lat="31.24376230" lon="34.49097330">
        <ele>111.00000</ele>
        <time>2010-01-01T02:26:18Z</time>
      </trkpt>
      <trkpt lat="31.24375680" lon="34.49066960">
        <ele>113.00000</ele>
        <time>2010-01-01T02:26:28Z</time>
      </trkpt>
      <trkpt lat="31.24376060" lon="34.49044840">
        <ele>114.00000</ele>
        <time>2010-01-01T02:26:35Z</time>
      </trkpt>
      <trkpt lat="31.24378740" lon="34.49029370">
        <ele>115.00000</ele>
        <time>2010-01-01T02:26:41Z</time>
      </trkpt>
      <trkpt lat="31.24388990" lon="34.49012040">
        <ele>115.00000</ele>
        <time>2010-01-01T02:26:48Z</time>
      </trkpt>
      <trkpt lat="31.24407230" lon="34.49002610">
        <ele>115.00000</ele>
        <time>2010-01-01T02:26:56Z</time>
      </trkpt>
      <trkpt lat="31.24415910" lon="34.48999950">
        <ele>115.00000</ele>
        <time>2010-01-01T02:27:00Z</time>
      </trkpt>
      <trkpt lat="31.24448010" lon="34.48983420">
        <ele>114.00000</ele>
        <time>2010-01-01T02:27:14Z</time>
      </trkpt>
      <trkpt lat="31.24476230" lon="34.48968370">
        <ele>113.00000</ele>
        <time>2010-01-01T02:27:26Z</time>
      </trkpt>
      <trkpt lat="31.24507380" lon="34.48954490">
        <ele>113.00000</ele>
        <time>2010-01-01T02:27:39Z</time>
      </trkpt>
      <trkpt lat="31.24540090" lon="34.48946310">
        <ele>113.00000</ele>
        <time>2010-01-01T02:27:53Z</time>
      </trkpt>
      <trkpt lat="31.24581130" lon="34.48938540">
        <ele>113.00000</ele>
        <time>2010-01-01T02:28:10Z</time>
      </trkpt>
      <trkpt lat="31.24585600" lon="34.48936940">
        <ele>113.00000</ele>
        <time>2010-01-01T02:28:11Z</time>
      </trkpt>
      <trkpt lat="31.24612520" lon="34.48918270">
        <ele>113.00000</ele>
        <time>2010-01-01T02:28:24Z</time>
      </trkpt>
      <trkpt lat="31.24637220" lon="34.48896210">
        <ele>112.00000</ele>
        <time>2010-01-01T02:28:36Z</time>
      </trkpt>
      <trkpt lat="31.24663070" lon="34.48882430">
        <ele>112.00000</ele>
        <time>2010-01-01T02:28:48Z</time>
      </trkpt>
      <trkpt lat="31.24686140" lon="34.48883510">
        <ele>112.00000</ele>
        <time>2010-01-01T02:28:57Z</time>
      </trkpt>
      <trkpt lat="31.24691440" lon="34.48885330">
        <ele>112.00000</ele>
        <time>2010-01-01T02:28:59Z</time>
      </trkpt>
      <trkpt lat="31.24705460" lon="34.48891100">
        <ele>112.00000</ele>
        <time>2010-01-01T02:29:05Z</time>
      </trkpt>
      <trkpt lat="31.24709550" lon="34.48892730">
        <ele>112.00000</ele>
        <time>2010-01-01T02:29:07Z</time>
      </trkpt>
      <trkpt lat="31.24735180" lon="34.48903310">
        <ele>113.00000</ele>
        <time>2010-01-01T02:29:18Z</time>
      </trkpt>
      <trkpt lat="31.24764140" lon="34.48915490">
        <ele>113.00000</ele>
        <time>2010-01-01T02:29:30Z</time>
      </trkpt>
      <trkpt lat="31.24779340" lon="34.48921880">
        <ele>112.00000</ele>
        <time>2010-01-01T02:29:37Z</time>
      </trkpt>
      <trkpt lat="31.24810060" lon="34.48926420">
        <ele>111.00000</ele>
        <time>2010-01-01T02:29:49Z</time>
      </trkpt>
      <trkpt lat="31.24836730" lon="34.48923990">
        <ele>110.00000</ele>
        <time>2010-01-01T02:30:00Z</time>
      </trkpt>
      <trkpt lat="31.24870230" lon="34.48912850">
        <ele>111.00000</ele>
        <time>2010-01-01T02:30:14Z</time>
      </trkpt>
      <trkpt lat="31.24903200" lon="34.48910130">
        <ele>111.00000</ele>
        <time>2010-01-01T02:30:27Z</time>
      </trkpt>
      <trkpt lat="31.24924100" lon="34.48911340">
        <ele>112.00000</ele>
        <time>2010-01-01T02:30:35Z</time>
      </trkpt>
      <trkpt lat="31.24941110" lon="34.48913820">
        <ele>113.00000</ele>
        <time>2010-01-01T02:30:42Z</time>
      </trkpt>
      <trkpt lat="31.24946420" lon="34.48919590">
        <ele>113.00000</ele>
        <time>2010-01-01T02:30:45Z</time>
      </trkpt>
      <trkpt lat="31.24950460" lon="34.48925690">
        <ele>113.00000</ele>
        <time>2010-01-01T02:30:48Z</time>
      </trkpt>
      <trkpt lat="31.24959960" lon="34.48935260">
        <ele>113.00000</ele>
        <time>2010-01-01T02:30:53Z</time>
      </trkpt>
      <trkpt lat="31.24967400" lon="34.48949090">
        <ele>113.00000</ele>
        <time>2010-01-01T02:30:58Z</time>
      </trkpt>
      <trkpt lat="31.24978190" lon="34.48966870">
        <ele>113.00000</ele>
        <time>2010-01-01T02:31:06Z</time>
      </trkpt>
      <trkpt lat="31.24994140" lon="34.48992230">
        <ele>113.00000</ele>
        <time>2010-01-01T02:31:16Z</time>
      </trkpt>
      <trkpt lat="31.25016010" lon="34.49022140">
        <ele>113.00000</ele>
        <time>2010-01-01T02:31:30Z</time>
      </trkpt>
      <trkpt lat="31.25040920" lon="34.49055840">
        <ele>113.00000</ele>
        <time>2010-01-01T02:31:45Z</time>
      </trkpt>
      <trkpt lat="31.25064370" lon="34.49086230">
        <ele>115.00000</ele>
        <time>2010-01-01T02:31:59Z</time>
      </trkpt>
      <trkpt lat="31.25077120" lon="34.49104140">
        <ele>114.00000</ele>
        <time>2010-01-01T02:32:07Z</time>
      </trkpt>
      <trkpt lat="31.25095410" lon="34.49135340">
        <ele>111.00000</ele>
        <time>2010-01-01T02:32:20Z</time>
      </trkpt>
      <trkpt lat="31.25108370" lon="34.49156820">
        <ele>110.00000</ele>
        <time>2010-01-01T02:32:29Z</time>
      </trkpt>
      <trkpt lat="31.25114020" lon="34.49172190">
        <ele>109.00000</ele>
        <time>2010-01-01T02:32:35Z</time>
      </trkpt>
      <trkpt lat="31.25123760" lon="34.49195010">
        <ele>110.00000</ele>
        <time>2010-01-01T02:32:44Z</time>
      </trkpt>
      <trkpt lat="31.25129920" lon="34.49216340">
        <ele>110.00000</ele>
        <time>2010-01-01T02:32:51Z</time>
      </trkpt>
      <trkpt lat="31.25131150" lon="34.49227960">
        <ele>110.00000</ele>
        <time>2010-01-01T02:32:55Z</time>
      </trkpt>
      <trkpt lat="31.25132670" lon="34.49255090">
        <ele>109.00000</ele>
        <time>2010-01-01T02:33:05Z</time>
      </trkpt>
      <trkpt lat="31.25135890" lon="34.49287720">
        <ele>108.00000</ele>
        <time>2010-01-01T02:33:16Z</time>
      </trkpt>
      <trkpt lat="31.25146600" lon="34.49323520">
        <ele>109.00000</ele>
        <time>2010-01-01T02:33:29Z</time>
      </trkpt>
      <trkpt lat="31.25161370" lon="34.49360440">
        <ele>110.00000</ele>
        <time>2010-01-01T02:33:43Z</time>
      </trkpt>
      <trkpt lat="31.25172140" lon="34.49376140">
        <ele>110.00000</ele>
        <time>2010-01-01T02:33:50Z</time>
      </trkpt>
      <trkpt lat="31.25191050" lon="34.49417850">
        <ele>109.00000</ele>
        <time>2010-01-01T02:34:06Z</time>
      </trkpt>
      <trkpt lat="31.25193100" lon="34.49422610">
        <ele>109.00000</ele>
        <time>2010-01-01T02:34:08Z</time>
      </trkpt>
      <trkpt lat="31.25202750" lon="34.49439350">
        <ele>109.00000</ele>
        <time>2010-01-01T02:34:14Z</time>
      </trkpt>
      <trkpt lat="31.25213180" lon="34.49436740">
        <ele>110.00000</ele>
        <time>2010-01-01T02:34:19Z</time>
      </trkpt>
      <trkpt lat="31.25216720" lon="34.49433040">
        <ele>111.00000</ele>
        <time>2010-01-01T02:34:21Z</time>
      </trkpt>
      <trkpt lat="31.25222170" lon="34.49428980">
        <ele>112.00000</ele>
        <time>2010-01-01T02:34:23Z</time>
      </trkpt>
      <trkpt lat="31.25224770" lon="34.49424350">
        <ele>112.00000</ele>
        <time>2010-01-01T02:34:25Z</time>
      </trkpt>
      <trkpt lat="31.25224250" lon="34.49424590">
        <ele>112.00000</ele>
        <time>2010-01-01T02:34:25Z</time>
      </trkpt>
      <trkpt lat="31.25224290" lon="34.49423850">
        <ele>112.00000</ele>
        <time>2010-01-01T02:34:26Z</time>
      </trkpt>
      <trkpt lat="31.25224590" lon="34.49423920">
        <ele>112.00000</ele>
        <time>2010-01-01T02:34:26Z</time>
      </trkpt>
      <trkpt lat="31.25217930" lon="34.49429820">
        <ele>111.00000</ele>
        <time>2010-01-01T02:34:29Z</time>
      </trkpt>
      <trkpt lat="31.25211560" lon="34.49438090">
        <ele>110.00000</ele>
        <time>2010-01-01T02:34:33Z</time>
      </trkpt>
      <trkpt lat="31.25214060" lon="34.49461870">
        <ele>109.00000</ele>
        <time>2010-01-01T02:34:41Z</time>
      </trkpt>
      <trkpt lat="31.25219170" lon="34.49469650">
        <ele>109.00000</ele>
        <time>2010-01-01T02:34:44Z</time>
      </trkpt>
      <trkpt lat="31.25245230" lon="34.49497880">
        <ele>111.00000</ele>
        <time>2010-01-01T02:34:59Z</time>
      </trkpt>
      <trkpt lat="31.25262380" lon="34.49510360">
        <ele>110.00000</ele>
        <time>2010-01-01T02:35:07Z</time>
      </trkpt>
      <trkpt lat="31.25275620" lon="34.49514900">
        <ele>110.00000</ele>
        <time>2010-01-01T02:35:12Z</time>
      </trkpt>
      <trkpt lat="31.25289400" lon="34.49517550">
        <ele>110.00000</ele>
        <time>2010-01-01T02:35:18Z</time>
      </trkpt>
      <trkpt lat="31.25317790" lon="34.49521400">
        <ele>109.00000</ele>
        <time>2010-01-01T02:35:29Z</time>
      </trkpt>
      <trkpt lat="31.25334930" lon="34.49526020">
        <ele>109.00000</ele>
        <time>2010-01-01T02:35:36Z</time>
      </trkpt>
      <trkpt lat="31.25357860" lon="34.49535060">
        <ele>108.00000</ele>
        <time>2010-01-01T02:35:46Z</time>
      </trkpt>
      <trkpt lat="31.25367230" lon="34.49537850">
        <ele>107.00000</ele>
        <time>2010-01-01T02:35:50Z</time>
      </trkpt>
      <trkpt lat="31.25376920" lon="34.49538950">
        <ele>107.00000</ele>
        <time>2010-01-01T02:35:54Z</time>
      </trkpt>
      <trkpt lat="31.25401230" lon="34.49528960">
        <ele>107.00000</ele>
        <time>2010-01-01T02:36:04Z</time>
      </trkpt>
      <trkpt lat="31.25406120" lon="34.49526530">
        <ele>107.00000</ele>
        <time>2010-01-01T02:36:06Z</time>
      </trkpt>
      <trkpt lat="31.25426020" lon="34.49512020">
        <ele>107.00000</ele>
        <time>2010-01-01T02:36:16Z</time>
      </trkpt>
      <trkpt lat="31.25435370" lon="34.49506930">
        <ele>107.00000</ele>
        <time>2010-01-01T02:36:20Z</time>
      </trkpt>
      <trkpt lat="31.25447760" lon="34.49499070">
        <ele>108.00000</ele>
        <time>2010-01-01T02:36:25Z</time>
      </trkpt>
      <trkpt lat="31.25461860" lon="34.49487890">
        <ele>108.00000</ele>
        <time>2010-01-01T02:36:32Z</time>
      </trkpt>
      <trkpt lat="31.25469790" lon="34.49479550">
        <ele>108.00000</ele>
        <time>2010-01-01T02:36:36Z</time>
      </trkpt>
      <trkpt lat="31.25471220" lon="34.49476140">
        <ele>108.00000</ele>
        <time>2010-01-01T02:36:38Z</time>
      </trkpt>
      <trkpt lat="31.25472380" lon="34.49472970">
        <ele>109.00000</ele>
        <time>2010-01-01T02:36:39Z</time>
      </trkpt>
      <trkpt lat="31.25475460" lon="34.49467280">
        <ele>109.00000</ele>
        <time>2010-01-01T02:36:41Z</time>
      </trkpt>
      <trkpt lat="31.25489670" lon="34.49456280">
        <ele>109.00000</ele>
        <time>2010-01-01T02:36:48Z</time>
      </trkpt>
      <trkpt lat="31.25503930" lon="34.49441890">
        <ele>110.00000</ele>
        <time>2010-01-01T02:36:56Z</time>
      </trkpt>
      <trkpt lat="31.25516280" lon="34.49422240">
        <ele>111.00000</ele>
        <time>2010-01-01T02:37:04Z</time>
      </trkpt>
      <trkpt lat="31.25542980" lon="34.49396090">
        <ele>111.00000</ele>
        <time>2010-01-01T02:37:18Z</time>
      </trkpt>
      <trkpt lat="31.25560790" lon="34.49366610">
        <ele>112.00000</ele>
        <time>2010-01-01T02:37:30Z</time>
      </trkpt>
      <trkpt lat="31.25567020" lon="34.49350950">
        <ele>112.00000</ele>
        <time>2010-01-01T02:37:36Z</time>
      </trkpt>
      <trkpt lat="31.25576720" lon="34.49327310">
        <ele>113.00000</ele>
        <time>2010-01-01T02:37:45Z</time>
      </trkpt>
      <trkpt lat="31.25584680" lon="34.49308090">
        <ele>114.00000</ele>
        <time>2010-01-01T02:37:52Z</time>
      </trkpt>
      <trkpt lat="31.25593190" lon="34.49287580">
        <ele>114.00000</ele>
        <time>2010-01-01T02:38:00Z</time>
      </trkpt>
      <trkpt lat="31.25603320" lon="34.49263830">
        <ele>114.00000</ele>
        <time>2010-01-01T02:38:09Z</time>
      </trkpt>
      <trkpt lat="31.25620330" lon="34.49226250">
        <ele>114.00000</ele>
        <time>2010-01-01T02:38:24Z</time>
      </trkpt>
      <trkpt lat="31.25649230" lon="34.49166700">
        <ele>114.00000</ele>
        <time>2010-01-01T02:38:47Z</time>
      </trkpt>
      <trkpt lat="31.25657550" lon="34.49143870">
        <ele>113.00000</ele>
        <time>2010-01-01T02:38:56Z</time>
      </trkpt>
      <trkpt lat="31.25663940" lon="34.49116320">
        <ele>113.00000</ele>
        <time>2010-01-01T02:39:06Z</time>
      </trkpt>
      <trkpt lat="31.25678490" lon="34.49089170">
        <ele>113.00000</ele>
        <time>2010-01-01T02:39:17Z</time>
      </trkpt>
      <trkpt lat="31.25689180" lon="34.49084200">
        <ele>113.00000</ele>
        <time>2010-01-01T02:39:21Z</time>
      </trkpt>
      <trkpt lat="31.25715680" lon="34.49089530">
        <ele>112.00000</ele>
        <time>2010-01-01T02:39:32Z</time>
      </trkpt>
      <trkpt lat="31.25727910" lon="34.49092940">
        <ele>112.00000</ele>
        <time>2010-01-01T02:39:37Z</time>
      </trkpt>
      <trkpt lat="31.25749230" lon="34.49087290">
        <ele>112.00000</ele>
        <time>2010-01-01T02:39:46Z</time>
      </trkpt>
      <trkpt lat="31.25752620" lon="34.49084090">
        <ele>112.00000</ele>
        <time>2010-01-01T02:39:47Z</time>
      </trkpt>
      <trkpt lat="31.25759180" lon="34.49077390">
        <ele>112.00000</ele>
        <time>2010-01-01T02:39:51Z</time>
      </trkpt>
      <trkpt lat="31.25773010" lon="34.49062990">
        <ele>112.00000</ele>
        <time>2010-01-01T02:39:58Z</time>
      </trkpt>
      <trkpt lat="31.25797160" lon="34.49033070">
        <ele>112.00000</ele>
        <time>2010-01-01T02:40:12Z</time>
      </trkpt>
      <trkpt lat="31.25811670" lon="34.49018510">
        <ele>112.00000</ele>
        <time>2010-01-01T02:40:20Z</time>
      </trkpt>
      <trkpt lat="31.25824950" lon="34.49006030">
        <ele>113.00000</ele>
        <time>2010-01-01T02:40:27Z</time>
      </trkpt>
      <trkpt lat="31.25841310" lon="34.48996640">
        <ele>113.00000</ele>
        <time>2010-01-01T02:40:34Z</time>
      </trkpt>
      <trkpt lat="31.25863510" lon="34.48995530">
        <ele>113.00000</ele>
        <time>2010-01-01T02:40:43Z</time>
      </trkpt>
      <trkpt lat="31.25894860" lon="34.48994320">
        <ele>112.00000</ele>
        <time>2010-01-01T02:40:56Z</time>
      </trkpt>
      <trkpt lat="31.25900670" lon="34.48993680">
        <ele>112.00000</ele>
        <time>2010-01-01T02:40:58Z</time>
      </trkpt>
      <trkpt lat="31.25930900" lon="34.48982650">
        <ele>113.00000</ele>
        <time>2010-01-01T02:41:11Z</time>
      </trkpt>
      <trkpt lat="31.25959010" lon="34.48979490">
        <ele>113.00000</ele>
        <time>2010-01-01T02:41:22Z</time>
      </trkpt>
      <trkpt lat="31.25996340" lon="34.48979190">
        <ele>113.00000</ele>
        <time>2010-01-01T02:41:37Z</time>
      </trkpt>
      <trkpt lat="31.26058930" lon="34.48981570">
        <ele>112.00000</ele>
        <time>2010-01-01T02:42:02Z</time>
      </trkpt>
      <trkpt lat="31.26106010" lon="34.48985830">
        <ele>112.00000</ele>
        <time>2010-01-01T02:42:21Z</time>
      </trkpt>
      <trkpt lat="31.26141000" lon="34.48998930">
        <ele>112.00000</ele>
        <time>2010-01-01T02:42:36Z</time>
      </trkpt>
      <trkpt lat="31.26149760" lon="34.49004630">
        <ele>112.00000</ele>
        <time>2010-01-01T02:42:40Z</time>
      </trkpt>
      <trkpt lat="31.26162070" lon="34.49015820">
        <ele>112.00000</ele>
        <time>2010-01-01T02:42:46Z</time>
      </trkpt>
      <trkpt lat="31.26188470" lon="34.49039220">
        <ele>111.00000</ele>
        <time>2010-01-01T02:42:59Z</time>
      </trkpt>
      <trkpt lat="31.26229550" lon="34.49080720">
        <ele>112.00000</ele>
        <time>2010-01-01T02:43:21Z</time>
      </trkpt>
      <trkpt lat="31.26244000" lon="34.49105490">
        <ele>112.00000</ele>
        <time>2010-01-01T02:43:31Z</time>
      </trkpt>
      <trkpt lat="31.26264530" lon="34.49132630">
        <ele>111.00000</ele>
        <time>2010-01-01T02:43:43Z</time>
      </trkpt>
      <trkpt lat="31.26285150" lon="34.49149470">
        <ele>110.00000</ele>
        <time>2010-01-01T02:43:54Z</time>
      </trkpt>
      <trkpt lat="31.26307200" lon="34.49169030">
        <ele>110.00000</ele>
        <time>2010-01-01T02:44:05Z</time>
      </trkpt>
      <trkpt lat="31.26328800" lon="34.49191670">
        <ele>109.00000</ele>
        <time>2010-01-01T02:44:16Z</time>
      </trkpt>
      <trkpt lat="31.26335480" lon="34.49200030">
        <ele>109.00000</ele>
        <time>2010-01-01T02:44:20Z</time>
      </trkpt>
      <trkpt lat="31.26350770" lon="34.49206860">
        <ele>109.00000</ele>
        <time>2010-01-01T02:44:27Z</time>
      </trkpt>
      <trkpt lat="31.26369160" lon="34.49210540">
        <ele>109.00000</ele>
        <time>2010-01-01T02:44:34Z</time>
      </trkpt>
      <trkpt lat="31.26372560" lon="34.49213210">
        <ele>109.00000</ele>
        <time>2010-01-01T02:44:36Z</time>
      </trkpt>
      <trkpt lat="31.26409440" lon="34.49237180">
        <ele>107.00000</ele>
        <time>2010-01-01T02:44:53Z</time>
      </trkpt>
      <trkpt lat="31.26456390" lon="34.49257240">
        <ele>107.00000</ele>
        <time>2010-01-01T02:45:13Z</time>
      </trkpt>
      <trkpt lat="31.26479780" lon="34.49270060">
        <ele>107.00000</ele>
        <time>2010-01-01T02:45:23Z</time>
      </trkpt>
      <trkpt lat="31.26510630" lon="34.49289580">
        <ele>108.00000</ele>
        <time>2010-01-01T02:45:37Z</time>
      </trkpt>
      <trkpt lat="31.26543670" lon="34.49297460">
        <ele>107.00000</ele>
        <time>2010-01-01T02:45:51Z</time>
      </trkpt>
      <trkpt lat="31.26548330" lon="34.49297570">
        <ele>107.00000</ele>
        <time>2010-01-01T02:45:52Z</time>
      </trkpt>
      <trkpt lat="31.26571650" lon="34.49291620">
        <ele>108.00000</ele>
        <time>2010-01-01T02:46:02Z</time>
      </trkpt>
      <trkpt lat="31.26585560" lon="34.49285350">
        <ele>108.00000</ele>
        <time>2010-01-01T02:46:08Z</time>
      </trkpt>
      <trkpt lat="31.26605520" lon="34.49281080">
        <ele>108.00000</ele>
        <time>2010-01-01T02:46:16Z</time>
      </trkpt>
      <trkpt lat="31.26614680" lon="34.49280890">
        <ele>108.00000</ele>
        <time>2010-01-01T02:46:20Z</time>
      </trkpt>
      <trkpt lat="31.26644990" lon="34.49280980">
        <ele>108.00000</ele>
        <time>2010-01-01T02:46:32Z</time>
      </trkpt>
      <trkpt lat="31.26661690" lon="34.49276650">
        <ele>108.00000</ele>
        <time>2010-01-01T02:46:39Z</time>
      </trkpt>
      <trkpt lat="31.26674410" lon="34.49261420">
        <ele>109.00000</ele>
        <time>2010-01-01T02:46:46Z</time>
      </trkpt>
      <trkpt lat="31.26683110" lon="34.49239190">
        <ele>109.00000</ele>
        <time>2010-01-01T02:46:54Z</time>
      </trkpt>
      <trkpt lat="31.26702760" lon="34.49209500">
        <ele>107.00000</ele>
        <time>2010-01-01T02:47:07Z</time>
      </trkpt>
      <trkpt lat="31.26708190" lon="34.49203730">
        <ele>107.00000</ele>
        <time>2010-01-01T02:47:10Z</time>
      </trkpt>
      <trkpt lat="31.26730780" lon="34.49189540">
        <ele>105.00000</ele>
        <time>2010-01-01T02:47:20Z</time>
      </trkpt>
      <trkpt lat="31.26757770" lon="34.49182940">
        <ele>104.00000</ele>
        <time>2010-01-01T02:47:31Z</time>
      </trkpt>
      <trkpt lat="31.26770820" lon="34.49174340">
        <ele>103.00000</ele>
        <time>2010-01-01T02:47:37Z</time>
      </trkpt>
      <trkpt lat="31.26773150" lon="34.49172290">
        <ele>103.00000</ele>
        <time>2010-01-01T02:47:39Z</time>
      </trkpt>
      <trkpt lat="31.26785650" lon="34.49156420">
        <ele>102.00000</ele>
        <time>2010-01-01T02:47:46Z</time>
      </trkpt>
      <trkpt lat="31.26798340" lon="34.49122610">
        <ele>100.00000</ele>
        <time>2010-01-01T02:47:59Z</time>
      </trkpt>
      <trkpt lat="31.26802950" lon="34.49099480">
        <ele>99.000000</ele>
        <time>2010-01-01T02:48:07Z</time>
      </trkpt>
      <trkpt lat="31.26816410" lon="34.49059490">
        <ele>98.000000</ele>
        <time>2010-01-01T02:48:22Z</time>
      </trkpt>
      <trkpt lat="31.26829700" lon="34.49018930">
        <ele>98.000000</ele>
        <time>2010-01-01T02:48:36Z</time>
      </trkpt>
      <trkpt lat="31.26838730" lon="34.48992920">
        <ele>98.000000</ele>
        <time>2010-01-01T02:48:46Z</time>
      </trkpt>
      <trkpt lat="31.26848470" lon="34.48968460">
        <ele>97.000000</ele>
        <time>2010-01-01T02:48:55Z</time>
      </trkpt>
      <trkpt lat="31.26854380" lon="34.48966640">
        <ele>96.000000</ele>
        <time>2010-01-01T02:48:58Z</time>
      </trkpt>
      <trkpt lat="31.26858580" lon="34.48954710">
        <ele>96.000000</ele>
        <time>2010-01-01T02:49:02Z</time>
      </trkpt>
      <trkpt lat="31.26858140" lon="34.48938590">
        <ele>96.000000</ele>
        <time>2010-01-01T02:49:08Z</time>
      </trkpt>
      <trkpt lat="31.26856590" lon="34.48926410">
        <ele>96.000000</ele>
        <time>2010-01-01T02:49:12Z</time>
      </trkpt>
      <trkpt lat="31.26855220" lon="34.48913310">
        <ele>96.000000</ele>
        <time>2010-01-01T02:49:16Z</time>
      </trkpt>
      <trkpt lat="31.26853990" lon="34.48898390">
        <ele>96.000000</ele>
        <time>2010-01-01T02:49:21Z</time>
      </trkpt>
      <trkpt lat="31.26851040" lon="34.48868540">
        <ele>95.000000</ele>
        <time>2010-01-01T02:49:32Z</time>
      </trkpt>
      <trkpt lat="31.26850700" lon="34.48833050">
        <ele>94.000000</ele>
        <time>2010-01-01T02:49:44Z</time>
      </trkpt>
      <trkpt lat="31.26851040" lon="34.48795410">
        <ele>95.000000</ele>
        <time>2010-01-01T02:49:57Z</time>
      </trkpt>
      <trkpt lat="31.26846480" lon="34.48776180">
        <ele>96.000000</ele>
        <time>2010-01-01T02:50:04Z</time>
      </trkpt>
      <trkpt lat="31.26831430" lon="34.48746810">
        <ele>96.000000</ele>
        <time>2010-01-01T02:50:15Z</time>
      </trkpt>
      <trkpt lat="31.26826360" lon="34.48737130">
        <ele>98.000000</ele>
        <time>2010-01-01T02:50:19Z</time>
      </trkpt>
      <trkpt lat="31.26825520" lon="34.48735070">
        <ele>98.000000</ele>
        <time>2010-01-01T02:50:20Z</time>
      </trkpt>
      <trkpt lat="31.26822510" lon="34.48732040">
        <ele>98.000000</ele>
        <time>2010-01-01T02:50:22Z</time>
      </trkpt>
      <trkpt lat="31.26821770" lon="34.48730740">
        <ele>99.000000</ele>
        <time>2010-01-01T02:50:22Z</time>
      </trkpt>
      <trkpt lat="31.26821430" lon="34.48730920">
        <ele>99.000000</ele>
        <time>2010-01-01T02:50:22Z</time>
      </trkpt>
      <trkpt lat="31.26821520" lon="34.48730920">
        <ele>99.000000</ele>
        <time>2010-01-01T02:50:22Z</time>
      </trkpt>
      <trkpt lat="31.26821430" lon="34.48731030">
        <ele>99.000000</ele>
        <time>2010-01-01T02:50:22Z</time>
      </trkpt>
      <trkpt lat="31.26821290" lon="34.48731320">
        <ele>99.000000</ele>
        <time>2010-01-01T02:50:22Z</time>
      </trkpt>
      <trkpt lat="31.26821330" lon="34.48731320">
        <ele>99.000000</ele>
        <time>2010-01-01T02:50:22Z</time>
      </trkpt>
      <trkpt lat="31.26821430" lon="34.48731330">
        <ele>99.000000</ele>
        <time>2010-01-01T02:50:22Z</time>
      </trkpt>
      <trkpt lat="31.26822860" lon="34.48729930">
        <ele>99.000000</ele>
        <time>2010-01-01T02:50:23Z</time>
      </trkpt>
      <trkpt lat="31.26822920" lon="34.48730500">
        <ele>99.000000</ele>
        <time>2010-01-01T02:50:23Z</time>
      </trkpt>
      <trkpt lat="31.26823300" lon="34.48730450">
        <ele>98.000000</ele>
        <time>2010-01-01T02:50:24Z</time>
      </trkpt>
      <trkpt lat="31.26823660" lon="34.48731340">
        <ele>98.000000</ele>
        <time>2010-01-01T02:50:24Z</time>
      </trkpt>
      <trkpt lat="31.26822100" lon="34.48731060">
        <ele>99.000000</ele>
        <time>2010-01-01T02:50:24Z</time>
      </trkpt>
      <trkpt lat="31.26821860" lon="34.48730850">
        <ele>99.000000</ele>
        <time>2010-01-01T02:50:25Z</time>
      </trkpt>
      <trkpt lat="31.26821250" lon="34.48730550">
        <ele>99.000000</ele>
        <time>2010-01-01T02:50:25Z</time>
      </trkpt>
      <trkpt lat="31.26817860" lon="34.48726720">
        <ele>99.000000</ele>
        <time>2010-01-01T02:50:27Z</time>
      </trkpt>
      <trkpt lat="31.26817390" lon="34.48726280">
        <ele>99.000000</ele>
        <time>2010-01-01T02:50:27Z</time>
      </trkpt>
      <trkpt lat="31.26817400" lon="34.48726400">
        <ele>99.000000</ele>
        <time>2010-01-01T02:50:27Z</time>
      </trkpt>
      <trkpt lat="31.26816830" lon="34.48725840">
        <ele>99.000000</ele>
        <time>2010-01-01T02:50:27Z</time>
      </trkpt>
      <trkpt lat="31.26817110" lon="34.48725170">
        <ele>99.000000</ele>
        <time>2010-01-01T02:50:28Z</time>
      </trkpt>
      <trkpt lat="31.26817080" lon="34.48724710">
        <ele>99.000000</ele>
        <time>2010-01-01T02:50:28Z</time>
      </trkpt>
      <trkpt lat="31.26815220" lon="34.48722760">
        <ele>100.00000</ele>
        <time>2010-01-01T02:50:29Z</time>
      </trkpt>
      <trkpt lat="31.26809680" lon="34.48710920">
        <ele>101.00000</ele>
        <time>2010-01-01T02:50:33Z</time>
      </trkpt>
      <trkpt lat="31.26800040" lon="34.48691860">
        <ele>102.00000</ele>
        <time>2010-01-01T02:50:41Z</time>
      </trkpt>
      <trkpt lat="31.26794240" lon="34.48677780">
        <ele>103.00000</ele>
        <time>2010-01-01T02:50:46Z</time>
      </trkpt>
      <trkpt lat="31.26789610" lon="34.48667200">
        <ele>103.00000</ele>
        <time>2010-01-01T02:50:50Z</time>
      </trkpt>
      <trkpt lat="31.26780140" lon="34.48646370">
        <ele>103.00000</ele>
        <time>2010-01-01T02:50:58Z</time>
      </trkpt>
      <trkpt lat="31.26768340" lon="34.48613220">
        <ele>102.00000</ele>
        <time>2010-01-01T02:51:11Z</time>
      </trkpt>
      <trkpt lat="31.26768890" lon="34.48590820">
        <ele>102.00000</ele>
        <time>2010-01-01T02:51:18Z</time>
      </trkpt>
      <trkpt lat="31.26775130" lon="34.48559100">
        <ele>103.00000</ele>
        <time>2010-01-01T02:51:29Z</time>
      </trkpt>
      <trkpt lat="31.26784960" lon="34.48541870">
        <ele>104.00000</ele>
        <time>2010-01-01T02:51:37Z</time>
      </trkpt>
      <trkpt lat="31.26803510" lon="34.48528220">
        <ele>105.00000</ele>
        <time>2010-01-01T02:51:45Z</time>
      </trkpt>
      <trkpt lat="31.26825580" lon="34.48510360">
        <ele>106.00000</ele>
        <time>2010-01-01T02:51:56Z</time>
      </trkpt>
      <trkpt lat="31.26838630" lon="34.48495610">
        <ele>107.00000</ele>
        <time>2010-01-01T02:52:03Z</time>
      </trkpt>
      <trkpt lat="31.26852990" lon="34.48484250">
        <ele>108.00000</ele>
        <time>2010-01-01T02:52:10Z</time>
      </trkpt>
      <trkpt lat="31.26881150" lon="34.48477980">
        <ele>108.00000</ele>
        <time>2010-01-01T02:52:22Z</time>
      </trkpt>
      <trkpt lat="31.26906220" lon="34.48476430">
        <ele>108.00000</ele>
        <time>2010-01-01T02:52:32Z</time>
      </trkpt>
      <trkpt lat="31.26928430" lon="34.48480700">
        <ele>108.00000</ele>
        <time>2010-01-01T02:52:41Z</time>
      </trkpt>
      <trkpt lat="31.26941570" lon="34.48482220">
        <ele>107.00000</ele>
        <time>2010-01-01T02:52:46Z</time>
      </trkpt>
      <trkpt lat="31.26944330" lon="34.48483860">
        <ele>107.00000</ele>
        <time>2010-01-01T02:52:47Z</time>
      </trkpt>
      <trkpt lat="31.26944770" lon="34.48483710">
        <ele>107.00000</ele>
        <time>2010-01-01T02:52:48Z</time>
      </trkpt>
      <trkpt lat="31.26945130" lon="34.48483940">
        <ele>107.00000</ele>
        <time>2010-01-01T02:52:48Z</time>
      </trkpt>
      <trkpt lat="31.26945500" lon="34.48483820">
        <ele>107.00000</ele>
        <time>2010-01-01T02:52:48Z</time>
      </trkpt>
      <trkpt lat="31.26945990" lon="34.48483320">
        <ele>107.00000</ele>
        <time>2010-01-01T02:52:48Z</time>
      </trkpt>
      <trkpt lat="31.26946390" lon="34.48482940">
        <ele>107.00000</ele>
        <time>2010-01-01T02:52:48Z</time>
      </trkpt>
      <trkpt lat="31.26946670" lon="34.48482580">
        <ele>107.00000</ele>
        <time>2010-01-01T02:52:48Z</time>
      </trkpt>
      <trkpt lat="31.26946740" lon="34.48482540">
        <ele>107.00000</ele>
        <time>2010-01-01T02:52:48Z</time>
      </trkpt>
      <trkpt lat="31.26946840" lon="34.48482180">
        <ele>107.00000</ele>
        <time>2010-01-01T02:52:49Z</time>
      </trkpt>
      <trkpt lat="31.26946770" lon="34.48481990">
        <ele>107.00000</ele>
        <time>2010-01-01T02:52:49Z</time>
      </trkpt>
      <trkpt lat="31.26948720" lon="34.48483940">
        <ele>107.00000</ele>
        <time>2010-01-01T02:52:50Z</time>
      </trkpt>
      <trkpt lat="31.26955140" lon="34.48489990">
        <ele>106.00000</ele>
        <time>2010-01-01T02:52:53Z</time>
      </trkpt>
      <trkpt lat="31.26967640" lon="34.48502020">
        <ele>105.00000</ele>
        <time>2010-01-01T02:52:59Z</time>
      </trkpt>
      <trkpt lat="31.26976690" lon="34.48511690">
        <ele>104.00000</ele>
        <time>2010-01-01T02:53:04Z</time>
      </trkpt>
      <trkpt lat="31.26993760" lon="34.48530090">
        <ele>103.00000</ele>
        <time>2010-01-01T02:53:14Z</time>
      </trkpt>
      <trkpt lat="31.26997480" lon="34.48533870">
        <ele>102.00000</ele>
        <time>2010-01-01T02:53:16Z</time>
      </trkpt>
      <trkpt lat="31.27005440" lon="34.48540640">
        <ele>102.00000</ele>
        <time>2010-01-01T02:53:20Z</time>
      </trkpt>
      <trkpt lat="31.27009630" lon="34.48543710">
        <ele>101.00000</ele>
        <time>2010-01-01T02:53:22Z</time>
      </trkpt>
      <trkpt lat="31.27033520" lon="34.48547260">
        <ele>101.00000</ele>
        <time>2010-01-01T02:53:31Z</time>
      </trkpt>
      <trkpt lat="31.27045420" lon="34.48536660">
        <ele>101.00000</ele>
        <time>2010-01-01T02:53:37Z</time>
      </trkpt>
      <trkpt lat="31.27052720" lon="34.48514390">
        <ele>102.00000</ele>
        <time>2010-01-01T02:53:45Z</time>
      </trkpt>
      <trkpt lat="31.27053430" lon="34.48502350">
        <ele>102.00000</ele>
        <time>2010-01-01T02:53:49Z</time>
      </trkpt>
      <trkpt lat="31.27060440" lon="34.48467510">
        <ele>104.00000</ele>
        <time>2010-01-01T02:54:02Z</time>
      </trkpt>
      <trkpt lat="31.27064070" lon="34.48463470">
        <ele>104.00000</ele>
        <time>2010-01-01T02:54:04Z</time>
      </trkpt>
      <trkpt lat="31.27081450" lon="34.48456850">
        <ele>104.00000</ele>
        <time>2010-01-01T02:54:11Z</time>
      </trkpt>
      <trkpt lat="31.27102610" lon="34.48464810">
        <ele>105.00000</ele>
        <time>2010-01-01T02:54:20Z</time>
      </trkpt>
      <trkpt lat="31.27106420" lon="34.48467820">
        <ele>105.00000</ele>
        <time>2010-01-01T02:54:22Z</time>
      </trkpt>
      <trkpt lat="31.27137570" lon="34.48503410">
        <ele>104.00000</ele>
        <time>2010-01-01T02:54:39Z</time>
      </trkpt>
      <trkpt lat="31.27167580" lon="34.48547440">
        <ele>106.00000</ele>
        <time>2010-01-01T02:54:58Z</time>
      </trkpt>
      <trkpt lat="31.27186140" lon="34.48586650">
        <ele>108.00000</ele>
        <time>2010-01-01T02:55:14Z</time>
      </trkpt>
      <trkpt lat="31.27200450" lon="34.48638900">
        <ele>106.00000</ele>
        <time>2010-01-01T02:55:33Z</time>
      </trkpt>
      <trkpt lat="31.27220150" lon="34.48696100">
        <ele>104.00000</ele>
        <time>2010-01-01T02:55:54Z</time>
      </trkpt>
      <trkpt lat="31.27230510" lon="34.48727130">
        <ele>104.00000</ele>
        <time>2010-01-01T02:56:05Z</time>
      </trkpt>
      <trkpt lat="31.27238780" lon="34.48756510">
        <ele>103.00000</ele>
        <time>2010-01-01T02:56:16Z</time>
      </trkpt>
      <trkpt lat="31.27243140" lon="34.48775750">
        <ele>100.00000</ele>
        <time>2010-01-01T02:56:22Z</time>
      </trkpt>
      <trkpt lat="31.27246260" lon="34.48791370">
        <ele>98.000000</ele>
        <time>2010-01-01T02:56:28Z</time>
      </trkpt>
      <trkpt lat="31.27247340" lon="34.48794570">
        <ele>98.000000</ele>
        <time>2010-01-01T02:56:29Z</time>
      </trkpt>
      <trkpt lat="31.27247490" lon="34.48794380">
        <ele>98.000000</ele>
        <time>2010-01-01T02:56:29Z</time>
      </trkpt>
      <trkpt lat="31.27248110" lon="34.48791820">
        <ele>98.000000</ele>
        <time>2010-01-01T02:56:30Z</time>
      </trkpt>
      <trkpt lat="31.27256430" lon="34.48782090">
        <ele>100.00000</ele>
        <time>2010-01-01T02:56:35Z</time>
      </trkpt>
      <trkpt lat="31.27264910" lon="34.48781620">
        <ele>101.00000</ele>
        <time>2010-01-01T02:56:38Z</time>
      </trkpt>
      <trkpt lat="31.27267960" lon="34.48782240">
        <ele>101.00000</ele>
        <time>2010-01-01T02:56:40Z</time>
      </trkpt>
      <trkpt lat="31.27290550" lon="34.48783040">
        <ele>102.00000</ele>
        <time>2010-01-01T02:56:49Z</time>
      </trkpt>
      <trkpt lat="31.27322740" lon="34.48786560">
        <ele>102.00000</ele>
        <time>2010-01-01T02:57:01Z</time>
      </trkpt>
      <trkpt lat="31.27334760" lon="34.48789140">
        <ele>102.00000</ele>
        <time>2010-01-01T02:57:06Z</time>
      </trkpt>
      <trkpt lat="31.27380420" lon="34.48805570">
        <ele>101.00000</ele>
        <time>2010-01-01T02:57:26Z</time>
      </trkpt>
      <trkpt lat="31.27417930" lon="34.48819840">
        <ele>100.00000</ele>
        <time>2010-01-01T02:57:41Z</time>
      </trkpt>
      <trkpt lat="31.27426500" lon="34.48823650">
        <ele>100.00000</ele>
        <time>2010-01-01T02:57:45Z</time>
      </trkpt>
      <trkpt lat="31.27450790" lon="34.48823460">
        <ele>100.00000</ele>
        <time>2010-01-01T02:57:55Z</time>
      </trkpt>
      <trkpt lat="31.27456360" lon="34.48821340">
        <ele>100.00000</ele>
        <time>2010-01-01T02:57:57Z</time>
      </trkpt>
      <trkpt lat="31.27466420" lon="34.48816390">
        <ele>100.00000</ele>
        <time>2010-01-01T02:58:01Z</time>
      </trkpt>
      <trkpt lat="31.27499870" lon="34.48791160">
        <ele>101.00000</ele>
        <time>2010-01-01T02:58:17Z</time>
      </trkpt>
      <trkpt lat="31.27512850" lon="34.48776550">
        <ele>101.00000</ele>
        <time>2010-01-01T02:58:25Z</time>
      </trkpt>
      <trkpt lat="31.27514620" lon="34.48754490">
        <ele>102.00000</ele>
        <time>2010-01-01T02:58:32Z</time>
      </trkpt>
      <trkpt lat="31.27514410" lon="34.48749400">
        <ele>102.00000</ele>
        <time>2010-01-01T02:58:34Z</time>
      </trkpt>
      <trkpt lat="31.27505100" lon="34.48713870">
        <ele>103.00000</ele>
        <time>2010-01-01T02:58:47Z</time>
      </trkpt>
      <trkpt lat="31.27500520" lon="34.48697760">
        <ele>104.00000</ele>
        <time>2010-01-01T02:58:52Z</time>
      </trkpt>
      <trkpt lat="31.27501320" lon="34.48665730">
        <ele>105.00000</ele>
        <time>2010-01-01T02:59:03Z</time>
      </trkpt>
      <trkpt lat="31.27511680" lon="34.48655450">
        <ele>105.00000</ele>
        <time>2010-01-01T02:59:09Z</time>
      </trkpt>
      <trkpt lat="31.27524790" lon="34.48656110">
        <ele>104.00000</ele>
        <time>2010-01-01T02:59:14Z</time>
      </trkpt>
      <trkpt lat="31.27539580" lon="34.48667920">
        <ele>103.00000</ele>
        <time>2010-01-01T02:59:21Z</time>
      </trkpt>
      <trkpt lat="31.27542600" lon="34.48672360">
        <ele>103.00000</ele>
        <time>2010-01-01T02:59:23Z</time>
      </trkpt>
      <trkpt lat="31.27569020" lon="34.48721930">
        <ele>101.00000</ele>
        <time>2010-01-01T02:59:43Z</time>
      </trkpt>
      <trkpt lat="31.27572850" lon="34.48734230">
        <ele>101.00000</ele>
        <time>2010-01-01T02:59:48Z</time>
      </trkpt>
      <trkpt lat="31.27578430" lon="34.48773160">
        <ele>100.00000</ele>
        <time>2010-01-01T03:00:01Z</time>
      </trkpt>
      <trkpt lat="31.27585990" lon="34.48802760">
        <ele>100.00000</ele>
        <time>2010-01-01T03:00:12Z</time>
      </trkpt>
      <trkpt lat="31.27588240" lon="34.48813260">
        <ele>99.000000</ele>
        <time>2010-01-01T03:00:15Z</time>
      </trkpt>
      <trkpt lat="31.27596060" lon="34.48838170">
        <ele>98.000000</ele>
        <time>2010-01-01T03:00:24Z</time>
      </trkpt>
      <trkpt lat="31.27604670" lon="34.48865250">
        <ele>95.000000</ele>
        <time>2010-01-01T03:00:34Z</time>
      </trkpt>
      <trkpt lat="31.27614820" lon="34.48897460">
        <ele>92.000000</ele>
        <time>2010-01-01T03:00:46Z</time>
      </trkpt>
      <trkpt lat="31.27623000" lon="34.48933950">
        <ele>90.000000</ele>
        <time>2010-01-01T03:00:59Z</time>
      </trkpt>
      <trkpt lat="31.27626430" lon="34.48949310">
        <ele>89.000000</ele>
        <time>2010-01-01T03:01:04Z</time>
      </trkpt>
      <trkpt lat="31.27639780" lon="34.48968000">
        <ele>89.000000</ele>
        <time>2010-01-01T03:01:13Z</time>
      </trkpt>
      <trkpt lat="31.27661710" lon="34.48984640">
        <ele>88.000000</ele>
        <time>2010-01-01T03:01:23Z</time>
      </trkpt>
      <trkpt lat="31.27683070" lon="34.48998040">
        <ele>88.000000</ele>
        <time>2010-01-01T03:01:33Z</time>
      </trkpt>
      <trkpt lat="31.27688630" lon="34.49001680">
        <ele>88.000000</ele>
        <time>2010-01-01T03:01:35Z</time>
      </trkpt>
      <trkpt lat="31.27710330" lon="34.49013680">
        <ele>87.000000</ele>
        <time>2010-01-01T03:01:45Z</time>
      </trkpt>
      <trkpt lat="31.27728570" lon="34.49038230">
        <ele>86.000000</ele>
        <time>2010-01-01T03:01:56Z</time>
      </trkpt>
      <trkpt lat="31.27737650" lon="34.49053830">
        <ele>85.000000</ele>
        <time>2010-01-01T03:02:03Z</time>
      </trkpt>
      <trkpt lat="31.27750890" lon="34.49063230">
        <ele>85.000000</ele>
        <time>2010-01-01T03:02:09Z</time>
      </trkpt>
      <trkpt lat="31.27755510" lon="34.49064550">
        <ele>85.000000</ele>
        <time>2010-01-01T03:02:11Z</time>
      </trkpt>
      <trkpt lat="31.27793160" lon="34.49067910">
        <ele>84.000000</ele>
        <time>2010-01-01T03:02:26Z</time>
      </trkpt>
      <trkpt lat="31.27811230" lon="34.49069320">
        <ele>84.000000</ele>
        <time>2010-01-01T03:02:33Z</time>
      </trkpt>
      <trkpt lat="31.27849370" lon="34.49069590">
        <ele>83.000000</ele>
        <time>2010-01-01T03:02:48Z</time>
      </trkpt>
      <trkpt lat="31.27867600" lon="34.49064770">
        <ele>83.000000</ele>
        <time>2010-01-01T03:02:56Z</time>
      </trkpt>
      <trkpt lat="31.27878380" lon="34.49059690">
        <ele>83.000000</ele>
        <time>2010-01-01T03:03:01Z</time>
      </trkpt>
      <trkpt lat="31.27887080" lon="34.49053690">
        <ele>83.000000</ele>
        <time>2010-01-01T03:03:05Z</time>
      </trkpt>
      <trkpt lat="31.27905510" lon="34.49031620">
        <ele>83.000000</ele>
        <time>2010-01-01T03:03:15Z</time>
      </trkpt>
      <trkpt lat="31.27924170" lon="34.48999240">
        <ele>84.000000</ele>
        <time>2010-01-01T03:03:29Z</time>
      </trkpt>
      <trkpt lat="31.27933290" lon="34.48960430">
        <ele>83.000000</ele>
        <time>2010-01-01T03:03:42Z</time>
      </trkpt>
      <trkpt lat="31.27937860" lon="34.48912050">
        <ele>83.000000</ele>
        <time>2010-01-01T03:03:59Z</time>
      </trkpt>
      <trkpt lat="31.27937700" lon="34.48870360">
        <ele>82.000000</ele>
        <time>2010-01-01T03:04:13Z</time>
      </trkpt>
      <trkpt lat="31.27936790" lon="34.48864610">
        <ele>82.000000</ele>
        <time>2010-01-01T03:04:15Z</time>
      </trkpt>
      <trkpt lat="31.27941070" lon="34.48837560">
        <ele>82.000000</ele>
        <time>2010-01-01T03:04:25Z</time>
      </trkpt>
      <trkpt lat="31.27951370" lon="34.48813780">
        <ele>81.000000</ele>
        <time>2010-01-01T03:04:34Z</time>
      </trkpt>
      <trkpt lat="31.27952550" lon="34.48807720">
        <ele>81.000000</ele>
        <time>2010-01-01T03:04:36Z</time>
      </trkpt>
      <trkpt lat="31.27946290" lon="34.48799140">
        <ele>82.000000</ele>
        <time>2010-01-01T03:04:40Z</time>
      </trkpt>
      <trkpt lat="31.27937110" lon="34.48801360">
        <ele>82.000000</ele>
        <time>2010-01-01T03:04:43Z</time>
      </trkpt>
      <trkpt lat="31.27932590" lon="34.48804220">
        <ele>83.000000</ele>
        <time>2010-01-01T03:04:46Z</time>
      </trkpt>
      <trkpt lat="31.27916610" lon="34.48805660">
        <ele>83.000000</ele>
        <time>2010-01-01T03:04:52Z</time>
      </trkpt>
      <trkpt lat="31.27903720" lon="34.48797210">
        <ele>84.000000</ele>
        <time>2010-01-01T03:04:58Z</time>
      </trkpt>
      <trkpt lat="31.27888910" lon="34.48782200">
        <ele>85.000000</ele>
        <time>2010-01-01T03:05:06Z</time>
      </trkpt>
      <trkpt lat="31.27874250" lon="34.48760970">
        <ele>86.000000</ele>
        <time>2010-01-01T03:05:15Z</time>
      </trkpt>
      <trkpt lat="31.27866290" lon="34.48736040">
        <ele>87.000000</ele>
        <time>2010-01-01T03:05:24Z</time>
      </trkpt>
      <trkpt lat="31.27854010" lon="34.48717130">
        <ele>88.000000</ele>
        <time>2010-01-01T03:05:32Z</time>
      </trkpt>
      <trkpt lat="31.27840450" lon="34.48698380">
        <ele>89.000000</ele>
        <time>2010-01-01T03:05:41Z</time>
      </trkpt>
      <trkpt lat="31.27827300" lon="34.48676880">
        <ele>90.000000</ele>
        <time>2010-01-01T03:05:50Z</time>
      </trkpt>
      <trkpt lat="31.27820060" lon="34.48653170">
        <ele>92.000000</ele>
        <time>2010-01-01T03:05:58Z</time>
      </trkpt>
      <trkpt lat="31.27814360" lon="34.48636100">
        <ele>93.000000</ele>
        <time>2010-01-01T03:06:05Z</time>
      </trkpt>
      <trkpt lat="31.27806650" lon="34.48611770">
        <ele>94.000000</ele>
        <time>2010-01-01T03:06:13Z</time>
      </trkpt>
      <trkpt lat="31.27798770" lon="34.48587730">
        <ele>96.000000</ele>
        <time>2010-01-01T03:06:22Z</time>
      </trkpt>
      <trkpt lat="31.27789620" lon="34.48569920">
        <ele>97.000000</ele>
        <time>2010-01-01T03:06:29Z</time>
      </trkpt>
      <trkpt lat="31.27778560" lon="34.48554520">
        <ele>98.000000</ele>
        <time>2010-01-01T03:06:36Z</time>
      </trkpt>
      <trkpt lat="31.27767450" lon="34.48542580">
        <ele>100.00000</ele>
        <time>2010-01-01T03:06:42Z</time>
      </trkpt>
      <trkpt lat="31.27756180" lon="34.48533240">
        <ele>101.00000</ele>
        <time>2010-01-01T03:06:48Z</time>
      </trkpt>
      <trkpt lat="31.27741050" lon="34.48526070">
        <ele>102.00000</ele>
        <time>2010-01-01T03:06:54Z</time>
      </trkpt>
      <trkpt lat="31.27727860" lon="34.48519620">
        <ele>103.00000</ele>
        <time>2010-01-01T03:07:00Z</time>
      </trkpt>
      <trkpt lat="31.27716760" lon="34.48508770">
        <ele>104.00000</ele>
        <time>2010-01-01T03:07:06Z</time>
      </trkpt>
      <trkpt lat="31.27700580" lon="34.48486560">
        <ele>105.00000</ele>
        <time>2010-01-01T03:07:16Z</time>
      </trkpt>
      <trkpt lat="31.27689110" lon="34.48462380">
        <ele>106.00000</ele>
        <time>2010-01-01T03:07:25Z</time>
      </trkpt>
      <trkpt lat="31.27678170" lon="34.48420170">
        <ele>106.00000</ele>
        <time>2010-01-01T03:07:40Z</time>
      </trkpt>
      <trkpt lat="31.27666600" lon="34.48371500">
        <ele>102.00000</ele>
        <time>2010-01-01T03:07:58Z</time>
      </trkpt>
      <trkpt lat="31.27655960" lon="34.48318800">
        <ele>100.00000</ele>
        <time>2010-01-01T03:08:16Z</time>
      </trkpt>
      <trkpt lat="31.27640930" lon="34.48275640">
        <ele>101.00000</ele>
        <time>2010-01-01T03:08:32Z</time>
      </trkpt>
      <trkpt lat="31.27626470" lon="34.48233450">
        <ele>102.00000</ele>
        <time>2010-01-01T03:08:48Z</time>
      </trkpt>
      <trkpt lat="31.27625230" lon="34.48228660">
        <ele>102.00000</ele>
        <time>2010-01-01T03:08:49Z</time>
      </trkpt>
      <trkpt lat="31.27621140" lon="34.48195530">
        <ele>103.00000</ele>
        <time>2010-01-01T03:09:01Z</time>
      </trkpt>
      <trkpt lat="31.27608860" lon="34.48145150">
        <ele>104.00000</ele>
        <time>2010-01-01T03:09:19Z</time>
      </trkpt>
      <trkpt lat="31.27601390" lon="34.48111070">
        <ele>103.00000</ele>
        <time>2010-01-01T03:09:31Z</time>
      </trkpt>
      <trkpt lat="31.27603630" lon="34.48092260">
        <ele>102.00000</ele>
        <time>2010-01-01T03:09:37Z</time>
      </trkpt>
      <trkpt lat="31.27614280" lon="34.48079770">
        <ele>103.00000</ele>
        <time>2010-01-01T03:09:43Z</time>
      </trkpt>
      <trkpt lat="31.27629090" lon="34.48065310">
        <ele>104.00000</ele>
        <time>2010-01-01T03:09:51Z</time>
      </trkpt>
      <trkpt lat="31.27636600" lon="34.48062670">
        <ele>105.00000</ele>
        <time>2010-01-01T03:09:54Z</time>
      </trkpt>
      <trkpt lat="31.27648860" lon="34.48060490">
        <ele>106.00000</ele>
        <time>2010-01-01T03:09:59Z</time>
      </trkpt>
      <trkpt lat="31.27673230" lon="34.48059190">
        <ele>108.00000</ele>
        <time>2010-01-01T03:10:09Z</time>
      </trkpt>
      <trkpt lat="31.27701840" lon="34.48056080">
        <ele>108.00000</ele>
        <time>2010-01-01T03:10:20Z</time>
      </trkpt>
      <trkpt lat="31.27738870" lon="34.48052180">
        <ele>109.00000</ele>
        <time>2010-01-01T03:10:35Z</time>
      </trkpt>
      <trkpt lat="31.27777630" lon="34.48055430">
        <ele>110.00000</ele>
        <time>2010-01-01T03:10:51Z</time>
      </trkpt>
      <trkpt lat="31.27800400" lon="34.48060340">
        <ele>110.00000</ele>
        <time>2010-01-01T03:11:00Z</time>
      </trkpt>
      <trkpt lat="31.27825530" lon="34.48069420">
        <ele>110.00000</ele>
        <time>2010-01-01T03:11:11Z</time>
      </trkpt>
      <trkpt lat="31.27856940" lon="34.48074400">
        <ele>110.00000</ele>
        <time>2010-01-01T03:11:23Z</time>
      </trkpt>
      <trkpt lat="31.27892370" lon="34.48083210">
        <ele>110.00000</ele>
        <time>2010-01-01T03:11:38Z</time>
      </trkpt>
      <trkpt lat="31.27933710" lon="34.48099830">
        <ele>110.00000</ele>
        <time>2010-01-01T03:11:55Z</time>
      </trkpt>
      <trkpt lat="31.27960490" lon="34.48110750">
        <ele>111.00000</ele>
        <time>2010-01-01T03:12:07Z</time>
      </trkpt>
      <trkpt lat="31.27988800" lon="34.48116280">
        <ele>112.00000</ele>
        <time>2010-01-01T03:12:18Z</time>
      </trkpt>
      <trkpt lat="31.28004670" lon="34.48115620">
        <ele>112.00000</ele>
        <time>2010-01-01T03:12:25Z</time>
      </trkpt>
      <trkpt lat="31.28042180" lon="34.48117080">
        <ele>112.00000</ele>
        <time>2010-01-01T03:12:40Z</time>
      </trkpt>
      <trkpt lat="31.28078280" lon="34.48123180">
        <ele>111.00000</ele>
        <time>2010-01-01T03:12:54Z</time>
      </trkpt>
      <trkpt lat="31.28102370" lon="34.48132210">
        <ele>111.00000</ele>
        <time>2010-01-01T03:13:04Z</time>
      </trkpt>
      <trkpt lat="31.28111470" lon="34.48135400">
        <ele>112.00000</ele>
        <time>2010-01-01T03:13:08Z</time>
      </trkpt>
      <trkpt lat="31.28113810" lon="34.48140490">
        <ele>112.00000</ele>
        <time>2010-01-01T03:13:10Z</time>
      </trkpt>
      <trkpt lat="31.28113230" lon="34.48140310">
        <ele>112.00000</ele>
        <time>2010-01-01T03:13:10Z</time>
      </trkpt>
      <trkpt lat="31.28113340" lon="34.48140950">
        <ele>112.00000</ele>
        <time>2010-01-01T03:13:11Z</time>
      </trkpt>
      <trkpt lat="31.28114020" lon="34.48141780">
        <ele>112.00000</ele>
        <time>2010-01-01T03:13:11Z</time>
      </trkpt>
      <trkpt lat="31.28114010" lon="34.48141250">
        <ele>112.00000</ele>
        <time>2010-01-01T03:13:11Z</time>
      </trkpt>
      <trkpt lat="31.28114360" lon="34.48140710">
        <ele>112.00000</ele>
        <time>2010-01-01T03:13:11Z</time>
      </trkpt>
      <trkpt lat="31.28114900" lon="34.48140650">
        <ele>112.00000</ele>
        <time>2010-01-01T03:13:12Z</time>
      </trkpt>
      <trkpt lat="31.28115640" lon="34.48140330">
        <ele>112.00000</ele>
        <time>2010-01-01T03:13:12Z</time>
      </trkpt>
      <trkpt lat="31.28123550" lon="34.48130700">
        <ele>112.00000</ele>
        <time>2010-01-01T03:13:17Z</time>
      </trkpt>
      <trkpt lat="31.28133490" lon="34.48122860">
        <ele>112.00000</ele>
        <time>2010-01-01T03:13:21Z</time>
      </trkpt>
      <trkpt lat="31.28150900" lon="34.48119820">
        <ele>113.00000</ele>
        <time>2010-01-01T03:13:28Z</time>
      </trkpt>
      <trkpt lat="31.28176910" lon="34.48119570">
        <ele>112.00000</ele>
        <time>2010-01-01T03:13:39Z</time>
      </trkpt>
      <trkpt lat="31.28217310" lon="34.48121630">
        <ele>110.00000</ele>
        <time>2010-01-01T03:13:55Z</time>
      </trkpt>
      <trkpt lat="31.28238460" lon="34.48124690">
        <ele>109.00000</ele>
        <time>2010-01-01T03:14:03Z</time>
      </trkpt>
      <trkpt lat="31.28274440" lon="34.48129450">
        <ele>107.00000</ele>
        <time>2010-01-01T03:14:18Z</time>
      </trkpt>
      <trkpt lat="31.28280620" lon="34.48129750">
        <ele>106.00000</ele>
        <time>2010-01-01T03:14:20Z</time>
      </trkpt>
      <trkpt lat="31.28304850" lon="34.48128460">
        <ele>104.00000</ele>
        <time>2010-01-01T03:14:30Z</time>
      </trkpt>
      <trkpt lat="31.28327080" lon="34.48120800">
        <ele>102.00000</ele>
        <time>2010-01-01T03:14:39Z</time>
      </trkpt>
      <trkpt lat="31.28356510" lon="34.48105160">
        <ele>101.00000</ele>
        <time>2010-01-01T03:14:52Z</time>
      </trkpt>
      <trkpt lat="31.28372780" lon="34.48094710">
        <ele>100.00000</ele>
        <time>2010-01-01T03:15:00Z</time>
      </trkpt>
      <trkpt lat="31.28412640" lon="34.48085220">
        <ele>99.000000</ele>
        <time>2010-01-01T03:15:16Z</time>
      </trkpt>
      <trkpt lat="31.28418090" lon="34.48085140">
        <ele>99.000000</ele>
        <time>2010-01-01T03:15:18Z</time>
      </trkpt>
      <trkpt lat="31.28440240" lon="34.48089310">
        <ele>99.000000</ele>
        <time>2010-01-01T03:15:27Z</time>
      </trkpt>
      <trkpt lat="31.28460990" lon="34.48101340">
        <ele>98.000000</ele>
        <time>2010-01-01T03:15:37Z</time>
      </trkpt>
      <trkpt lat="31.28470100" lon="34.48109930">
        <ele>98.000000</ele>
        <time>2010-01-01T03:15:41Z</time>
      </trkpt>
      <trkpt lat="31.28498470" lon="34.48146690">
        <ele>98.000000</ele>
        <time>2010-01-01T03:15:58Z</time>
      </trkpt>
      <trkpt lat="31.28512190" lon="34.48178500">
        <ele>99.000000</ele>
        <time>2010-01-01T03:16:10Z</time>
      </trkpt>
      <trkpt lat="31.28514530" lon="34.48183460">
        <ele>99.000000</ele>
        <time>2010-01-01T03:16:12Z</time>
      </trkpt>
      <trkpt lat="31.28534880" lon="34.48216770">
        <ele>100.00000</ele>
        <time>2010-01-01T03:16:26Z</time>
      </trkpt>
      <trkpt lat="31.28550130" lon="34.48239720">
        <ele>100.00000</ele>
        <time>2010-01-01T03:16:36Z</time>
      </trkpt>
      <trkpt lat="31.28563900" lon="34.48257970">
        <ele>99.000000</ele>
        <time>2010-01-01T03:16:45Z</time>
      </trkpt>
      <trkpt lat="31.28566930" lon="34.48261750">
        <ele>99.000000</ele>
        <time>2010-01-01T03:16:46Z</time>
      </trkpt>
      <trkpt lat="31.28593750" lon="34.48280760">
        <ele>98.000000</ele>
        <time>2010-01-01T03:16:59Z</time>
      </trkpt>
      <trkpt lat="31.28623380" lon="34.48290570">
        <ele>98.000000</ele>
        <time>2010-01-01T03:17:11Z</time>
      </trkpt>
      <trkpt lat="31.28639970" lon="34.48293860">
        <ele>98.000000</ele>
        <time>2010-01-01T03:17:18Z</time>
      </trkpt>
      <trkpt lat="31.28660930" lon="34.48303200">
        <ele>97.000000</ele>
        <time>2010-01-01T03:17:27Z</time>
      </trkpt>
      <trkpt lat="31.28692240" lon="34.48316780">
        <ele>97.000000</ele>
        <time>2010-01-01T03:17:40Z</time>
      </trkpt>
      <trkpt lat="31.28723360" lon="34.48326960">
        <ele>96.000000</ele>
        <time>2010-01-01T03:17:53Z</time>
      </trkpt>
      <trkpt lat="31.28760650" lon="34.48336270">
        <ele>95.000000</ele>
        <time>2010-01-01T03:18:08Z</time>
      </trkpt>
      <trkpt lat="31.28782470" lon="34.48345600">
        <ele>94.000000</ele>
        <time>2010-01-01T03:18:18Z</time>
      </trkpt>
      <trkpt lat="31.28786120" lon="34.48347310">
        <ele>94.000000</ele>
        <time>2010-01-01T03:18:19Z</time>
      </trkpt>
      <trkpt lat="31.28811990" lon="34.48357120">
        <ele>93.000000</ele>
        <time>2010-01-01T03:18:30Z</time>
      </trkpt>
      <trkpt lat="31.28818140" lon="34.48359230">
        <ele>93.000000</ele>
        <time>2010-01-01T03:18:33Z</time>
      </trkpt>
      <trkpt lat="31.28849390" lon="34.48373270">
        <ele>92.000000</ele>
        <time>2010-01-01T03:18:46Z</time>
      </trkpt>
      <trkpt lat="31.28853840" lon="34.48376380">
        <ele>92.000000</ele>
        <time>2010-01-01T03:18:48Z</time>
      </trkpt>
      <trkpt lat="31.28857690" lon="34.48379350">
        <ele>92.000000</ele>
        <time>2010-01-01T03:18:50Z</time>
      </trkpt>
      <trkpt lat="31.28871910" lon="34.48395350">
        <ele>92.000000</ele>
        <time>2010-01-01T03:18:58Z</time>
      </trkpt>
      <trkpt lat="31.28874880" lon="34.48398510">
        <ele>92.000000</ele>
        <time>2010-01-01T03:19:00Z</time>
      </trkpt>
      <trkpt lat="31.28883930" lon="34.48409080">
        <ele>92.000000</ele>
        <time>2010-01-01T03:19:05Z</time>
      </trkpt>
      <trkpt lat="31.28900260" lon="34.48420810">
        <ele>92.000000</ele>
        <time>2010-01-01T03:19:12Z</time>
      </trkpt>
      <trkpt lat="31.28921960" lon="34.48427190">
        <ele>91.000000</ele>
        <time>2010-01-01T03:19:21Z</time>
      </trkpt>
      <trkpt lat="31.28952870" lon="34.48421870">
        <ele>92.000000</ele>
        <time>2010-01-01T03:19:34Z</time>
      </trkpt>
      <trkpt lat="31.28963600" lon="34.48409650">
        <ele>92.000000</ele>
        <time>2010-01-01T03:19:40Z</time>
      </trkpt>
      <trkpt lat="31.28982140" lon="34.48379080">
        <ele>93.000000</ele>
        <time>2010-01-01T03:19:53Z</time>
      </trkpt>
      <trkpt lat="31.29014440" lon="34.48337270">
        <ele>93.000000</ele>
        <time>2010-01-01T03:20:12Z</time>
      </trkpt>
      <trkpt lat="31.29034500" lon="34.48318720">
        <ele>94.000000</ele>
        <time>2010-01-01T03:20:22Z</time>
      </trkpt>
      <trkpt lat="31.29053150" lon="34.48304220">
        <ele>95.000000</ele>
        <time>2010-01-01T03:20:31Z</time>
      </trkpt>
      <trkpt lat="31.29064080" lon="34.48295250">
        <ele>95.000000</ele>
        <time>2010-01-01T03:20:37Z</time>
      </trkpt>
      <trkpt lat="31.29094090" lon="34.48285700">
        <ele>95.000000</ele>
        <time>2010-01-01T03:20:49Z</time>
      </trkpt>
      <trkpt lat="31.29124710" lon="34.48281590">
        <ele>95.000000</ele>
        <time>2010-01-01T03:21:01Z</time>
      </trkpt>
      <trkpt lat="31.29151390" lon="34.48284230">
        <ele>95.000000</ele>
        <time>2010-01-01T03:21:12Z</time>
      </trkpt>
      <trkpt lat="31.29178930" lon="34.48289520">
        <ele>94.000000</ele>
        <time>2010-01-01T03:21:23Z</time>
      </trkpt>
      <trkpt lat="31.29211850" lon="34.48298460">
        <ele>93.000000</ele>
        <time>2010-01-01T03:21:37Z</time>
      </trkpt>
      <trkpt lat="31.29216430" lon="34.48299720">
        <ele>93.000000</ele>
        <time>2010-01-01T03:21:39Z</time>
      </trkpt>
      <trkpt lat="31.29240070" lon="34.48315930">
        <ele>92.000000</ele>
        <time>2010-01-01T03:21:50Z</time>
      </trkpt>
      <trkpt lat="31.29265070" lon="34.48319300">
        <ele>90.000000</ele>
        <time>2010-01-01T03:22:00Z</time>
      </trkpt>
      <trkpt lat="31.29285770" lon="34.48312310">
        <ele>89.000000</ele>
        <time>2010-01-01T03:22:08Z</time>
      </trkpt>
      <trkpt lat="31.29296360" lon="34.48298330">
        <ele>89.000000</ele>
        <time>2010-01-01T03:22:15Z</time>
      </trkpt>
      <trkpt lat="31.29297910" lon="34.48291750">
        <ele>89.000000</ele>
        <time>2010-01-01T03:22:17Z</time>
      </trkpt>
      <trkpt lat="31.29297370" lon="34.48272630">
        <ele>89.000000</ele>
        <time>2010-01-01T03:22:24Z</time>
      </trkpt>
      <trkpt lat="31.29293800" lon="34.48257250">
        <ele>89.000000</ele>
        <time>2010-01-01T03:22:29Z</time>
      </trkpt>
      <trkpt lat="31.29290720" lon="34.48243420">
        <ele>90.000000</ele>
        <time>2010-01-01T03:22:34Z</time>
      </trkpt>
      <trkpt lat="31.29288850" lon="34.48236110">
        <ele>90.000000</ele>
        <time>2010-01-01T03:22:36Z</time>
      </trkpt>
      <trkpt lat="31.29281660" lon="34.48211560">
        <ele>90.000000</ele>
        <time>2010-01-01T03:22:45Z</time>
      </trkpt>
      <trkpt lat="31.29276290" lon="34.48188970">
        <ele>91.000000</ele>
        <time>2010-01-01T03:22:53Z</time>
      </trkpt>
      <trkpt lat="31.29270350" lon="34.48166900">
        <ele>91.000000</ele>
        <time>2010-01-01T03:23:01Z</time>
      </trkpt>
      <trkpt lat="31.29263230" lon="34.48118190">
        <ele>93.000000</ele>
        <time>2010-01-01T03:23:18Z</time>
      </trkpt>
      <trkpt lat="31.29261030" lon="34.48100280">
        <ele>93.000000</ele>
        <time>2010-01-01T03:23:24Z</time>
      </trkpt>
      <trkpt lat="31.29259900" lon="34.48080600">
        <ele>94.000000</ele>
        <time>2010-01-01T03:23:31Z</time>
      </trkpt>
      <trkpt lat="31.29261650" lon="34.48056460">
        <ele>94.000000</ele>
        <time>2010-01-01T03:23:39Z</time>
      </trkpt>
      <trkpt lat="31.29269340" lon="34.48045210">
        <ele>95.000000</ele>
        <time>2010-01-01T03:23:44Z</time>
      </trkpt>
      <trkpt lat="31.29284310" lon="34.48041870">
        <ele>95.000000</ele>
        <time>2010-01-01T03:23:50Z</time>
      </trkpt>
      <trkpt lat="31.29298540" lon="34.48038740">
        <ele>95.000000</ele>
        <time>2010-01-01T03:23:56Z</time>
      </trkpt>
      <trkpt lat="31.29314310" lon="34.48042430">
        <ele>95.000000</ele>
        <time>2010-01-01T03:24:03Z</time>
      </trkpt>
      <trkpt lat="31.29332390" lon="34.48050150">
        <ele>95.000000</ele>
        <time>2010-01-01T03:24:10Z</time>
      </trkpt>
      <trkpt lat="31.29336270" lon="34.48051480">
        <ele>95.000000</ele>
        <time>2010-01-01T03:24:12Z</time>
      </trkpt>
      <trkpt lat="31.29360770" lon="34.48049500">
        <ele>94.000000</ele>
        <time>2010-01-01T03:24:22Z</time>
      </trkpt>
      <trkpt lat="31.29372010" lon="34.48034750">
        <ele>94.000000</ele>
        <time>2010-01-01T03:24:29Z</time>
      </trkpt>
      <trkpt lat="31.29375000" lon="34.48024440">
        <ele>94.000000</ele>
        <time>2010-01-01T03:24:32Z</time>
      </trkpt>
      <trkpt lat="31.29382630" lon="34.47991040">
        <ele>94.000000</ele>
        <time>2010-01-01T03:24:44Z</time>
      </trkpt>
      <trkpt lat="31.29398900" lon="34.47962670">
        <ele>93.000000</ele>
        <time>2010-01-01T03:24:56Z</time>
      </trkpt>
      <trkpt lat="31.29403390" lon="34.47958400">
        <ele>93.000000</ele>
        <time>2010-01-01T03:24:58Z</time>
      </trkpt>
      <trkpt lat="31.29420070" lon="34.47945090">
        <ele>92.000000</ele>
        <time>2010-01-01T03:25:06Z</time>
      </trkpt>
      <trkpt lat="31.29435080" lon="34.47934480">
        <ele>91.000000</ele>
        <time>2010-01-01T03:25:13Z</time>
      </trkpt>
      <trkpt lat="31.29455250" lon="34.47912350">
        <ele>91.000000</ele>
        <time>2010-01-01T03:25:24Z</time>
      </trkpt>
      <trkpt lat="31.29457800" lon="34.47908460">
        <ele>91.000000</ele>
        <time>2010-01-01T03:25:26Z</time>
      </trkpt>
      <trkpt lat="31.29475340" lon="34.47875670">
        <ele>92.000000</ele>
        <time>2010-01-01T03:25:39Z</time>
      </trkpt>
      <trkpt lat="31.29478980" lon="34.47856840">
        <ele>93.000000</ele>
        <time>2010-01-01T03:25:46Z</time>
      </trkpt>
      <trkpt lat="31.29486890" lon="34.47835940">
        <ele>95.000000</ele>
        <time>2010-01-01T03:25:54Z</time>
      </trkpt>
      <trkpt lat="31.29495910" lon="34.47824550">
        <ele>95.000000</ele>
        <time>2010-01-01T03:25:59Z</time>
      </trkpt>
      <trkpt lat="31.29502080" lon="34.47817520">
        <ele>96.000000</ele>
        <time>2010-01-01T03:26:02Z</time>
      </trkpt>
      <trkpt lat="31.29515900" lon="34.47799640">
        <ele>96.000000</ele>
        <time>2010-01-01T03:26:11Z</time>
      </trkpt>
      <trkpt lat="31.29532940" lon="34.47788180">
        <ele>96.000000</ele>
        <time>2010-01-01T03:26:19Z</time>
      </trkpt>
      <trkpt lat="31.29550630" lon="34.47787510">
        <ele>95.000000</ele>
        <time>2010-01-01T03:26:26Z</time>
      </trkpt>
      <trkpt lat="31.29570340" lon="34.47797680">
        <ele>93.000000</ele>
        <time>2010-01-01T03:26:34Z</time>
      </trkpt>
      <trkpt lat="31.29577300" lon="34.47803640">
        <ele>93.000000</ele>
        <time>2010-01-01T03:26:38Z</time>
      </trkpt>
      <trkpt lat="31.29588840" lon="34.47819460">
        <ele>92.000000</ele>
        <time>2010-01-01T03:26:45Z</time>
      </trkpt>
      <trkpt lat="31.29604790" lon="34.47846880">
        <ele>93.000000</ele>
        <time>2010-01-01T03:26:56Z</time>
      </trkpt>
      <trkpt lat="31.29620130" lon="34.47874170">
        <ele>92.000000</ele>
        <time>2010-01-01T03:27:07Z</time>
      </trkpt>
      <trkpt lat="31.29627630" lon="34.47887810">
        <ele>91.000000</ele>
        <time>2010-01-01T03:27:13Z</time>
      </trkpt>
      <trkpt lat="31.29647120" lon="34.47934730">
        <ele>89.000000</ele>
        <time>2010-01-01T03:27:31Z</time>
      </trkpt>
      <trkpt lat="31.29668670" lon="34.47979590">
        <ele>89.000000</ele>
        <time>2010-01-01T03:27:48Z</time>
      </trkpt>
      <trkpt lat="31.29690930" lon="34.48019230">
        <ele>90.000000</ele>
        <time>2010-01-01T03:28:05Z</time>
      </trkpt>
      <trkpt lat="31.29702510" lon="34.48033360">
        <ele>90.000000</ele>
        <time>2010-01-01T03:28:11Z</time>
      </trkpt>
      <trkpt lat="31.29733900" lon="34.48060360">
        <ele>92.000000</ele>
        <time>2010-01-01T03:28:27Z</time>
      </trkpt>
      <trkpt lat="31.29751820" lon="34.48072740">
        <ele>92.000000</ele>
        <time>2010-01-01T03:28:35Z</time>
      </trkpt>
      <trkpt lat="31.29790920" lon="34.48099820">
        <ele>94.000000</ele>
        <time>2010-01-01T03:28:53Z</time>
      </trkpt>
      <trkpt lat="31.29812210" lon="34.48111700">
        <ele>94.000000</ele>
        <time>2010-01-01T03:29:03Z</time>
      </trkpt>
      <trkpt lat="31.29833980" lon="34.48117170">
        <ele>94.000000</ele>
        <time>2010-01-01T03:29:12Z</time>
      </trkpt>
      <trkpt lat="31.29851740" lon="34.48114540">
        <ele>95.000000</ele>
        <time>2010-01-01T03:29:19Z</time>
      </trkpt>
      <trkpt lat="31.29874890" lon="34.48102250">
        <ele>97.000000</ele>
        <time>2010-01-01T03:29:29Z</time>
      </trkpt>
      <trkpt lat="31.29884480" lon="34.48096390">
        <ele>98.000000</ele>
        <time>2010-01-01T03:29:33Z</time>
      </trkpt>
      <trkpt lat="31.29907730" lon="34.48089830">
        <ele>100.00000</ele>
        <time>2010-01-01T03:29:43Z</time>
      </trkpt>
      <trkpt lat="31.29937290" lon="34.48086130">
        <ele>99.000000</ele>
        <time>2010-01-01T03:29:55Z</time>
      </trkpt>
      <trkpt lat="31.29978800" lon="34.48084840">
        <ele>96.000000</ele>
        <time>2010-01-01T03:30:11Z</time>
      </trkpt>
      <trkpt lat="31.30016860" lon="34.48065470">
        <ele>94.000000</ele>
        <time>2010-01-01T03:30:28Z</time>
      </trkpt>
      <trkpt lat="31.30021120" lon="34.48063040">
        <ele>94.000000</ele>
        <time>2010-01-01T03:30:30Z</time>
      </trkpt>
      <trkpt lat="31.30042090" lon="34.48058490">
        <ele>93.000000</ele>
        <time>2010-01-01T03:30:39Z</time>
      </trkpt>
      <trkpt lat="31.30058100" lon="34.48056770">
        <ele>92.000000</ele>
        <time>2010-01-01T03:30:45Z</time>
      </trkpt>
      <trkpt lat="31.30070700" lon="34.48069360">
        <ele>90.000000</ele>
        <time>2010-01-01T03:30:52Z</time>
      </trkpt>
      <trkpt lat="31.30073760" lon="34.48070970">
        <ele>90.000000</ele>
        <time>2010-01-01T03:30:53Z</time>
      </trkpt>
      <trkpt lat="31.30088550" lon="34.48087190">
        <ele>88.000000</ele>
        <time>2010-01-01T03:31:01Z</time>
      </trkpt>
      <trkpt lat="31.30091630" lon="34.48094210">
        <ele>88.000000</ele>
        <time>2010-01-01T03:31:04Z</time>
      </trkpt>
      <trkpt lat="31.30101350" lon="34.48129200">
        <ele>86.000000</ele>
        <time>2010-01-01T03:31:16Z</time>
      </trkpt>
      <trkpt lat="31.30113030" lon="34.48156240">
        <ele>85.000000</ele>
        <time>2010-01-01T03:31:27Z</time>
      </trkpt>
      <trkpt lat="31.30131050" lon="34.48175450">
        <ele>83.000000</ele>
        <time>2010-01-01T03:31:36Z</time>
      </trkpt>
      <trkpt lat="31.30160320" lon="34.48199370">
        <ele>82.000000</ele>
        <time>2010-01-01T03:31:51Z</time>
      </trkpt>
      <trkpt lat="31.30165860" lon="34.48203100">
        <ele>82.000000</ele>
        <time>2010-01-01T03:31:53Z</time>
      </trkpt>
      <trkpt lat="31.30193610" lon="34.48210320">
        <ele>81.000000</ele>
        <time>2010-01-01T03:32:05Z</time>
      </trkpt>
      <trkpt lat="31.30209160" lon="34.48214900">
        <ele>81.000000</ele>
        <time>2010-01-01T03:32:11Z</time>
      </trkpt>
      <trkpt lat="31.30212280" lon="34.48216430">
        <ele>80.000000</ele>
        <time>2010-01-01T03:32:12Z</time>
      </trkpt>
      <trkpt lat="31.30236720" lon="34.48232010">
        <ele>79.000000</ele>
        <time>2010-01-01T03:32:24Z</time>
      </trkpt>
      <trkpt lat="31.30251620" lon="34.48240930">
        <ele>78.000000</ele>
        <time>2010-01-01T03:32:30Z</time>
      </trkpt>
      <trkpt lat="31.30258740" lon="34.48245540">
        <ele>77.000000</ele>
        <time>2010-01-01T03:32:34Z</time>
      </trkpt>
      <trkpt lat="31.30271930" lon="34.48260880">
        <ele>76.000000</ele>
        <time>2010-01-01T03:32:41Z</time>
      </trkpt>
      <trkpt lat="31.30280650" lon="34.48286880">
        <ele>75.000000</ele>
        <time>2010-01-01T03:32:51Z</time>
      </trkpt>
      <trkpt lat="31.30287800" lon="34.48344490">
        <ele>73.000000</ele>
        <time>2010-01-01T03:33:10Z</time>
      </trkpt>
      <trkpt lat="31.30293290" lon="34.48396670">
        <ele>71.000000</ele>
        <time>2010-01-01T03:33:28Z</time>
      </trkpt>
      <trkpt lat="31.30296860" lon="34.48417990">
        <ele>70.000000</ele>
        <time>2010-01-01T03:33:36Z</time>
      </trkpt>
      <trkpt lat="31.30303680" lon="34.48432840">
        <ele>69.000000</ele>
        <time>2010-01-01T03:33:42Z</time>
      </trkpt>
      <trkpt lat="31.30309360" lon="34.48441560">
        <ele>69.000000</ele>
        <time>2010-01-01T03:33:45Z</time>
      </trkpt>
      <trkpt lat="31.30324300" lon="34.48458580">
        <ele>68.000000</ele>
        <time>2010-01-01T03:33:54Z</time>
      </trkpt>
      <trkpt lat="31.30320670" lon="34.48470300">
        <ele>67.000000</ele>
        <time>2010-01-01T03:33:58Z</time>
      </trkpt>
      <trkpt lat="31.30310470" lon="34.48482220">
        <ele>67.000000</ele>
        <time>2010-01-01T03:34:04Z</time>
      </trkpt>
      <trkpt lat="31.30300257" lon="34.48507010">
        <ele>67.000000</ele>
        <time>2010-01-01T03:34:13Z</time>
      </trkpt>
      <trkpt lat="31.30291089" lon="34.48547244">
        <ele>68.000000</ele>
        <time>2010-01-01T03:34:27Z</time>
      </trkpt>
      <trkpt lat="31.30270464" lon="34.48558509">
        <ele>69.000000</ele>
        <time>2010-01-01T03:34:37Z</time>
      </trkpt>
      <trkpt lat="31.30258546" lon="34.48572456">
        <ele>70.000000</ele>
        <time>2010-01-01T03:34:43Z</time>
      </trkpt>
      <trkpt lat="31.30263588" lon="34.48594450">
        <ele>71.000000</ele>
        <time>2010-01-01T03:34:51Z</time>
      </trkpt>
      <trkpt lat="31.30268172" lon="34.48615908">
        <ele>71.000000</ele>
        <time>2010-01-01T03:34:59Z</time>
      </trkpt>
      <trkpt lat="31.30270005" lon="34.48623955">
        <ele>71.000000</ele>
        <time>2010-01-01T03:35:01Z</time>
      </trkpt>
    </trkseg>
  </trk>
</gpx>

